<?xml version="1.0" encoding="UTF-8" standalone="no" ?>
<gpx xmlns="http://www.topografix.com/GPX/1/1" xmlns:xsi="http://www.w3.org/2001/XMLSchema-instance" xsi:schemaLocation="http://www.topografix.com/GPX/1/1 http://www.topografix.com/GPX/1/1/gpx.xsd" version="1.1" creator="VisuGPX - https://www.visugpx.com">
  <metadata>
    <name>Enduro marathon Roubion 2013</name>
    <desc><![CDATA[Course DH marathon de Roubion 9 juin 2013]]></desc>
  </metadata>
  <trk>
    <name><![CDATA[Enduro marathon Roubion]]></name>
    <trkseg>
      <trkpt lat="44.06892" lon="7.03104">
        <ele>1749.6</ele>
        <time>2013-06-09T07:31:17Z</time>
      </trkpt>
      <trkpt lat="44.06891" lon="7.03104">
        <ele>1750.1</ele>
        <time>2013-06-09T07:31:21Z</time>
      </trkpt>
      <trkpt lat="44.06891" lon="7.03104">
        <ele>1750.1</ele>
        <time>2013-06-09T07:31:25Z</time>
      </trkpt>
      <trkpt lat="44.0689" lon="7.03104">
        <ele>1750.5</ele>
        <time>2013-06-09T07:31:29Z</time>
      </trkpt>
      <trkpt lat="44.0689" lon="7.03104">
        <ele>1750.5</ele>
        <time>2013-06-09T07:31:33Z</time>
      </trkpt>
      <trkpt lat="44.0689" lon="7.03104">
        <ele>1750.5</ele>
        <time>2013-06-09T07:31:37Z</time>
      </trkpt>
      <trkpt lat="44.0689" lon="7.03105">
        <ele>1750.3</ele>
        <time>2013-06-09T07:31:41Z</time>
      </trkpt>
      <trkpt lat="44.0689" lon="7.03105">
        <ele>1750.3</ele>
        <time>2013-06-09T07:31:45Z</time>
      </trkpt>
      <trkpt lat="44.0689" lon="7.03105">
        <ele>1750.3</ele>
        <time>2013-06-09T07:31:49Z</time>
      </trkpt>
      <trkpt lat="44.0689" lon="7.03105">
        <ele>1750.2</ele>
        <time>2013-06-09T07:31:53Z</time>
      </trkpt>
      <trkpt lat="44.0689" lon="7.03105">
        <ele>1750.2</ele>
        <time>2013-06-09T07:31:57Z</time>
      </trkpt>
      <trkpt lat="44.0689" lon="7.03105">
        <ele>1750.2</ele>
        <time>2013-06-09T07:32:01Z</time>
      </trkpt>
      <trkpt lat="44.06885" lon="7.03112">
        <ele>1749.9</ele>
        <time>2013-06-09T07:32:05Z</time>
      </trkpt>
      <trkpt lat="44.0688" lon="7.03121">
        <ele>1749.5</ele>
        <time>2013-06-09T07:32:09Z</time>
      </trkpt>
      <trkpt lat="44.0687" lon="7.0313">
        <ele>1750.8</ele>
        <time>2013-06-09T07:32:13Z</time>
      </trkpt>
      <trkpt lat="44.06863" lon="7.03135">
        <ele>1752.7</ele>
        <time>2013-06-09T07:32:17Z</time>
      </trkpt>
      <trkpt lat="44.06858" lon="7.03142">
        <ele>1753.5</ele>
        <time>2013-06-09T07:32:21Z</time>
      </trkpt>
      <trkpt lat="44.06853" lon="7.0315">
        <ele>1753.4</ele>
        <time>2013-06-09T07:32:25Z</time>
      </trkpt>
      <trkpt lat="44.06849" lon="7.03157">
        <ele>1753.5</ele>
        <time>2013-06-09T07:32:29Z</time>
      </trkpt>
      <trkpt lat="44.06845" lon="7.03164">
        <ele>1753.8</ele>
        <time>2013-06-09T07:32:33Z</time>
      </trkpt>
      <trkpt lat="44.06838" lon="7.03171">
        <ele>1755.3</ele>
        <time>2013-06-09T07:32:37Z</time>
      </trkpt>
      <trkpt lat="44.06833" lon="7.03181">
        <ele>1755.4</ele>
        <time>2013-06-09T07:32:41Z</time>
      </trkpt>
      <trkpt lat="44.06827" lon="7.03192">
        <ele>1755.4</ele>
        <time>2013-06-09T07:32:45Z</time>
      </trkpt>
      <trkpt lat="44.06822" lon="7.03199">
        <ele>1756</ele>
        <time>2013-06-09T07:32:49Z</time>
      </trkpt>
      <trkpt lat="44.06817" lon="7.03206">
        <ele>1756.9</ele>
        <time>2013-06-09T07:32:53Z</time>
      </trkpt>
      <trkpt lat="44.06811" lon="7.03212">
        <ele>1758.3</ele>
        <time>2013-06-09T07:32:57Z</time>
      </trkpt>
      <trkpt lat="44.06806" lon="7.03218">
        <ele>1759.6</ele>
        <time>2013-06-09T07:33:01Z</time>
      </trkpt>
      <trkpt lat="44.06802" lon="7.03224">
        <ele>1760.6</ele>
        <time>2013-06-09T07:33:05Z</time>
      </trkpt>
      <trkpt lat="44.06797" lon="7.0323">
        <ele>1761.6</ele>
        <time>2013-06-09T07:33:09Z</time>
      </trkpt>
      <trkpt lat="44.06794" lon="7.03237">
        <ele>1762</ele>
        <time>2013-06-09T07:33:13Z</time>
      </trkpt>
      <trkpt lat="44.06791" lon="7.03243">
        <ele>1761.8</ele>
        <time>2013-06-09T07:33:17Z</time>
      </trkpt>
      <trkpt lat="44.06787" lon="7.03249">
        <ele>1762.6</ele>
        <time>2013-06-09T07:33:21Z</time>
      </trkpt>
      <trkpt lat="44.06782" lon="7.0326">
        <ele>1762.8</ele>
        <time>2013-06-09T07:33:25Z</time>
      </trkpt>
      <trkpt lat="44.06776" lon="7.03272">
        <ele>1762.9</ele>
        <time>2013-06-09T07:33:29Z</time>
      </trkpt>
      <trkpt lat="44.06773" lon="7.03289">
        <ele>1761</ele>
        <time>2013-06-09T07:33:33Z</time>
      </trkpt>
      <trkpt lat="44.06772" lon="7.03311">
        <ele>1757.7</ele>
        <time>2013-06-09T07:33:37Z</time>
      </trkpt>
      <trkpt lat="44.0677" lon="7.03329">
        <ele>1755.9</ele>
        <time>2013-06-09T07:33:41Z</time>
      </trkpt>
      <trkpt lat="44.06767" lon="7.03346">
        <ele>1754.6</ele>
        <time>2013-06-09T07:33:45Z</time>
      </trkpt>
      <trkpt lat="44.06763" lon="7.03361">
        <ele>1754</ele>
        <time>2013-06-09T07:33:49Z</time>
      </trkpt>
      <trkpt lat="44.06759" lon="7.03373">
        <ele>1754.1</ele>
        <time>2013-06-09T07:33:53Z</time>
      </trkpt>
      <trkpt lat="44.06753" lon="7.03387">
        <ele>1753.3</ele>
        <time>2013-06-09T07:33:57Z</time>
      </trkpt>
      <trkpt lat="44.06738" lon="7.034">
        <ele>1757.6</ele>
        <time>2013-06-09T07:34:01Z</time>
      </trkpt>
      <trkpt lat="44.06725" lon="7.03412">
        <ele>1761.7</ele>
        <time>2013-06-09T07:34:05Z</time>
      </trkpt>
      <trkpt lat="44.06717" lon="7.03428">
        <ele>1762.2</ele>
        <time>2013-06-09T07:34:09Z</time>
      </trkpt>
      <trkpt lat="44.06712" lon="7.03449">
        <ele>1760.2</ele>
        <time>2013-06-09T07:34:13Z</time>
      </trkpt>
      <trkpt lat="44.06708" lon="7.03469">
        <ele>1757.7</ele>
        <time>2013-06-09T07:34:17Z</time>
      </trkpt>
      <trkpt lat="44.06709" lon="7.03488">
        <ele>1753.2</ele>
        <time>2013-06-09T07:34:21Z</time>
      </trkpt>
      <trkpt lat="44.06708" lon="7.03506">
        <ele>1749.2</ele>
        <time>2013-06-09T07:34:25Z</time>
      </trkpt>
      <trkpt lat="44.067" lon="7.03523">
        <ele>1749.1</ele>
        <time>2013-06-09T07:34:29Z</time>
      </trkpt>
      <trkpt lat="44.06694" lon="7.03538">
        <ele>1748.9</ele>
        <time>2013-06-09T07:34:33Z</time>
      </trkpt>
      <trkpt lat="44.06688" lon="7.03554">
        <ele>1747.9</ele>
        <time>2013-06-09T07:34:37Z</time>
      </trkpt>
      <trkpt lat="44.06682" lon="7.0357">
        <ele>1747.4</ele>
        <time>2013-06-09T07:34:41Z</time>
      </trkpt>
      <trkpt lat="44.06676" lon="7.03585">
        <ele>1747.2</ele>
        <time>2013-06-09T07:34:45Z</time>
      </trkpt>
      <trkpt lat="44.0667" lon="7.03599">
        <ele>1747.6</ele>
        <time>2013-06-09T07:34:49Z</time>
      </trkpt>
      <trkpt lat="44.06663" lon="7.03609">
        <ele>1749.4</ele>
        <time>2013-06-09T07:34:53Z</time>
      </trkpt>
      <trkpt lat="44.06657" lon="7.0363">
        <ele>1748.5</ele>
        <time>2013-06-09T07:34:57Z</time>
      </trkpt>
      <trkpt lat="44.06657" lon="7.0365">
        <ele>1745.6</ele>
        <time>2013-06-09T07:35:01Z</time>
      </trkpt>
      <trkpt lat="44.0666" lon="7.03675">
        <ele>1739.9</ele>
        <time>2013-06-09T07:35:05Z</time>
      </trkpt>
      <trkpt lat="44.06664" lon="7.03692">
        <ele>1734.9</ele>
        <time>2013-06-09T07:35:09Z</time>
      </trkpt>
      <trkpt lat="44.06665" lon="7.03707">
        <ele>1732</ele>
        <time>2013-06-09T07:35:13Z</time>
      </trkpt>
      <trkpt lat="44.06663" lon="7.03719">
        <ele>1732.5</ele>
        <time>2013-06-09T07:35:17Z</time>
      </trkpt>
      <trkpt lat="44.06664" lon="7.03728">
        <ele>1731.4</ele>
        <time>2013-06-09T07:35:21Z</time>
      </trkpt>
      <trkpt lat="44.06664" lon="7.03737">
        <ele>1731.4</ele>
        <time>2013-06-09T07:35:25Z</time>
      </trkpt>
      <trkpt lat="44.06663" lon="7.03747">
        <ele>1731.5</ele>
        <time>2013-06-09T07:35:29Z</time>
      </trkpt>
      <trkpt lat="44.06665" lon="7.03756">
        <ele>1730.3</ele>
        <time>2013-06-09T07:35:33Z</time>
      </trkpt>
      <trkpt lat="44.06668" lon="7.03766">
        <ele>1728</ele>
        <time>2013-06-09T07:35:37Z</time>
      </trkpt>
      <trkpt lat="44.06669" lon="7.03778">
        <ele>1726.8</ele>
        <time>2013-06-09T07:35:41Z</time>
      </trkpt>
      <trkpt lat="44.06673" lon="7.03789">
        <ele>1724.3</ele>
        <time>2013-06-09T07:35:45Z</time>
      </trkpt>
      <trkpt lat="44.06674" lon="7.038">
        <ele>1723.2</ele>
        <time>2013-06-09T07:35:49Z</time>
      </trkpt>
      <trkpt lat="44.06672" lon="7.03811">
        <ele>1723.8</ele>
        <time>2013-06-09T07:35:53Z</time>
      </trkpt>
      <trkpt lat="44.06671" lon="7.03821">
        <ele>1723.9</ele>
        <time>2013-06-09T07:35:57Z</time>
      </trkpt>
      <trkpt lat="44.06669" lon="7.0383">
        <ele>1723.9</ele>
        <time>2013-06-09T07:36:01Z</time>
      </trkpt>
      <trkpt lat="44.06666" lon="7.03835">
        <ele>1725.5</ele>
        <time>2013-06-09T07:36:05Z</time>
      </trkpt>
      <trkpt lat="44.06658" lon="7.03842">
        <ele>1729.4</ele>
        <time>2013-06-09T07:36:09Z</time>
      </trkpt>
      <trkpt lat="44.06648" lon="7.0385">
        <ele>1734.6</ele>
        <time>2013-06-09T07:36:13Z</time>
      </trkpt>
      <trkpt lat="44.06641" lon="7.03858">
        <ele>1737.6</ele>
        <time>2013-06-09T07:36:17Z</time>
      </trkpt>
      <trkpt lat="44.06639" lon="7.03868">
        <ele>1738.2</ele>
        <time>2013-06-09T07:36:21Z</time>
      </trkpt>
      <trkpt lat="44.06633" lon="7.03878">
        <ele>1740</ele>
        <time>2013-06-09T07:36:25Z</time>
      </trkpt>
      <trkpt lat="44.06627" lon="7.03887">
        <ele>1740.3</ele>
        <time>2013-06-09T07:36:29Z</time>
      </trkpt>
      <trkpt lat="44.06623" lon="7.03894">
        <ele>1739.4</ele>
        <time>2013-06-09T07:36:33Z</time>
      </trkpt>
      <trkpt lat="44.06618" lon="7.03901">
        <ele>1737.7</ele>
        <time>2013-06-09T07:36:37Z</time>
      </trkpt>
      <trkpt lat="44.06609" lon="7.03908">
        <ele>1736.1</ele>
        <time>2013-06-09T07:36:41Z</time>
      </trkpt>
      <trkpt lat="44.06605" lon="7.03917">
        <ele>1733.6</ele>
        <time>2013-06-09T07:36:45Z</time>
      </trkpt>
      <trkpt lat="44.06603" lon="7.03925">
        <ele>1731.3</ele>
        <time>2013-06-09T07:36:49Z</time>
      </trkpt>
      <trkpt lat="44.06598" lon="7.03934">
        <ele>1728.7</ele>
        <time>2013-06-09T07:36:53Z</time>
      </trkpt>
      <trkpt lat="44.0659" lon="7.03943">
        <ele>1726.3</ele>
        <time>2013-06-09T07:36:57Z</time>
      </trkpt>
      <trkpt lat="44.06582" lon="7.0395">
        <ele>1724.4</ele>
        <time>2013-06-09T07:37:01Z</time>
      </trkpt>
      <trkpt lat="44.06574" lon="7.03954">
        <ele>1723.3</ele>
        <time>2013-06-09T07:37:05Z</time>
      </trkpt>
      <trkpt lat="44.06566" lon="7.03954">
        <ele>1723.6</ele>
        <time>2013-06-09T07:37:09Z</time>
      </trkpt>
      <trkpt lat="44.06557" lon="7.03954">
        <ele>1723.8</ele>
        <time>2013-06-09T07:37:13Z</time>
      </trkpt>
      <trkpt lat="44.0655" lon="7.03954">
        <ele>1724.1</ele>
        <time>2013-06-09T07:37:17Z</time>
      </trkpt>
      <trkpt lat="44.06544" lon="7.03953">
        <ele>1724.8</ele>
        <time>2013-06-09T07:37:21Z</time>
      </trkpt>
      <trkpt lat="44.06542" lon="7.03951">
        <ele>1725.4</ele>
        <time>2013-06-09T07:37:25Z</time>
      </trkpt>
      <trkpt lat="44.06536" lon="7.03946">
        <ele>1726.7</ele>
        <time>2013-06-09T07:37:30Z</time>
      </trkpt>
      <trkpt lat="44.06531" lon="7.03939">
        <ele>1728.2</ele>
        <time>2013-06-09T07:37:34Z</time>
      </trkpt>
      <trkpt lat="44.06525" lon="7.03933">
        <ele>1729.7</ele>
        <time>2013-06-09T07:37:38Z</time>
      </trkpt>
      <trkpt lat="44.06519" lon="7.03929">
        <ele>1730.3</ele>
        <time>2013-06-09T07:37:42Z</time>
      </trkpt>
      <trkpt lat="44.06513" lon="7.03925">
        <ele>1730.8</ele>
        <time>2013-06-09T07:37:46Z</time>
      </trkpt>
      <trkpt lat="44.06509" lon="7.03918">
        <ele>1732.5</ele>
        <time>2013-06-09T07:37:50Z</time>
      </trkpt>
      <trkpt lat="44.06503" lon="7.03912">
        <ele>1733.3</ele>
        <time>2013-06-09T07:37:54Z</time>
      </trkpt>
      <trkpt lat="44.06497" lon="7.03907">
        <ele>1734.2</ele>
        <time>2013-06-09T07:37:58Z</time>
      </trkpt>
      <trkpt lat="44.06491" lon="7.03903">
        <ele>1734.6</ele>
        <time>2013-06-09T07:38:02Z</time>
      </trkpt>
      <trkpt lat="44.06485" lon="7.039">
        <ele>1734.8</ele>
        <time>2013-06-09T07:38:06Z</time>
      </trkpt>
      <trkpt lat="44.06476" lon="7.039">
        <ele>1733.2</ele>
        <time>2013-06-09T07:38:10Z</time>
      </trkpt>
      <trkpt lat="44.06464" lon="7.03898">
        <ele>1731.9</ele>
        <time>2013-06-09T07:38:14Z</time>
      </trkpt>
      <trkpt lat="44.06453" lon="7.03894">
        <ele>1732.5</ele>
        <time>2013-06-09T07:38:18Z</time>
      </trkpt>
      <trkpt lat="44.06444" lon="7.0389">
        <ele>1733.9</ele>
        <time>2013-06-09T07:38:22Z</time>
      </trkpt>
      <trkpt lat="44.06436" lon="7.03888">
        <ele>1734.5</ele>
        <time>2013-06-09T07:38:26Z</time>
      </trkpt>
      <trkpt lat="44.06431" lon="7.03885">
        <ele>1735.5</ele>
        <time>2013-06-09T07:38:30Z</time>
      </trkpt>
      <trkpt lat="44.06425" lon="7.03883">
        <ele>1736.2</ele>
        <time>2013-06-09T07:38:34Z</time>
      </trkpt>
      <trkpt lat="44.06419" lon="7.03879">
        <ele>1737.3</ele>
        <time>2013-06-09T07:38:38Z</time>
      </trkpt>
      <trkpt lat="44.06412" lon="7.03879">
        <ele>1737.6</ele>
        <time>2013-06-09T07:38:42Z</time>
      </trkpt>
      <trkpt lat="44.06404" lon="7.0388">
        <ele>1737.5</ele>
        <time>2013-06-09T07:38:46Z</time>
      </trkpt>
      <trkpt lat="44.06397" lon="7.03884">
        <ele>1736.5</ele>
        <time>2013-06-09T07:38:50Z</time>
      </trkpt>
      <trkpt lat="44.06391" lon="7.03888">
        <ele>1735.6</ele>
        <time>2013-06-09T07:38:54Z</time>
      </trkpt>
      <trkpt lat="44.06386" lon="7.03892">
        <ele>1734.6</ele>
        <time>2013-06-09T07:38:58Z</time>
      </trkpt>
      <trkpt lat="44.06378" lon="7.03896">
        <ele>1733.9</ele>
        <time>2013-06-09T07:39:02Z</time>
      </trkpt>
      <trkpt lat="44.0637" lon="7.039">
        <ele>1733.1</ele>
        <time>2013-06-09T07:39:06Z</time>
      </trkpt>
      <trkpt lat="44.06361" lon="7.03903">
        <ele>1732.4</ele>
        <time>2013-06-09T07:39:10Z</time>
      </trkpt>
      <trkpt lat="44.06354" lon="7.03907">
        <ele>1731.8</ele>
        <time>2013-06-09T07:39:14Z</time>
      </trkpt>
      <trkpt lat="44.06345" lon="7.0391">
        <ele>1731.2</ele>
        <time>2013-06-09T07:39:18Z</time>
      </trkpt>
      <trkpt lat="44.06335" lon="7.03914">
        <ele>1730.5</ele>
        <time>2013-06-09T07:39:22Z</time>
      </trkpt>
      <trkpt lat="44.06322" lon="7.0392">
        <ele>1729.7</ele>
        <time>2013-06-09T07:39:26Z</time>
      </trkpt>
      <trkpt lat="44.06308" lon="7.03925">
        <ele>1729</ele>
        <time>2013-06-09T07:39:30Z</time>
      </trkpt>
      <trkpt lat="44.06295" lon="7.03927">
        <ele>1728.9</ele>
        <time>2013-06-09T07:39:34Z</time>
      </trkpt>
      <trkpt lat="44.06285" lon="7.03929">
        <ele>1728.3</ele>
        <time>2013-06-09T07:39:38Z</time>
      </trkpt>
      <trkpt lat="44.06275" lon="7.03931">
        <ele>1727.8</ele>
        <time>2013-06-09T07:39:42Z</time>
      </trkpt>
      <trkpt lat="44.06267" lon="7.03932">
        <ele>1727.3</ele>
        <time>2013-06-09T07:39:46Z</time>
      </trkpt>
      <trkpt lat="44.06258" lon="7.03933">
        <ele>1727</ele>
        <time>2013-06-09T07:39:50Z</time>
      </trkpt>
      <trkpt lat="44.06251" lon="7.03934">
        <ele>1726.6</ele>
        <time>2013-06-09T07:39:54Z</time>
      </trkpt>
      <trkpt lat="44.06243" lon="7.03935">
        <ele>1726.3</ele>
        <time>2013-06-09T07:39:58Z</time>
      </trkpt>
      <trkpt lat="44.06234" lon="7.03937">
        <ele>1726</ele>
        <time>2013-06-09T07:40:02Z</time>
      </trkpt>
      <trkpt lat="44.06226" lon="7.03941">
        <ele>1725.6</ele>
        <time>2013-06-09T07:40:06Z</time>
      </trkpt>
      <trkpt lat="44.06222" lon="7.03945">
        <ele>1725.4</ele>
        <time>2013-06-09T07:40:10Z</time>
      </trkpt>
      <trkpt lat="44.06218" lon="7.03949">
        <ele>1725.2</ele>
        <time>2013-06-09T07:40:14Z</time>
      </trkpt>
      <trkpt lat="44.06212" lon="7.03956">
        <ele>1725</ele>
        <time>2013-06-09T07:40:18Z</time>
      </trkpt>
      <trkpt lat="44.06206" lon="7.03963">
        <ele>1725.2</ele>
        <time>2013-06-09T07:40:22Z</time>
      </trkpt>
      <trkpt lat="44.06203" lon="7.03968">
        <ele>1725.3</ele>
        <time>2013-06-09T07:40:26Z</time>
      </trkpt>
      <trkpt lat="44.06199" lon="7.03973">
        <ele>1725.3</ele>
        <time>2013-06-09T07:40:30Z</time>
      </trkpt>
      <trkpt lat="44.06197" lon="7.03978">
        <ele>1725.6</ele>
        <time>2013-06-09T07:40:34Z</time>
      </trkpt>
      <trkpt lat="44.06199" lon="7.03986">
        <ele>1726.7</ele>
        <time>2013-06-09T07:40:38Z</time>
      </trkpt>
      <trkpt lat="44.06199" lon="7.03994">
        <ele>1727.6</ele>
        <time>2013-06-09T07:40:42Z</time>
      </trkpt>
      <trkpt lat="44.062" lon="7.04004">
        <ele>1728.8</ele>
        <time>2013-06-09T07:40:46Z</time>
      </trkpt>
      <trkpt lat="44.06201" lon="7.04013">
        <ele>1730</ele>
        <time>2013-06-09T07:40:50Z</time>
      </trkpt>
      <trkpt lat="44.06204" lon="7.04023">
        <ele>1731.4</ele>
        <time>2013-06-09T07:40:54Z</time>
      </trkpt>
      <trkpt lat="44.06206" lon="7.04032">
        <ele>1732.6</ele>
        <time>2013-06-09T07:40:58Z</time>
      </trkpt>
      <trkpt lat="44.06207" lon="7.04041">
        <ele>1733.7</ele>
        <time>2013-06-09T07:41:02Z</time>
      </trkpt>
      <trkpt lat="44.06206" lon="7.04047">
        <ele>1733.9</ele>
        <time>2013-06-09T07:41:06Z</time>
      </trkpt>
      <trkpt lat="44.06207" lon="7.04053">
        <ele>1734.4</ele>
        <time>2013-06-09T07:41:10Z</time>
      </trkpt>
      <trkpt lat="44.06208" lon="7.04064">
        <ele>1735</ele>
        <time>2013-06-09T07:41:14Z</time>
      </trkpt>
      <trkpt lat="44.06208" lon="7.04074">
        <ele>1735.6</ele>
        <time>2013-06-09T07:41:18Z</time>
      </trkpt>
      <trkpt lat="44.06209" lon="7.04085">
        <ele>1735.9</ele>
        <time>2013-06-09T07:41:22Z</time>
      </trkpt>
      <trkpt lat="44.0621" lon="7.04094">
        <ele>1736</ele>
        <time>2013-06-09T07:41:26Z</time>
      </trkpt>
      <trkpt lat="44.0621" lon="7.04101">
        <ele>1736.3</ele>
        <time>2013-06-09T07:41:30Z</time>
      </trkpt>
      <trkpt lat="44.06212" lon="7.04109">
        <ele>1736.2</ele>
        <time>2013-06-09T07:41:34Z</time>
      </trkpt>
      <trkpt lat="44.06211" lon="7.04117">
        <ele>1736.9</ele>
        <time>2013-06-09T07:41:38Z</time>
      </trkpt>
      <trkpt lat="44.0621" lon="7.04124">
        <ele>1737.4</ele>
        <time>2013-06-09T07:41:42Z</time>
      </trkpt>
      <trkpt lat="44.06208" lon="7.04132">
        <ele>1737.9</ele>
        <time>2013-06-09T07:41:46Z</time>
      </trkpt>
      <trkpt lat="44.06205" lon="7.0414">
        <ele>1737.4</ele>
        <time>2013-06-09T07:41:50Z</time>
      </trkpt>
      <trkpt lat="44.06203" lon="7.04148">
        <ele>1737</ele>
        <time>2013-06-09T07:41:54Z</time>
      </trkpt>
      <trkpt lat="44.06196" lon="7.04156">
        <ele>1736.2</ele>
        <time>2013-06-09T07:41:58Z</time>
      </trkpt>
      <trkpt lat="44.06192" lon="7.04163">
        <ele>1735.6</ele>
        <time>2013-06-09T07:42:02Z</time>
      </trkpt>
      <trkpt lat="44.06189" lon="7.04171">
        <ele>1735.3</ele>
        <time>2013-06-09T07:42:06Z</time>
      </trkpt>
      <trkpt lat="44.06187" lon="7.04179">
        <ele>1735</ele>
        <time>2013-06-09T07:42:10Z</time>
      </trkpt>
      <trkpt lat="44.06186" lon="7.04185">
        <ele>1734.9</ele>
        <time>2013-06-09T07:42:14Z</time>
      </trkpt>
      <trkpt lat="44.06184" lon="7.04193">
        <ele>1734.7</ele>
        <time>2013-06-09T07:42:18Z</time>
      </trkpt>
      <trkpt lat="44.0618" lon="7.04203">
        <ele>1734.3</ele>
        <time>2013-06-09T07:42:22Z</time>
      </trkpt>
      <trkpt lat="44.06175" lon="7.04212">
        <ele>1733.9</ele>
        <time>2013-06-09T07:42:26Z</time>
      </trkpt>
      <trkpt lat="44.06169" lon="7.0422">
        <ele>1733.3</ele>
        <time>2013-06-09T07:42:30Z</time>
      </trkpt>
      <trkpt lat="44.06162" lon="7.04227">
        <ele>1732.8</ele>
        <time>2013-06-09T07:42:34Z</time>
      </trkpt>
      <trkpt lat="44.06154" lon="7.04234">
        <ele>1732.4</ele>
        <time>2013-06-09T07:42:38Z</time>
      </trkpt>
      <trkpt lat="44.06146" lon="7.04244">
        <ele>1732.1</ele>
        <time>2013-06-09T07:42:42Z</time>
      </trkpt>
      <trkpt lat="44.06142" lon="7.04254">
        <ele>1732.2</ele>
        <time>2013-06-09T07:42:46Z</time>
      </trkpt>
      <trkpt lat="44.06143" lon="7.04265">
        <ele>1732.6</ele>
        <time>2013-06-09T07:42:50Z</time>
      </trkpt>
      <trkpt lat="44.06143" lon="7.0427">
        <ele>1732.7</ele>
        <time>2013-06-09T07:42:54Z</time>
      </trkpt>
      <trkpt lat="44.06143" lon="7.04275">
        <ele>1732.9</ele>
        <time>2013-06-09T07:42:58Z</time>
      </trkpt>
      <trkpt lat="44.06142" lon="7.04281">
        <ele>1733.1</ele>
        <time>2013-06-09T07:43:02Z</time>
      </trkpt>
      <trkpt lat="44.06141" lon="7.0429">
        <ele>1733.3</ele>
        <time>2013-06-09T07:43:06Z</time>
      </trkpt>
      <trkpt lat="44.06141" lon="7.04299">
        <ele>1733.1</ele>
        <time>2013-06-09T07:43:10Z</time>
      </trkpt>
      <trkpt lat="44.0614" lon="7.04306">
        <ele>1732.8</ele>
        <time>2013-06-09T07:43:14Z</time>
      </trkpt>
      <trkpt lat="44.06138" lon="7.04313">
        <ele>1732.5</ele>
        <time>2013-06-09T07:43:18Z</time>
      </trkpt>
      <trkpt lat="44.06135" lon="7.04319">
        <ele>1732.2</ele>
        <time>2013-06-09T07:43:22Z</time>
      </trkpt>
      <trkpt lat="44.06134" lon="7.0433">
        <ele>1731.8</ele>
        <time>2013-06-09T07:43:26Z</time>
      </trkpt>
      <trkpt lat="44.06134" lon="7.0434">
        <ele>1731.5</ele>
        <time>2013-06-09T07:43:30Z</time>
      </trkpt>
      <trkpt lat="44.06135" lon="7.04351">
        <ele>1731.1</ele>
        <time>2013-06-09T07:43:34Z</time>
      </trkpt>
      <trkpt lat="44.06133" lon="7.04359">
        <ele>1730.8</ele>
        <time>2013-06-09T07:43:38Z</time>
      </trkpt>
      <trkpt lat="44.06131" lon="7.04366">
        <ele>1730.4</ele>
        <time>2013-06-09T07:43:42Z</time>
      </trkpt>
      <trkpt lat="44.0613" lon="7.04376">
        <ele>1730</ele>
        <time>2013-06-09T07:43:46Z</time>
      </trkpt>
      <trkpt lat="44.06127" lon="7.04392">
        <ele>1729.1</ele>
        <time>2013-06-09T07:43:50Z</time>
      </trkpt>
      <trkpt lat="44.06123" lon="7.04408">
        <ele>1727.1</ele>
        <time>2013-06-09T07:43:54Z</time>
      </trkpt>
      <trkpt lat="44.0612" lon="7.04419">
        <ele>1725.4</ele>
        <time>2013-06-09T07:43:58Z</time>
      </trkpt>
      <trkpt lat="44.06118" lon="7.04428">
        <ele>1724.2</ele>
        <time>2013-06-09T07:44:02Z</time>
      </trkpt>
      <trkpt lat="44.06113" lon="7.04437">
        <ele>1721.7</ele>
        <time>2013-06-09T07:44:06Z</time>
      </trkpt>
      <trkpt lat="44.06107" lon="7.04447">
        <ele>1718.9</ele>
        <time>2013-06-09T07:44:10Z</time>
      </trkpt>
      <trkpt lat="44.06101" lon="7.04454">
        <ele>1716.3</ele>
        <time>2013-06-09T07:44:14Z</time>
      </trkpt>
      <trkpt lat="44.06094" lon="7.04459">
        <ele>1713.6</ele>
        <time>2013-06-09T07:44:18Z</time>
      </trkpt>
      <trkpt lat="44.06089" lon="7.04467">
        <ele>1712.3</ele>
        <time>2013-06-09T07:44:22Z</time>
      </trkpt>
      <trkpt lat="44.06086" lon="7.04475">
        <ele>1711.8</ele>
        <time>2013-06-09T07:44:26Z</time>
      </trkpt>
      <trkpt lat="44.06081" lon="7.04484">
        <ele>1710.6</ele>
        <time>2013-06-09T07:44:30Z</time>
      </trkpt>
      <trkpt lat="44.06076" lon="7.04492">
        <ele>1709.2</ele>
        <time>2013-06-09T07:44:34Z</time>
      </trkpt>
      <trkpt lat="44.06072" lon="7.04502">
        <ele>1708.1</ele>
        <time>2013-06-09T07:44:38Z</time>
      </trkpt>
      <trkpt lat="44.0607" lon="7.04526">
        <ele>1709.3</ele>
        <time>2013-06-09T07:44:42Z</time>
      </trkpt>
      <trkpt lat="44.06082" lon="7.04569">
        <ele>1713.3</ele>
        <time>2013-06-09T07:44:46Z</time>
      </trkpt>
      <trkpt lat="44.06092" lon="7.04627">
        <ele>1714.3</ele>
        <time>2013-06-09T07:44:50Z</time>
      </trkpt>
      <trkpt lat="44.06093" lon="7.0469">
        <ele>1711.6</ele>
        <time>2013-06-09T07:44:54Z</time>
      </trkpt>
      <trkpt lat="44.0607" lon="7.04735">
        <ele>1709.9</ele>
        <time>2013-06-09T07:44:58Z</time>
      </trkpt>
      <trkpt lat="44.06061" lon="7.04744">
        <ele>1710.6</ele>
        <time>2013-06-09T07:45:02Z</time>
      </trkpt>
      <trkpt lat="44.06053" lon="7.04751">
        <ele>1711.2</ele>
        <time>2013-06-09T07:45:06Z</time>
      </trkpt>
      <trkpt lat="44.06047" lon="7.04756">
        <ele>1711.9</ele>
        <time>2013-06-09T07:45:10Z</time>
      </trkpt>
      <trkpt lat="44.06043" lon="7.04756">
        <ele>1711.8</ele>
        <time>2013-06-09T07:45:14Z</time>
      </trkpt>
      <trkpt lat="44.06043" lon="7.04755">
        <ele>1711.6</ele>
        <time>2013-06-09T07:45:18Z</time>
      </trkpt>
      <trkpt lat="44.06041" lon="7.04755">
        <ele>1711.7</ele>
        <time>2013-06-09T07:45:22Z</time>
      </trkpt>
      <trkpt lat="44.06038" lon="7.04758">
        <ele>1712.1</ele>
        <time>2013-06-09T07:45:26Z</time>
      </trkpt>
      <trkpt lat="44.06038" lon="7.0476">
        <ele>1712.7</ele>
        <time>2013-06-09T07:45:30Z</time>
      </trkpt>
      <trkpt lat="44.06038" lon="7.0476">
        <ele>1712.7</ele>
        <time>2013-06-09T07:45:34Z</time>
      </trkpt>
      <trkpt lat="44.06039" lon="7.04761">
        <ele>1713</ele>
        <time>2013-06-09T07:45:38Z</time>
      </trkpt>
      <trkpt lat="44.06039" lon="7.04762">
        <ele>1713.1</ele>
        <time>2013-06-09T07:45:42Z</time>
      </trkpt>
      <trkpt lat="44.06039" lon="7.04762">
        <ele>1713.2</ele>
        <time>2013-06-09T07:45:46Z</time>
      </trkpt>
      <trkpt lat="44.06039" lon="7.04763">
        <ele>1713.2</ele>
        <time>2013-06-09T07:45:50Z</time>
      </trkpt>
      <trkpt lat="44.06039" lon="7.04763">
        <ele>1713.2</ele>
        <time>2013-06-09T07:45:54Z</time>
      </trkpt>
      <trkpt lat="44.06038" lon="7.04764">
        <ele>1713.6</ele>
        <time>2013-06-09T07:45:58Z</time>
      </trkpt>
      <trkpt lat="44.06034" lon="7.04767">
        <ele>1714</ele>
        <time>2013-06-09T07:46:02Z</time>
      </trkpt>
      <trkpt lat="44.0603" lon="7.04771">
        <ele>1715.1</ele>
        <time>2013-06-09T07:46:06Z</time>
      </trkpt>
      <trkpt lat="44.06029" lon="7.04774">
        <ele>1715.9</ele>
        <time>2013-06-09T07:46:10Z</time>
      </trkpt>
      <trkpt lat="44.06026" lon="7.04777">
        <ele>1716.4</ele>
        <time>2013-06-09T07:46:14Z</time>
      </trkpt>
      <trkpt lat="44.06023" lon="7.04779">
        <ele>1717</ele>
        <time>2013-06-09T07:46:18Z</time>
      </trkpt>
      <trkpt lat="44.06023" lon="7.04779">
        <ele>1717</ele>
        <time>2013-06-09T07:46:22Z</time>
      </trkpt>
      <trkpt lat="44.06023" lon="7.04779">
        <ele>1717</ele>
        <time>2013-06-09T07:46:26Z</time>
      </trkpt>
      <trkpt lat="44.06022" lon="7.04779">
        <ele>1717</ele>
        <time>2013-06-09T07:46:30Z</time>
      </trkpt>
      <trkpt lat="44.06021" lon="7.04779">
        <ele>1717.1</ele>
        <time>2013-06-09T07:46:34Z</time>
      </trkpt>
      <trkpt lat="44.06019" lon="7.04784">
        <ele>1718.4</ele>
        <time>2013-06-09T07:46:38Z</time>
      </trkpt>
      <trkpt lat="44.06012" lon="7.04794">
        <ele>1721.2</ele>
        <time>2013-06-09T07:46:42Z</time>
      </trkpt>
      <trkpt lat="44.06006" lon="7.04803">
        <ele>1724.2</ele>
        <time>2013-06-09T07:46:46Z</time>
      </trkpt>
      <trkpt lat="44.06002" lon="7.04805">
        <ele>1724.9</ele>
        <time>2013-06-09T07:46:50Z</time>
      </trkpt>
      <trkpt lat="44.06001" lon="7.04802">
        <ele>1724.3</ele>
        <time>2013-06-09T07:46:54Z</time>
      </trkpt>
      <trkpt lat="44.05999" lon="7.04804">
        <ele>1724.7</ele>
        <time>2013-06-09T07:46:58Z</time>
      </trkpt>
      <trkpt lat="44.05998" lon="7.04805">
        <ele>1725.4</ele>
        <time>2013-06-09T07:47:02Z</time>
      </trkpt>
      <trkpt lat="44.05996" lon="7.04808">
        <ele>1726.3</ele>
        <time>2013-06-09T07:47:06Z</time>
      </trkpt>
      <trkpt lat="44.05997" lon="7.04812">
        <ele>1727.4</ele>
        <time>2013-06-09T07:47:10Z</time>
      </trkpt>
      <trkpt lat="44.05997" lon="7.04816">
        <ele>1728.8</ele>
        <time>2013-06-09T07:47:14Z</time>
      </trkpt>
      <trkpt lat="44.05997" lon="7.04819">
        <ele>1729.6</ele>
        <time>2013-06-09T07:47:18Z</time>
      </trkpt>
      <trkpt lat="44.05997" lon="7.04819">
        <ele>1729.7</ele>
        <time>2013-06-09T07:47:22Z</time>
      </trkpt>
      <trkpt lat="44.05997" lon="7.04819">
        <ele>1729.8</ele>
        <time>2013-06-09T07:47:26Z</time>
      </trkpt>
      <trkpt lat="44.05996" lon="7.04819">
        <ele>1729.7</ele>
        <time>2013-06-09T07:47:30Z</time>
      </trkpt>
      <trkpt lat="44.05996" lon="7.04819">
        <ele>1729.8</ele>
        <time>2013-06-09T07:47:34Z</time>
      </trkpt>
      <trkpt lat="44.05996" lon="7.04819">
        <ele>1729.8</ele>
        <time>2013-06-09T07:47:38Z</time>
      </trkpt>
      <trkpt lat="44.05996" lon="7.04819">
        <ele>1729.8</ele>
        <time>2013-06-09T07:47:42Z</time>
      </trkpt>
      <trkpt lat="44.05996" lon="7.04819">
        <ele>1729.8</ele>
        <time>2013-06-09T07:47:46Z</time>
      </trkpt>
      <trkpt lat="44.05996" lon="7.0482">
        <ele>1730.2</ele>
        <time>2013-06-09T07:47:50Z</time>
      </trkpt>
      <trkpt lat="44.05999" lon="7.04826">
        <ele>1731.7</ele>
        <time>2013-06-09T07:47:54Z</time>
      </trkpt>
      <trkpt lat="44.06002" lon="7.04832">
        <ele>1733.3</ele>
        <time>2013-06-09T07:47:58Z</time>
      </trkpt>
      <trkpt lat="44.06005" lon="7.04837">
        <ele>1734.7</ele>
        <time>2013-06-09T07:48:02Z</time>
      </trkpt>
      <trkpt lat="44.06008" lon="7.04843">
        <ele>1736.1</ele>
        <time>2013-06-09T07:48:06Z</time>
      </trkpt>
      <trkpt lat="44.0601" lon="7.04848">
        <ele>1737.5</ele>
        <time>2013-06-09T07:48:10Z</time>
      </trkpt>
      <trkpt lat="44.06012" lon="7.04852">
        <ele>1738.3</ele>
        <time>2013-06-09T07:48:14Z</time>
      </trkpt>
      <trkpt lat="44.06014" lon="7.04856">
        <ele>1739.3</ele>
        <time>2013-06-09T07:48:18Z</time>
      </trkpt>
      <trkpt lat="44.06015" lon="7.04859">
        <ele>1739.8</ele>
        <time>2013-06-09T07:48:22Z</time>
      </trkpt>
      <trkpt lat="44.06016" lon="7.04858">
        <ele>1739.4</ele>
        <time>2013-06-09T07:48:26Z</time>
      </trkpt>
      <trkpt lat="44.06013" lon="7.04856">
        <ele>1739.4</ele>
        <time>2013-06-09T07:48:30Z</time>
      </trkpt>
      <trkpt lat="44.0601" lon="7.04861">
        <ele>1741.3</ele>
        <time>2013-06-09T07:48:34Z</time>
      </trkpt>
      <trkpt lat="44.06012" lon="7.04866">
        <ele>1742.3</ele>
        <time>2013-06-09T07:48:38Z</time>
      </trkpt>
      <trkpt lat="44.06014" lon="7.04869">
        <ele>1743.1</ele>
        <time>2013-06-09T07:48:42Z</time>
      </trkpt>
      <trkpt lat="44.06016" lon="7.04873">
        <ele>1743.8</ele>
        <time>2013-06-09T07:48:46Z</time>
      </trkpt>
      <trkpt lat="44.06017" lon="7.04876">
        <ele>1744.4</ele>
        <time>2013-06-09T07:48:50Z</time>
      </trkpt>
      <trkpt lat="44.06017" lon="7.04879">
        <ele>1745.3</ele>
        <time>2013-06-09T07:48:54Z</time>
      </trkpt>
      <trkpt lat="44.06017" lon="7.04883">
        <ele>1746.6</ele>
        <time>2013-06-09T07:48:58Z</time>
      </trkpt>
      <trkpt lat="44.06019" lon="7.04886">
        <ele>1747.5</ele>
        <time>2013-06-09T07:49:02Z</time>
      </trkpt>
      <trkpt lat="44.06019" lon="7.0489">
        <ele>1748.4</ele>
        <time>2013-06-09T07:49:06Z</time>
      </trkpt>
      <trkpt lat="44.06021" lon="7.04891">
        <ele>1748.7</ele>
        <time>2013-06-09T07:49:10Z</time>
      </trkpt>
      <trkpt lat="44.06022" lon="7.04893">
        <ele>1749</ele>
        <time>2013-06-09T07:49:14Z</time>
      </trkpt>
      <trkpt lat="44.06025" lon="7.04894">
        <ele>1748.8</ele>
        <time>2013-06-09T07:49:18Z</time>
      </trkpt>
      <trkpt lat="44.06026" lon="7.04891">
        <ele>1747.7</ele>
        <time>2013-06-09T07:49:22Z</time>
      </trkpt>
      <trkpt lat="44.06027" lon="7.04895">
        <ele>1748.8</ele>
        <time>2013-06-09T07:49:26Z</time>
      </trkpt>
      <trkpt lat="44.06029" lon="7.04902">
        <ele>1750.5</ele>
        <time>2013-06-09T07:49:30Z</time>
      </trkpt>
      <trkpt lat="44.0603" lon="7.04906">
        <ele>1751.6</ele>
        <time>2013-06-09T07:49:34Z</time>
      </trkpt>
      <trkpt lat="44.06032" lon="7.0491">
        <ele>1752.4</ele>
        <time>2013-06-09T07:49:38Z</time>
      </trkpt>
      <trkpt lat="44.06033" lon="7.04913">
        <ele>1753.1</ele>
        <time>2013-06-09T07:49:42Z</time>
      </trkpt>
      <trkpt lat="44.06032" lon="7.04915">
        <ele>1754</ele>
        <time>2013-06-09T07:49:46Z</time>
      </trkpt>
      <trkpt lat="44.06031" lon="7.04918">
        <ele>1755.1</ele>
        <time>2013-06-09T07:49:50Z</time>
      </trkpt>
      <trkpt lat="44.06031" lon="7.04922">
        <ele>1756.3</ele>
        <time>2013-06-09T07:49:54Z</time>
      </trkpt>
      <trkpt lat="44.06031" lon="7.04925">
        <ele>1757.3</ele>
        <time>2013-06-09T07:49:58Z</time>
      </trkpt>
      <trkpt lat="44.06032" lon="7.04928">
        <ele>1758.1</ele>
        <time>2013-06-09T07:50:02Z</time>
      </trkpt>
      <trkpt lat="44.06032" lon="7.0493">
        <ele>1758.6</ele>
        <time>2013-06-09T07:50:06Z</time>
      </trkpt>
      <trkpt lat="44.06034" lon="7.04932">
        <ele>1758.9</ele>
        <time>2013-06-09T07:50:10Z</time>
      </trkpt>
      <trkpt lat="44.06032" lon="7.04933">
        <ele>1759.4</ele>
        <time>2013-06-09T07:50:14Z</time>
      </trkpt>
      <trkpt lat="44.06032" lon="7.04934">
        <ele>1759.7</ele>
        <time>2013-06-09T07:50:18Z</time>
      </trkpt>
      <trkpt lat="44.06033" lon="7.04935">
        <ele>1760.2</ele>
        <time>2013-06-09T07:50:22Z</time>
      </trkpt>
      <trkpt lat="44.06033" lon="7.04937">
        <ele>1760.5</ele>
        <time>2013-06-09T07:50:26Z</time>
      </trkpt>
      <trkpt lat="44.06033" lon="7.04937">
        <ele>1760.5</ele>
        <time>2013-06-09T07:50:30Z</time>
      </trkpt>
      <trkpt lat="44.06033" lon="7.04937">
        <ele>1760.5</ele>
        <time>2013-06-09T07:50:34Z</time>
      </trkpt>
      <trkpt lat="44.06031" lon="7.04942">
        <ele>1762.7</ele>
        <time>2013-06-09T07:50:38Z</time>
      </trkpt>
      <trkpt lat="44.06029" lon="7.04948">
        <ele>1765</ele>
        <time>2013-06-09T07:50:42Z</time>
      </trkpt>
      <trkpt lat="44.06027" lon="7.04951">
        <ele>1766.4</ele>
        <time>2013-06-09T07:50:46Z</time>
      </trkpt>
      <trkpt lat="44.06027" lon="7.04954">
        <ele>1767.2</ele>
        <time>2013-06-09T07:50:50Z</time>
      </trkpt>
      <trkpt lat="44.06027" lon="7.04957">
        <ele>1768</ele>
        <time>2013-06-09T07:50:54Z</time>
      </trkpt>
      <trkpt lat="44.06029" lon="7.04961">
        <ele>1768.6</ele>
        <time>2013-06-09T07:50:58Z</time>
      </trkpt>
      <trkpt lat="44.06031" lon="7.04967">
        <ele>1769.5</ele>
        <time>2013-06-09T07:51:02Z</time>
      </trkpt>
      <trkpt lat="44.06033" lon="7.04973">
        <ele>1770.3</ele>
        <time>2013-06-09T07:51:06Z</time>
      </trkpt>
      <trkpt lat="44.06035" lon="7.04978">
        <ele>1771</ele>
        <time>2013-06-09T07:51:10Z</time>
      </trkpt>
      <trkpt lat="44.06035" lon="7.04983">
        <ele>1771.9</ele>
        <time>2013-06-09T07:51:14Z</time>
      </trkpt>
      <trkpt lat="44.06037" lon="7.04988">
        <ele>1772.3</ele>
        <time>2013-06-09T07:51:18Z</time>
      </trkpt>
      <trkpt lat="44.06041" lon="7.04991">
        <ele>1771.8</ele>
        <time>2013-06-09T07:51:22Z</time>
      </trkpt>
      <trkpt lat="44.06046" lon="7.04994">
        <ele>1770.6</ele>
        <time>2013-06-09T07:51:26Z</time>
      </trkpt>
      <trkpt lat="44.06051" lon="7.04997">
        <ele>1769.7</ele>
        <time>2013-06-09T07:51:30Z</time>
      </trkpt>
      <trkpt lat="44.06054" lon="7.05">
        <ele>1769.3</ele>
        <time>2013-06-09T07:51:34Z</time>
      </trkpt>
      <trkpt lat="44.06054" lon="7.04999">
        <ele>1768.9</ele>
        <time>2013-06-09T07:51:38Z</time>
      </trkpt>
      <trkpt lat="44.06054" lon="7.05">
        <ele>1768.9</ele>
        <time>2013-06-09T07:51:42Z</time>
      </trkpt>
      <trkpt lat="44.06055" lon="7.05">
        <ele>1768.9</ele>
        <time>2013-06-09T07:51:46Z</time>
      </trkpt>
      <trkpt lat="44.06055" lon="7.05001">
        <ele>1768.9</ele>
        <time>2013-06-09T07:51:50Z</time>
      </trkpt>
      <trkpt lat="44.06055" lon="7.05001">
        <ele>1768.9</ele>
        <time>2013-06-09T07:51:54Z</time>
      </trkpt>
      <trkpt lat="44.06055" lon="7.05001">
        <ele>1768.9</ele>
        <time>2013-06-09T07:51:58Z</time>
      </trkpt>
      <trkpt lat="44.06054" lon="7.05003">
        <ele>1769.8</ele>
        <time>2013-06-09T07:52:02Z</time>
      </trkpt>
      <trkpt lat="44.06054" lon="7.05012">
        <ele>1771.7</ele>
        <time>2013-06-09T07:52:06Z</time>
      </trkpt>
      <trkpt lat="44.06057" lon="7.05024">
        <ele>1772.8</ele>
        <time>2013-06-09T07:52:10Z</time>
      </trkpt>
      <trkpt lat="44.06061" lon="7.05033">
        <ele>1773</ele>
        <time>2013-06-09T07:52:14Z</time>
      </trkpt>
      <trkpt lat="44.0606" lon="7.0504">
        <ele>1775.1</ele>
        <time>2013-06-09T07:52:18Z</time>
      </trkpt>
      <trkpt lat="44.06056" lon="7.05046">
        <ele>1778.1</ele>
        <time>2013-06-09T07:52:22Z</time>
      </trkpt>
      <trkpt lat="44.06056" lon="7.0505">
        <ele>1779.4</ele>
        <time>2013-06-09T07:52:26Z</time>
      </trkpt>
      <trkpt lat="44.06057" lon="7.05054">
        <ele>1780</ele>
        <time>2013-06-09T07:52:30Z</time>
      </trkpt>
      <trkpt lat="44.06062" lon="7.05052">
        <ele>1777.7</ele>
        <time>2013-06-09T07:52:34Z</time>
      </trkpt>
      <trkpt lat="44.06062" lon="7.0505">
        <ele>1777</ele>
        <time>2013-06-09T07:52:38Z</time>
      </trkpt>
      <trkpt lat="44.06061" lon="7.05052">
        <ele>1778</ele>
        <time>2013-06-09T07:52:42Z</time>
      </trkpt>
      <trkpt lat="44.06062" lon="7.05052">
        <ele>1777.6</ele>
        <time>2013-06-09T07:52:46Z</time>
      </trkpt>
      <trkpt lat="44.06063" lon="7.05052">
        <ele>1777.2</ele>
        <time>2013-06-09T07:52:50Z</time>
      </trkpt>
      <trkpt lat="44.06063" lon="7.05052">
        <ele>1777.1</ele>
        <time>2013-06-09T07:52:54Z</time>
      </trkpt>
      <trkpt lat="44.06063" lon="7.05052">
        <ele>1777.4</ele>
        <time>2013-06-09T07:52:58Z</time>
      </trkpt>
      <trkpt lat="44.06063" lon="7.05052">
        <ele>1777.5</ele>
        <time>2013-06-09T07:53:02Z</time>
      </trkpt>
      <trkpt lat="44.06064" lon="7.05053">
        <ele>1777.2</ele>
        <time>2013-06-09T07:53:06Z</time>
      </trkpt>
      <trkpt lat="44.06065" lon="7.05055">
        <ele>1777.4</ele>
        <time>2013-06-09T07:53:10Z</time>
      </trkpt>
      <trkpt lat="44.06068" lon="7.0506">
        <ele>1777.8</ele>
        <time>2013-06-09T07:53:14Z</time>
      </trkpt>
      <trkpt lat="44.06073" lon="7.05066">
        <ele>1777.7</ele>
        <time>2013-06-09T07:53:18Z</time>
      </trkpt>
      <trkpt lat="44.06076" lon="7.05071">
        <ele>1778</ele>
        <time>2013-06-09T07:53:22Z</time>
      </trkpt>
      <trkpt lat="44.06082" lon="7.05077">
        <ele>1777.6</ele>
        <time>2013-06-09T07:53:26Z</time>
      </trkpt>
      <trkpt lat="44.06083" lon="7.05084">
        <ele>1779.2</ele>
        <time>2013-06-09T07:53:30Z</time>
      </trkpt>
      <trkpt lat="44.06086" lon="7.0509">
        <ele>1779.5</ele>
        <time>2013-06-09T07:53:34Z</time>
      </trkpt>
      <trkpt lat="44.06087" lon="7.05092">
        <ele>1779.6</ele>
        <time>2013-06-09T07:53:38Z</time>
      </trkpt>
      <trkpt lat="44.06088" lon="7.05092">
        <ele>1779.3</ele>
        <time>2013-06-09T07:53:42Z</time>
      </trkpt>
      <trkpt lat="44.06088" lon="7.05092">
        <ele>1779.6</ele>
        <time>2013-06-09T07:53:46Z</time>
      </trkpt>
      <trkpt lat="44.06088" lon="7.05092">
        <ele>1779.5</ele>
        <time>2013-06-09T07:53:50Z</time>
      </trkpt>
      <trkpt lat="44.06088" lon="7.05092">
        <ele>1779.3</ele>
        <time>2013-06-09T07:53:54Z</time>
      </trkpt>
      <trkpt lat="44.06088" lon="7.05092">
        <ele>1779.3</ele>
        <time>2013-06-09T07:53:58Z</time>
      </trkpt>
      <trkpt lat="44.06088" lon="7.05092">
        <ele>1779.5</ele>
        <time>2013-06-09T07:54:02Z</time>
      </trkpt>
      <trkpt lat="44.06088" lon="7.05092">
        <ele>1779.5</ele>
        <time>2013-06-09T07:54:06Z</time>
      </trkpt>
      <trkpt lat="44.06088" lon="7.05092">
        <ele>1779.6</ele>
        <time>2013-06-09T07:54:10Z</time>
      </trkpt>
      <trkpt lat="44.06088" lon="7.05093">
        <ele>1779.7</ele>
        <time>2013-06-09T07:54:14Z</time>
      </trkpt>
      <trkpt lat="44.06089" lon="7.05097">
        <ele>1780.4</ele>
        <time>2013-06-09T07:54:18Z</time>
      </trkpt>
      <trkpt lat="44.06091" lon="7.05103">
        <ele>1781.2</ele>
        <time>2013-06-09T07:54:22Z</time>
      </trkpt>
      <trkpt lat="44.06092" lon="7.05107">
        <ele>1781.9</ele>
        <time>2013-06-09T07:54:26Z</time>
      </trkpt>
      <trkpt lat="44.06094" lon="7.05113">
        <ele>1782.5</ele>
        <time>2013-06-09T07:54:30Z</time>
      </trkpt>
      <trkpt lat="44.06097" lon="7.05117">
        <ele>1782.7</ele>
        <time>2013-06-09T07:54:34Z</time>
      </trkpt>
      <trkpt lat="44.06098" lon="7.05121">
        <ele>1782.9</ele>
        <time>2013-06-09T07:54:38Z</time>
      </trkpt>
      <trkpt lat="44.061" lon="7.05123">
        <ele>1782.8</ele>
        <time>2013-06-09T07:54:42Z</time>
      </trkpt>
      <trkpt lat="44.06101" lon="7.05125">
        <ele>1782.8</ele>
        <time>2013-06-09T07:54:46Z</time>
      </trkpt>
      <trkpt lat="44.06101" lon="7.05125">
        <ele>1782.6</ele>
        <time>2013-06-09T07:54:50Z</time>
      </trkpt>
      <trkpt lat="44.06103" lon="7.05126">
        <ele>1782.1</ele>
        <time>2013-06-09T07:54:54Z</time>
      </trkpt>
      <trkpt lat="44.06107" lon="7.05129">
        <ele>1781.6</ele>
        <time>2013-06-09T07:54:58Z</time>
      </trkpt>
      <trkpt lat="44.06109" lon="7.05131">
        <ele>1781.3</ele>
        <time>2013-06-09T07:55:02Z</time>
      </trkpt>
      <trkpt lat="44.06112" lon="7.05133">
        <ele>1780.8</ele>
        <time>2013-06-09T07:55:06Z</time>
      </trkpt>
      <trkpt lat="44.06114" lon="7.05136">
        <ele>1780.9</ele>
        <time>2013-06-09T07:55:10Z</time>
      </trkpt>
      <trkpt lat="44.06116" lon="7.0514">
        <ele>1781.4</ele>
        <time>2013-06-09T07:55:14Z</time>
      </trkpt>
      <trkpt lat="44.06118" lon="7.05143">
        <ele>1781.2</ele>
        <time>2013-06-09T07:55:18Z</time>
      </trkpt>
      <trkpt lat="44.06121" lon="7.05145">
        <ele>1781</ele>
        <time>2013-06-09T07:55:22Z</time>
      </trkpt>
      <trkpt lat="44.06124" lon="7.05149">
        <ele>1780.7</ele>
        <time>2013-06-09T07:55:26Z</time>
      </trkpt>
      <trkpt lat="44.06126" lon="7.05152">
        <ele>1780.9</ele>
        <time>2013-06-09T07:55:30Z</time>
      </trkpt>
      <trkpt lat="44.06128" lon="7.05155">
        <ele>1781.3</ele>
        <time>2013-06-09T07:55:34Z</time>
      </trkpt>
      <trkpt lat="44.0613" lon="7.05158">
        <ele>1781.9</ele>
        <time>2013-06-09T07:55:38Z</time>
      </trkpt>
      <trkpt lat="44.06131" lon="7.05161">
        <ele>1782.7</ele>
        <time>2013-06-09T07:55:42Z</time>
      </trkpt>
      <trkpt lat="44.06132" lon="7.05165">
        <ele>1783.6</ele>
        <time>2013-06-09T07:55:46Z</time>
      </trkpt>
      <trkpt lat="44.06134" lon="7.05169">
        <ele>1784.2</ele>
        <time>2013-06-09T07:55:50Z</time>
      </trkpt>
      <trkpt lat="44.06136" lon="7.05172">
        <ele>1784.6</ele>
        <time>2013-06-09T07:55:54Z</time>
      </trkpt>
      <trkpt lat="44.06138" lon="7.05175">
        <ele>1784.9</ele>
        <time>2013-06-09T07:55:58Z</time>
      </trkpt>
      <trkpt lat="44.0614" lon="7.05177">
        <ele>1785.1</ele>
        <time>2013-06-09T07:56:02Z</time>
      </trkpt>
      <trkpt lat="44.06142" lon="7.0518">
        <ele>1785.5</ele>
        <time>2013-06-09T07:56:06Z</time>
      </trkpt>
      <trkpt lat="44.06144" lon="7.05182">
        <ele>1785.6</ele>
        <time>2013-06-09T07:56:10Z</time>
      </trkpt>
      <trkpt lat="44.06146" lon="7.05185">
        <ele>1785.9</ele>
        <time>2013-06-09T07:56:14Z</time>
      </trkpt>
      <trkpt lat="44.06148" lon="7.05187">
        <ele>1786.1</ele>
        <time>2013-06-09T07:56:18Z</time>
      </trkpt>
      <trkpt lat="44.0615" lon="7.0519">
        <ele>1786.4</ele>
        <time>2013-06-09T07:56:22Z</time>
      </trkpt>
      <trkpt lat="44.06152" lon="7.05194">
        <ele>1786.9</ele>
        <time>2013-06-09T07:56:26Z</time>
      </trkpt>
      <trkpt lat="44.06155" lon="7.05197">
        <ele>1787.3</ele>
        <time>2013-06-09T07:56:30Z</time>
      </trkpt>
      <trkpt lat="44.06157" lon="7.05201">
        <ele>1787.6</ele>
        <time>2013-06-09T07:56:34Z</time>
      </trkpt>
      <trkpt lat="44.0616" lon="7.05204">
        <ele>1787.7</ele>
        <time>2013-06-09T07:56:38Z</time>
      </trkpt>
      <trkpt lat="44.06163" lon="7.05207">
        <ele>1787.9</ele>
        <time>2013-06-09T07:56:42Z</time>
      </trkpt>
      <trkpt lat="44.06166" lon="7.0521">
        <ele>1787.7</ele>
        <time>2013-06-09T07:56:46Z</time>
      </trkpt>
      <trkpt lat="44.06169" lon="7.05213">
        <ele>1788.1</ele>
        <time>2013-06-09T07:56:50Z</time>
      </trkpt>
      <trkpt lat="44.06171" lon="7.05217">
        <ele>1788.6</ele>
        <time>2013-06-09T07:56:54Z</time>
      </trkpt>
      <trkpt lat="44.06173" lon="7.05219">
        <ele>1788.7</ele>
        <time>2013-06-09T07:56:58Z</time>
      </trkpt>
      <trkpt lat="44.06176" lon="7.05222">
        <ele>1788.5</ele>
        <time>2013-06-09T07:57:02Z</time>
      </trkpt>
      <trkpt lat="44.06179" lon="7.05225">
        <ele>1788.5</ele>
        <time>2013-06-09T07:57:06Z</time>
      </trkpt>
      <trkpt lat="44.06182" lon="7.05227">
        <ele>1788.6</ele>
        <time>2013-06-09T07:57:10Z</time>
      </trkpt>
      <trkpt lat="44.06184" lon="7.0523">
        <ele>1788.8</ele>
        <time>2013-06-09T07:57:14Z</time>
      </trkpt>
      <trkpt lat="44.06186" lon="7.05233">
        <ele>1789</ele>
        <time>2013-06-09T07:57:18Z</time>
      </trkpt>
      <trkpt lat="44.06188" lon="7.05235">
        <ele>1789.2</ele>
        <time>2013-06-09T07:57:22Z</time>
      </trkpt>
      <trkpt lat="44.06189" lon="7.05237">
        <ele>1789.7</ele>
        <time>2013-06-09T07:57:26Z</time>
      </trkpt>
      <trkpt lat="44.06191" lon="7.05241">
        <ele>1790.2</ele>
        <time>2013-06-09T07:57:30Z</time>
      </trkpt>
      <trkpt lat="44.06194" lon="7.05243">
        <ele>1790.3</ele>
        <time>2013-06-09T07:57:34Z</time>
      </trkpt>
      <trkpt lat="44.06196" lon="7.05247">
        <ele>1790.8</ele>
        <time>2013-06-09T07:57:38Z</time>
      </trkpt>
      <trkpt lat="44.06197" lon="7.0525">
        <ele>1791.5</ele>
        <time>2013-06-09T07:57:42Z</time>
      </trkpt>
      <trkpt lat="44.06199" lon="7.05253">
        <ele>1791.8</ele>
        <time>2013-06-09T07:57:46Z</time>
      </trkpt>
      <trkpt lat="44.06201" lon="7.05255">
        <ele>1792.1</ele>
        <time>2013-06-09T07:57:50Z</time>
      </trkpt>
      <trkpt lat="44.06202" lon="7.05258">
        <ele>1792.9</ele>
        <time>2013-06-09T07:57:54Z</time>
      </trkpt>
      <trkpt lat="44.06204" lon="7.05263">
        <ele>1793.8</ele>
        <time>2013-06-09T07:57:58Z</time>
      </trkpt>
      <trkpt lat="44.06206" lon="7.05267">
        <ele>1794.9</ele>
        <time>2013-06-09T07:58:02Z</time>
      </trkpt>
      <trkpt lat="44.06207" lon="7.05269">
        <ele>1795.4</ele>
        <time>2013-06-09T07:58:06Z</time>
      </trkpt>
      <trkpt lat="44.06209" lon="7.0527">
        <ele>1795.2</ele>
        <time>2013-06-09T07:58:10Z</time>
      </trkpt>
      <trkpt lat="44.06209" lon="7.05269">
        <ele>1794.9</ele>
        <time>2013-06-09T07:58:14Z</time>
      </trkpt>
      <trkpt lat="44.06208" lon="7.05268">
        <ele>1794.7</ele>
        <time>2013-06-09T07:58:18Z</time>
      </trkpt>
      <trkpt lat="44.06208" lon="7.05268">
        <ele>1794.5</ele>
        <time>2013-06-09T07:58:22Z</time>
      </trkpt>
      <trkpt lat="44.06208" lon="7.05268">
        <ele>1794.4</ele>
        <time>2013-06-09T07:58:26Z</time>
      </trkpt>
      <trkpt lat="44.06208" lon="7.05268">
        <ele>1794.4</ele>
        <time>2013-06-09T07:58:30Z</time>
      </trkpt>
      <trkpt lat="44.06208" lon="7.05268">
        <ele>1794.4</ele>
        <time>2013-06-09T07:58:34Z</time>
      </trkpt>
      <trkpt lat="44.06209" lon="7.05268">
        <ele>1794.5</ele>
        <time>2013-06-09T07:58:38Z</time>
      </trkpt>
      <trkpt lat="44.06213" lon="7.05271">
        <ele>1795.3</ele>
        <time>2013-06-09T07:58:42Z</time>
      </trkpt>
      <trkpt lat="44.06216" lon="7.05275">
        <ele>1796.3</ele>
        <time>2013-06-09T07:58:46Z</time>
      </trkpt>
      <trkpt lat="44.06219" lon="7.05279">
        <ele>1797.4</ele>
        <time>2013-06-09T07:58:50Z</time>
      </trkpt>
      <trkpt lat="44.06221" lon="7.05281">
        <ele>1798.1</ele>
        <time>2013-06-09T07:58:54Z</time>
      </trkpt>
      <trkpt lat="44.06221" lon="7.05281">
        <ele>1797.9</ele>
        <time>2013-06-09T07:58:58Z</time>
      </trkpt>
      <trkpt lat="44.06221" lon="7.05281">
        <ele>1797.9</ele>
        <time>2013-06-09T07:59:02Z</time>
      </trkpt>
      <trkpt lat="44.06221" lon="7.0528">
        <ele>1797.8</ele>
        <time>2013-06-09T07:59:06Z</time>
      </trkpt>
      <trkpt lat="44.06221" lon="7.0528">
        <ele>1797.8</ele>
        <time>2013-06-09T07:59:10Z</time>
      </trkpt>
      <trkpt lat="44.06224" lon="7.05283">
        <ele>1798.4</ele>
        <time>2013-06-09T07:59:14Z</time>
      </trkpt>
      <trkpt lat="44.06227" lon="7.05286">
        <ele>1799.1</ele>
        <time>2013-06-09T07:59:18Z</time>
      </trkpt>
      <trkpt lat="44.06231" lon="7.05288">
        <ele>1799.6</ele>
        <time>2013-06-09T07:59:22Z</time>
      </trkpt>
      <trkpt lat="44.06234" lon="7.05291">
        <ele>1800.4</ele>
        <time>2013-06-09T07:59:27Z</time>
      </trkpt>
      <trkpt lat="44.06237" lon="7.05295">
        <ele>1801.4</ele>
        <time>2013-06-09T07:59:30Z</time>
      </trkpt>
      <trkpt lat="44.06239" lon="7.05299">
        <ele>1802.6</ele>
        <time>2013-06-09T07:59:34Z</time>
      </trkpt>
      <trkpt lat="44.0624" lon="7.05299">
        <ele>1802.5</ele>
        <time>2013-06-09T07:59:38Z</time>
      </trkpt>
      <trkpt lat="44.06241" lon="7.05299">
        <ele>1802.4</ele>
        <time>2013-06-09T07:59:42Z</time>
      </trkpt>
      <trkpt lat="44.06244" lon="7.05301">
        <ele>1802.7</ele>
        <time>2013-06-09T07:59:46Z</time>
      </trkpt>
      <trkpt lat="44.06247" lon="7.05303">
        <ele>1803.3</ele>
        <time>2013-06-09T07:59:50Z</time>
      </trkpt>
      <trkpt lat="44.0625" lon="7.05307">
        <ele>1804</ele>
        <time>2013-06-09T07:59:54Z</time>
      </trkpt>
      <trkpt lat="44.06253" lon="7.05311">
        <ele>1805.1</ele>
        <time>2013-06-09T07:59:58Z</time>
      </trkpt>
      <trkpt lat="44.06257" lon="7.05315">
        <ele>1805.9</ele>
        <time>2013-06-09T08:00:02Z</time>
      </trkpt>
      <trkpt lat="44.0626" lon="7.05319">
        <ele>1806.6</ele>
        <time>2013-06-09T08:00:06Z</time>
      </trkpt>
      <trkpt lat="44.06263" lon="7.05322">
        <ele>1807.3</ele>
        <time>2013-06-09T08:00:10Z</time>
      </trkpt>
      <trkpt lat="44.06266" lon="7.05325">
        <ele>1807.8</ele>
        <time>2013-06-09T08:00:14Z</time>
      </trkpt>
      <trkpt lat="44.06269" lon="7.05329">
        <ele>1808.6</ele>
        <time>2013-06-09T08:00:18Z</time>
      </trkpt>
      <trkpt lat="44.06272" lon="7.05333">
        <ele>1809.2</ele>
        <time>2013-06-09T08:00:22Z</time>
      </trkpt>
      <trkpt lat="44.06274" lon="7.05337">
        <ele>1809.9</ele>
        <time>2013-06-09T08:00:26Z</time>
      </trkpt>
      <trkpt lat="44.06277" lon="7.05341">
        <ele>1810.7</ele>
        <time>2013-06-09T08:00:30Z</time>
      </trkpt>
      <trkpt lat="44.0628" lon="7.05345">
        <ele>1811.1</ele>
        <time>2013-06-09T08:00:34Z</time>
      </trkpt>
      <trkpt lat="44.06283" lon="7.05348">
        <ele>1811.5</ele>
        <time>2013-06-09T08:00:38Z</time>
      </trkpt>
      <trkpt lat="44.06285" lon="7.05351">
        <ele>1811.9</ele>
        <time>2013-06-09T08:00:42Z</time>
      </trkpt>
      <trkpt lat="44.06289" lon="7.05352">
        <ele>1811.4</ele>
        <time>2013-06-09T08:00:46Z</time>
      </trkpt>
      <trkpt lat="44.06292" lon="7.05353">
        <ele>1811.3</ele>
        <time>2013-06-09T08:00:50Z</time>
      </trkpt>
      <trkpt lat="44.06295" lon="7.05357">
        <ele>1812.4</ele>
        <time>2013-06-09T08:00:54Z</time>
      </trkpt>
      <trkpt lat="44.06298" lon="7.05358">
        <ele>1813.1</ele>
        <time>2013-06-09T08:00:58Z</time>
      </trkpt>
      <trkpt lat="44.06303" lon="7.0536">
        <ele>1814</ele>
        <time>2013-06-09T08:01:02Z</time>
      </trkpt>
      <trkpt lat="44.06307" lon="7.05361">
        <ele>1814.6</ele>
        <time>2013-06-09T08:01:06Z</time>
      </trkpt>
      <trkpt lat="44.0631" lon="7.05364">
        <ele>1815.4</ele>
        <time>2013-06-09T08:01:10Z</time>
      </trkpt>
      <trkpt lat="44.06314" lon="7.05367">
        <ele>1816.6</ele>
        <time>2013-06-09T08:01:14Z</time>
      </trkpt>
      <trkpt lat="44.06316" lon="7.05373">
        <ele>1818.1</ele>
        <time>2013-06-09T08:01:19Z</time>
      </trkpt>
      <trkpt lat="44.06318" lon="7.05377">
        <ele>1819.1</ele>
        <time>2013-06-09T08:01:23Z</time>
      </trkpt>
      <trkpt lat="44.06321" lon="7.05381">
        <ele>1819.9</ele>
        <time>2013-06-09T08:01:27Z</time>
      </trkpt>
      <trkpt lat="44.06324" lon="7.05382">
        <ele>1820.5</ele>
        <time>2013-06-09T08:01:31Z</time>
      </trkpt>
      <trkpt lat="44.06326" lon="7.05385">
        <ele>1821.1</ele>
        <time>2013-06-09T08:01:35Z</time>
      </trkpt>
      <trkpt lat="44.06327" lon="7.05389">
        <ele>1821.9</ele>
        <time>2013-06-09T08:01:39Z</time>
      </trkpt>
      <trkpt lat="44.06327" lon="7.05392">
        <ele>1822.5</ele>
        <time>2013-06-09T08:01:43Z</time>
      </trkpt>
      <trkpt lat="44.06329" lon="7.05395">
        <ele>1823.1</ele>
        <time>2013-06-09T08:01:47Z</time>
      </trkpt>
      <trkpt lat="44.06331" lon="7.05397">
        <ele>1823.6</ele>
        <time>2013-06-09T08:01:51Z</time>
      </trkpt>
      <trkpt lat="44.06334" lon="7.05397">
        <ele>1823.7</ele>
        <time>2013-06-09T08:01:55Z</time>
      </trkpt>
      <trkpt lat="44.06336" lon="7.05399">
        <ele>1824.1</ele>
        <time>2013-06-09T08:01:59Z</time>
      </trkpt>
      <trkpt lat="44.06337" lon="7.05401">
        <ele>1824.7</ele>
        <time>2013-06-09T08:02:03Z</time>
      </trkpt>
      <trkpt lat="44.06339" lon="7.05404">
        <ele>1825.2</ele>
        <time>2013-06-09T08:02:07Z</time>
      </trkpt>
      <trkpt lat="44.0634" lon="7.05408">
        <ele>1825.8</ele>
        <time>2013-06-09T08:02:11Z</time>
      </trkpt>
      <trkpt lat="44.0634" lon="7.05411">
        <ele>1826.4</ele>
        <time>2013-06-09T08:02:15Z</time>
      </trkpt>
      <trkpt lat="44.0634" lon="7.05411">
        <ele>1826.5</ele>
        <time>2013-06-09T08:02:19Z</time>
      </trkpt>
      <trkpt lat="44.06341" lon="7.05416">
        <ele>1827.4</ele>
        <time>2013-06-09T08:02:23Z</time>
      </trkpt>
      <trkpt lat="44.06344" lon="7.05422">
        <ele>1828.4</ele>
        <time>2013-06-09T08:02:27Z</time>
      </trkpt>
      <trkpt lat="44.06346" lon="7.05429">
        <ele>1829.7</ele>
        <time>2013-06-09T08:02:31Z</time>
      </trkpt>
      <trkpt lat="44.06347" lon="7.05437">
        <ele>1830.9</ele>
        <time>2013-06-09T08:02:35Z</time>
      </trkpt>
      <trkpt lat="44.06349" lon="7.05443">
        <ele>1832</ele>
        <time>2013-06-09T08:02:39Z</time>
      </trkpt>
      <trkpt lat="44.0635" lon="7.0545">
        <ele>1833.1</ele>
        <time>2013-06-09T08:02:43Z</time>
      </trkpt>
      <trkpt lat="44.06351" lon="7.05457">
        <ele>1834.1</ele>
        <time>2013-06-09T08:02:47Z</time>
      </trkpt>
      <trkpt lat="44.06353" lon="7.05463">
        <ele>1834.7</ele>
        <time>2013-06-09T08:02:51Z</time>
      </trkpt>
      <trkpt lat="44.06353" lon="7.05464">
        <ele>1834.8</ele>
        <time>2013-06-09T08:02:55Z</time>
      </trkpt>
      <trkpt lat="44.06354" lon="7.05469">
        <ele>1835.2</ele>
        <time>2013-06-09T08:02:59Z</time>
      </trkpt>
      <trkpt lat="44.06356" lon="7.05476">
        <ele>1835.7</ele>
        <time>2013-06-09T08:03:03Z</time>
      </trkpt>
      <trkpt lat="44.06356" lon="7.05479">
        <ele>1835.9</ele>
        <time>2013-06-09T08:03:07Z</time>
      </trkpt>
      <trkpt lat="44.06356" lon="7.05481">
        <ele>1836.1</ele>
        <time>2013-06-09T08:03:11Z</time>
      </trkpt>
      <trkpt lat="44.06358" lon="7.05486">
        <ele>1836.4</ele>
        <time>2013-06-09T08:03:15Z</time>
      </trkpt>
      <trkpt lat="44.0636" lon="7.05492">
        <ele>1836.8</ele>
        <time>2013-06-09T08:03:19Z</time>
      </trkpt>
      <trkpt lat="44.06362" lon="7.05498">
        <ele>1837.2</ele>
        <time>2013-06-09T08:03:23Z</time>
      </trkpt>
      <trkpt lat="44.06362" lon="7.05503">
        <ele>1837.7</ele>
        <time>2013-06-09T08:03:27Z</time>
      </trkpt>
      <trkpt lat="44.06362" lon="7.05509">
        <ele>1838.1</ele>
        <time>2013-06-09T08:03:31Z</time>
      </trkpt>
      <trkpt lat="44.06364" lon="7.05516">
        <ele>1838.6</ele>
        <time>2013-06-09T08:03:35Z</time>
      </trkpt>
      <trkpt lat="44.06365" lon="7.05522">
        <ele>1839</ele>
        <time>2013-06-09T08:03:39Z</time>
      </trkpt>
      <trkpt lat="44.06366" lon="7.05523">
        <ele>1839.1</ele>
        <time>2013-06-09T08:03:43Z</time>
      </trkpt>
      <trkpt lat="44.06366" lon="7.05523">
        <ele>1839.1</ele>
        <time>2013-06-09T08:03:47Z</time>
      </trkpt>
      <trkpt lat="44.06367" lon="7.05527">
        <ele>1839.3</ele>
        <time>2013-06-09T08:03:51Z</time>
      </trkpt>
      <trkpt lat="44.06368" lon="7.05532">
        <ele>1839.7</ele>
        <time>2013-06-09T08:03:55Z</time>
      </trkpt>
      <trkpt lat="44.06368" lon="7.05538">
        <ele>1840.1</ele>
        <time>2013-06-09T08:03:59Z</time>
      </trkpt>
      <trkpt lat="44.06368" lon="7.05543">
        <ele>1840.6</ele>
        <time>2013-06-09T08:04:03Z</time>
      </trkpt>
      <trkpt lat="44.06369" lon="7.05548">
        <ele>1841.1</ele>
        <time>2013-06-09T08:04:07Z</time>
      </trkpt>
      <trkpt lat="44.06369" lon="7.05549">
        <ele>1841.3</ele>
        <time>2013-06-09T08:04:11Z</time>
      </trkpt>
      <trkpt lat="44.06369" lon="7.05553">
        <ele>1841.7</ele>
        <time>2013-06-09T08:04:15Z</time>
      </trkpt>
      <trkpt lat="44.06368" lon="7.05557">
        <ele>1842.2</ele>
        <time>2013-06-09T08:04:19Z</time>
      </trkpt>
      <trkpt lat="44.06368" lon="7.05562">
        <ele>1842.7</ele>
        <time>2013-06-09T08:04:23Z</time>
      </trkpt>
      <trkpt lat="44.06367" lon="7.05566">
        <ele>1843.3</ele>
        <time>2013-06-09T08:04:27Z</time>
      </trkpt>
      <trkpt lat="44.06367" lon="7.05572">
        <ele>1844</ele>
        <time>2013-06-09T08:04:31Z</time>
      </trkpt>
      <trkpt lat="44.06366" lon="7.05577">
        <ele>1844.6</ele>
        <time>2013-06-09T08:04:35Z</time>
      </trkpt>
      <trkpt lat="44.06366" lon="7.05582">
        <ele>1845.2</ele>
        <time>2013-06-09T08:04:39Z</time>
      </trkpt>
      <trkpt lat="44.06366" lon="7.05589">
        <ele>1846</ele>
        <time>2013-06-09T08:04:43Z</time>
      </trkpt>
      <trkpt lat="44.06366" lon="7.05594">
        <ele>1846.6</ele>
        <time>2013-06-09T08:04:47Z</time>
      </trkpt>
      <trkpt lat="44.06365" lon="7.05599">
        <ele>1847.2</ele>
        <time>2013-06-09T08:04:51Z</time>
      </trkpt>
      <trkpt lat="44.06365" lon="7.05604">
        <ele>1847.8</ele>
        <time>2013-06-09T08:04:55Z</time>
      </trkpt>
      <trkpt lat="44.06365" lon="7.05609">
        <ele>1848.3</ele>
        <time>2013-06-09T08:04:59Z</time>
      </trkpt>
      <trkpt lat="44.06366" lon="7.05615">
        <ele>1849</ele>
        <time>2013-06-09T08:05:03Z</time>
      </trkpt>
      <trkpt lat="44.06366" lon="7.05621">
        <ele>1849.6</ele>
        <time>2013-06-09T08:05:07Z</time>
      </trkpt>
      <trkpt lat="44.06367" lon="7.05627">
        <ele>1850.2</ele>
        <time>2013-06-09T08:05:11Z</time>
      </trkpt>
      <trkpt lat="44.06366" lon="7.05625">
        <ele>1850.2</ele>
        <time>2013-06-09T08:05:15Z</time>
      </trkpt>
      <trkpt lat="44.06365" lon="7.05624">
        <ele>1850</ele>
        <time>2013-06-09T08:05:19Z</time>
      </trkpt>
      <trkpt lat="44.06366" lon="7.05624">
        <ele>1850</ele>
        <time>2013-06-09T08:05:23Z</time>
      </trkpt>
      <trkpt lat="44.06366" lon="7.05624">
        <ele>1850</ele>
        <time>2013-06-09T08:05:27Z</time>
      </trkpt>
      <trkpt lat="44.06366" lon="7.05624">
        <ele>1850</ele>
        <time>2013-06-09T08:05:32Z</time>
      </trkpt>
      <trkpt lat="44.06366" lon="7.05624">
        <ele>1850</ele>
        <time>2013-06-09T08:05:35Z</time>
      </trkpt>
      <trkpt lat="44.06366" lon="7.05624">
        <ele>1850</ele>
        <time>2013-06-09T08:05:39Z</time>
      </trkpt>
      <trkpt lat="44.06366" lon="7.05624">
        <ele>1850</ele>
        <time>2013-06-09T08:05:43Z</time>
      </trkpt>
      <trkpt lat="44.06366" lon="7.05624">
        <ele>1850</ele>
        <time>2013-06-09T08:05:47Z</time>
      </trkpt>
      <trkpt lat="44.06366" lon="7.05624">
        <ele>1850</ele>
        <time>2013-06-09T08:05:51Z</time>
      </trkpt>
      <trkpt lat="44.06366" lon="7.05624">
        <ele>1850</ele>
        <time>2013-06-09T08:05:55Z</time>
      </trkpt>
      <trkpt lat="44.06366" lon="7.05624">
        <ele>1850</ele>
        <time>2013-06-09T08:05:59Z</time>
      </trkpt>
      <trkpt lat="44.06366" lon="7.05624">
        <ele>1850</ele>
        <time>2013-06-09T08:06:03Z</time>
      </trkpt>
      <trkpt lat="44.06364" lon="7.0562">
        <ele>1849.7</ele>
        <time>2013-06-09T08:06:07Z</time>
      </trkpt>
      <trkpt lat="44.06364" lon="7.05621">
        <ele>1849.8</ele>
        <time>2013-06-09T08:06:11Z</time>
      </trkpt>
      <trkpt lat="44.06364" lon="7.05622">
        <ele>1849.9</ele>
        <time>2013-06-09T08:06:15Z</time>
      </trkpt>
      <trkpt lat="44.06365" lon="7.05623">
        <ele>1850</ele>
        <time>2013-06-09T08:06:19Z</time>
      </trkpt>
      <trkpt lat="44.06364" lon="7.05623">
        <ele>1850.1</ele>
        <time>2013-06-09T08:06:23Z</time>
      </trkpt>
      <trkpt lat="44.06364" lon="7.05623">
        <ele>1850.1</ele>
        <time>2013-06-09T08:06:27Z</time>
      </trkpt>
      <trkpt lat="44.06364" lon="7.05624">
        <ele>1850.2</ele>
        <time>2013-06-09T08:06:31Z</time>
      </trkpt>
      <trkpt lat="44.06365" lon="7.05627">
        <ele>1850.4</ele>
        <time>2013-06-09T08:06:35Z</time>
      </trkpt>
      <trkpt lat="44.06363" lon="7.05633">
        <ele>1851.2</ele>
        <time>2013-06-09T08:06:39Z</time>
      </trkpt>
      <trkpt lat="44.06363" lon="7.05638">
        <ele>1851.6</ele>
        <time>2013-06-09T08:06:43Z</time>
      </trkpt>
      <trkpt lat="44.06362" lon="7.05642">
        <ele>1852.1</ele>
        <time>2013-06-09T08:06:47Z</time>
      </trkpt>
      <trkpt lat="44.06362" lon="7.05647">
        <ele>1852.5</ele>
        <time>2013-06-09T08:06:51Z</time>
      </trkpt>
      <trkpt lat="44.06363" lon="7.05651">
        <ele>1852.9</ele>
        <time>2013-06-09T08:06:56Z</time>
      </trkpt>
      <trkpt lat="44.06362" lon="7.05656">
        <ele>1853.4</ele>
        <time>2013-06-09T08:06:59Z</time>
      </trkpt>
      <trkpt lat="44.06362" lon="7.05665">
        <ele>1854.2</ele>
        <time>2013-06-09T08:07:03Z</time>
      </trkpt>
      <trkpt lat="44.06362" lon="7.05674">
        <ele>1855.1</ele>
        <time>2013-06-09T08:07:07Z</time>
      </trkpt>
      <trkpt lat="44.06362" lon="7.05686">
        <ele>1856.2</ele>
        <time>2013-06-09T08:07:11Z</time>
      </trkpt>
      <trkpt lat="44.06362" lon="7.05694">
        <ele>1856.9</ele>
        <time>2013-06-09T08:07:15Z</time>
      </trkpt>
      <trkpt lat="44.06363" lon="7.05701">
        <ele>1857.5</ele>
        <time>2013-06-09T08:07:19Z</time>
      </trkpt>
      <trkpt lat="44.06363" lon="7.05711">
        <ele>1858.2</ele>
        <time>2013-06-09T08:07:23Z</time>
      </trkpt>
      <trkpt lat="44.06363" lon="7.05723">
        <ele>1858.2</ele>
        <time>2013-06-09T08:07:27Z</time>
      </trkpt>
      <trkpt lat="44.06362" lon="7.05735">
        <ele>1858.4</ele>
        <time>2013-06-09T08:07:31Z</time>
      </trkpt>
      <trkpt lat="44.06363" lon="7.05746">
        <ele>1858.4</ele>
        <time>2013-06-09T08:07:35Z</time>
      </trkpt>
      <trkpt lat="44.06365" lon="7.05755">
        <ele>1858.1</ele>
        <time>2013-06-09T08:07:39Z</time>
      </trkpt>
      <trkpt lat="44.0637" lon="7.05762">
        <ele>1857.6</ele>
        <time>2013-06-09T08:07:43Z</time>
      </trkpt>
      <trkpt lat="44.06375" lon="7.0577">
        <ele>1857</ele>
        <time>2013-06-09T08:07:47Z</time>
      </trkpt>
      <trkpt lat="44.06381" lon="7.05781">
        <ele>1856.5</ele>
        <time>2013-06-09T08:07:51Z</time>
      </trkpt>
      <trkpt lat="44.06387" lon="7.05793">
        <ele>1856.1</ele>
        <time>2013-06-09T08:07:55Z</time>
      </trkpt>
      <trkpt lat="44.06393" lon="7.05803">
        <ele>1855.5</ele>
        <time>2013-06-09T08:07:59Z</time>
      </trkpt>
      <trkpt lat="44.064" lon="7.05813">
        <ele>1854.9</ele>
        <time>2013-06-09T08:08:03Z</time>
      </trkpt>
      <trkpt lat="44.06406" lon="7.05824">
        <ele>1854.5</ele>
        <time>2013-06-09T08:08:07Z</time>
      </trkpt>
      <trkpt lat="44.06412" lon="7.05835">
        <ele>1854</ele>
        <time>2013-06-09T08:08:11Z</time>
      </trkpt>
      <trkpt lat="44.06419" lon="7.05846">
        <ele>1853.6</ele>
        <time>2013-06-09T08:08:15Z</time>
      </trkpt>
      <trkpt lat="44.06425" lon="7.05857">
        <ele>1853.2</ele>
        <time>2013-06-09T08:08:19Z</time>
      </trkpt>
      <trkpt lat="44.06431" lon="7.05866">
        <ele>1853</ele>
        <time>2013-06-09T08:08:23Z</time>
      </trkpt>
      <trkpt lat="44.06437" lon="7.05875">
        <ele>1852.8</ele>
        <time>2013-06-09T08:08:27Z</time>
      </trkpt>
      <trkpt lat="44.06442" lon="7.05886">
        <ele>1852.8</ele>
        <time>2013-06-09T08:08:31Z</time>
      </trkpt>
      <trkpt lat="44.06446" lon="7.05897">
        <ele>1852.8</ele>
        <time>2013-06-09T08:08:35Z</time>
      </trkpt>
      <trkpt lat="44.06449" lon="7.05908">
        <ele>1852.9</ele>
        <time>2013-06-09T08:08:39Z</time>
      </trkpt>
      <trkpt lat="44.06452" lon="7.05917">
        <ele>1853.1</ele>
        <time>2013-06-09T08:08:43Z</time>
      </trkpt>
      <trkpt lat="44.06454" lon="7.05926">
        <ele>1853.3</ele>
        <time>2013-06-09T08:08:47Z</time>
      </trkpt>
      <trkpt lat="44.06458" lon="7.05935">
        <ele>1853.4</ele>
        <time>2013-06-09T08:08:51Z</time>
      </trkpt>
      <trkpt lat="44.06466" lon="7.05947">
        <ele>1853.2</ele>
        <time>2013-06-09T08:08:55Z</time>
      </trkpt>
      <trkpt lat="44.06474" lon="7.05955">
        <ele>1852.9</ele>
        <time>2013-06-09T08:08:59Z</time>
      </trkpt>
      <trkpt lat="44.06484" lon="7.05964">
        <ele>1852.4</ele>
        <time>2013-06-09T08:09:04Z</time>
      </trkpt>
      <trkpt lat="44.06496" lon="7.05977">
        <ele>1851.5</ele>
        <time>2013-06-09T08:09:08Z</time>
      </trkpt>
      <trkpt lat="44.0651" lon="7.05987">
        <ele>1850.7</ele>
        <time>2013-06-09T08:09:12Z</time>
      </trkpt>
      <trkpt lat="44.06523" lon="7.05995">
        <ele>1849.9</ele>
        <time>2013-06-09T08:09:15Z</time>
      </trkpt>
      <trkpt lat="44.06532" lon="7.05999">
        <ele>1849.5</ele>
        <time>2013-06-09T08:09:19Z</time>
      </trkpt>
      <trkpt lat="44.06542" lon="7.06003">
        <ele>1849</ele>
        <time>2013-06-09T08:09:23Z</time>
      </trkpt>
      <trkpt lat="44.06549" lon="7.06005">
        <ele>1849.3</ele>
        <time>2013-06-09T08:09:27Z</time>
      </trkpt>
      <trkpt lat="44.06552" lon="7.06007">
        <ele>1849.5</ele>
        <time>2013-06-09T08:09:31Z</time>
      </trkpt>
      <trkpt lat="44.06556" lon="7.06009">
        <ele>1849.7</ele>
        <time>2013-06-09T08:09:35Z</time>
      </trkpt>
      <trkpt lat="44.0656" lon="7.06011">
        <ele>1849.9</ele>
        <time>2013-06-09T08:09:39Z</time>
      </trkpt>
      <trkpt lat="44.06563" lon="7.06012">
        <ele>1850.1</ele>
        <time>2013-06-09T08:09:44Z</time>
      </trkpt>
      <trkpt lat="44.06567" lon="7.06013">
        <ele>1850.3</ele>
        <time>2013-06-09T08:09:48Z</time>
      </trkpt>
      <trkpt lat="44.06571" lon="7.06014">
        <ele>1850.5</ele>
        <time>2013-06-09T08:09:52Z</time>
      </trkpt>
      <trkpt lat="44.06573" lon="7.06017">
        <ele>1850.7</ele>
        <time>2013-06-09T08:09:56Z</time>
      </trkpt>
      <trkpt lat="44.06576" lon="7.06019">
        <ele>1850.9</ele>
        <time>2013-06-09T08:10:00Z</time>
      </trkpt>
      <trkpt lat="44.06579" lon="7.06022">
        <ele>1851.2</ele>
        <time>2013-06-09T08:10:04Z</time>
      </trkpt>
      <trkpt lat="44.06582" lon="7.06024">
        <ele>1851.4</ele>
        <time>2013-06-09T08:10:08Z</time>
      </trkpt>
      <trkpt lat="44.06585" lon="7.06025">
        <ele>1851.6</ele>
        <time>2013-06-09T08:10:12Z</time>
      </trkpt>
      <trkpt lat="44.06588" lon="7.06027">
        <ele>1851.9</ele>
        <time>2013-06-09T08:10:16Z</time>
      </trkpt>
      <trkpt lat="44.06591" lon="7.0603">
        <ele>1852.1</ele>
        <time>2013-06-09T08:10:20Z</time>
      </trkpt>
      <trkpt lat="44.06594" lon="7.06032">
        <ele>1852.4</ele>
        <time>2013-06-09T08:10:24Z</time>
      </trkpt>
      <trkpt lat="44.06597" lon="7.06034">
        <ele>1852.7</ele>
        <time>2013-06-09T08:10:28Z</time>
      </trkpt>
      <trkpt lat="44.06601" lon="7.06036">
        <ele>1853</ele>
        <time>2013-06-09T08:10:32Z</time>
      </trkpt>
      <trkpt lat="44.06605" lon="7.06037">
        <ele>1853.3</ele>
        <time>2013-06-09T08:10:36Z</time>
      </trkpt>
      <trkpt lat="44.06608" lon="7.06039">
        <ele>1853.7</ele>
        <time>2013-06-09T08:10:40Z</time>
      </trkpt>
      <trkpt lat="44.06612" lon="7.06041">
        <ele>1854</ele>
        <time>2013-06-09T08:10:44Z</time>
      </trkpt>
      <trkpt lat="44.06616" lon="7.06044">
        <ele>1854.3</ele>
        <time>2013-06-09T08:10:48Z</time>
      </trkpt>
      <trkpt lat="44.06618" lon="7.06048">
        <ele>1854.4</ele>
        <time>2013-06-09T08:10:52Z</time>
      </trkpt>
      <trkpt lat="44.06621" lon="7.06051">
        <ele>1854.6</ele>
        <time>2013-06-09T08:10:56Z</time>
      </trkpt>
      <trkpt lat="44.06624" lon="7.06054">
        <ele>1854.8</ele>
        <time>2013-06-09T08:11:00Z</time>
      </trkpt>
      <trkpt lat="44.06626" lon="7.06057">
        <ele>1854.9</ele>
        <time>2013-06-09T08:11:04Z</time>
      </trkpt>
      <trkpt lat="44.06628" lon="7.0606">
        <ele>1855.1</ele>
        <time>2013-06-09T08:11:08Z</time>
      </trkpt>
      <trkpt lat="44.0663" lon="7.06063">
        <ele>1855.2</ele>
        <time>2013-06-09T08:11:12Z</time>
      </trkpt>
      <trkpt lat="44.06631" lon="7.06067">
        <ele>1855.3</ele>
        <time>2013-06-09T08:11:16Z</time>
      </trkpt>
      <trkpt lat="44.06633" lon="7.06071">
        <ele>1855.5</ele>
        <time>2013-06-09T08:11:20Z</time>
      </trkpt>
      <trkpt lat="44.06634" lon="7.06074">
        <ele>1855.6</ele>
        <time>2013-06-09T08:11:24Z</time>
      </trkpt>
      <trkpt lat="44.06634" lon="7.06077">
        <ele>1855.5</ele>
        <time>2013-06-09T08:11:28Z</time>
      </trkpt>
      <trkpt lat="44.06635" lon="7.0608">
        <ele>1855.6</ele>
        <time>2013-06-09T08:11:32Z</time>
      </trkpt>
      <trkpt lat="44.06636" lon="7.06083">
        <ele>1855.7</ele>
        <time>2013-06-09T08:11:36Z</time>
      </trkpt>
      <trkpt lat="44.06637" lon="7.06086">
        <ele>1855.8</ele>
        <time>2013-06-09T08:11:40Z</time>
      </trkpt>
      <trkpt lat="44.06638" lon="7.06089">
        <ele>1855.9</ele>
        <time>2013-06-09T08:11:44Z</time>
      </trkpt>
      <trkpt lat="44.0664" lon="7.06092">
        <ele>1856.1</ele>
        <time>2013-06-09T08:11:48Z</time>
      </trkpt>
      <trkpt lat="44.06642" lon="7.06095">
        <ele>1856.3</ele>
        <time>2013-06-09T08:11:52Z</time>
      </trkpt>
      <trkpt lat="44.06646" lon="7.06096">
        <ele>1856.7</ele>
        <time>2013-06-09T08:11:56Z</time>
      </trkpt>
      <trkpt lat="44.06651" lon="7.06097">
        <ele>1857.3</ele>
        <time>2013-06-09T08:12:00Z</time>
      </trkpt>
      <trkpt lat="44.06653" lon="7.06096">
        <ele>1857.6</ele>
        <time>2013-06-09T08:12:04Z</time>
      </trkpt>
      <trkpt lat="44.06653" lon="7.06096">
        <ele>1857.5</ele>
        <time>2013-06-09T08:12:08Z</time>
      </trkpt>
      <trkpt lat="44.06653" lon="7.06096">
        <ele>1857.5</ele>
        <time>2013-06-09T08:12:12Z</time>
      </trkpt>
      <trkpt lat="44.06653" lon="7.06096">
        <ele>1857.6</ele>
        <time>2013-06-09T08:12:16Z</time>
      </trkpt>
      <trkpt lat="44.06653" lon="7.06096">
        <ele>1857.6</ele>
        <time>2013-06-09T08:12:20Z</time>
      </trkpt>
      <trkpt lat="44.06653" lon="7.06096">
        <ele>1857.6</ele>
        <time>2013-06-09T08:12:24Z</time>
      </trkpt>
      <trkpt lat="44.06654" lon="7.06097">
        <ele>1857.7</ele>
        <time>2013-06-09T08:12:28Z</time>
      </trkpt>
      <trkpt lat="44.06654" lon="7.06097">
        <ele>1857.7</ele>
        <time>2013-06-09T08:12:32Z</time>
      </trkpt>
      <trkpt lat="44.06654" lon="7.06097">
        <ele>1857.7</ele>
        <time>2013-06-09T08:12:36Z</time>
      </trkpt>
      <trkpt lat="44.06654" lon="7.06097">
        <ele>1857.7</ele>
        <time>2013-06-09T08:12:39Z</time>
      </trkpt>
      <trkpt lat="44.06654" lon="7.06097">
        <ele>1857.7</ele>
        <time>2013-06-09T08:12:43Z</time>
      </trkpt>
      <trkpt lat="44.06654" lon="7.06097">
        <ele>1857.7</ele>
        <time>2013-06-09T08:12:47Z</time>
      </trkpt>
      <trkpt lat="44.06654" lon="7.06096">
        <ele>1857.6</ele>
        <time>2013-06-09T08:12:51Z</time>
      </trkpt>
      <trkpt lat="44.06654" lon="7.06096">
        <ele>1857.6</ele>
        <time>2013-06-09T08:12:55Z</time>
      </trkpt>
      <trkpt lat="44.06654" lon="7.06097">
        <ele>1857.7</ele>
        <time>2013-06-09T08:12:59Z</time>
      </trkpt>
      <trkpt lat="44.06654" lon="7.06097">
        <ele>1857.7</ele>
        <time>2013-06-09T08:13:03Z</time>
      </trkpt>
      <trkpt lat="44.06654" lon="7.06096">
        <ele>1857.7</ele>
        <time>2013-06-09T08:13:07Z</time>
      </trkpt>
      <trkpt lat="44.06654" lon="7.06096">
        <ele>1857.7</ele>
        <time>2013-06-09T08:13:12Z</time>
      </trkpt>
      <trkpt lat="44.06654" lon="7.06097">
        <ele>1857.7</ele>
        <time>2013-06-09T08:13:15Z</time>
      </trkpt>
      <trkpt lat="44.06654" lon="7.06097">
        <ele>1857.7</ele>
        <time>2013-06-09T08:13:19Z</time>
      </trkpt>
      <trkpt lat="44.06654" lon="7.06097">
        <ele>1857.7</ele>
        <time>2013-06-09T08:13:23Z</time>
      </trkpt>
      <trkpt lat="44.06654" lon="7.06097">
        <ele>1857.7</ele>
        <time>2013-06-09T08:13:27Z</time>
      </trkpt>
      <trkpt lat="44.06654" lon="7.06097">
        <ele>1857.7</ele>
        <time>2013-06-09T08:13:31Z</time>
      </trkpt>
      <trkpt lat="44.06657" lon="7.06096">
        <ele>1858</ele>
        <time>2013-06-09T08:13:35Z</time>
      </trkpt>
      <trkpt lat="44.06661" lon="7.06097">
        <ele>1858.6</ele>
        <time>2013-06-09T08:13:39Z</time>
      </trkpt>
      <trkpt lat="44.06665" lon="7.06101">
        <ele>1859</ele>
        <time>2013-06-09T08:13:43Z</time>
      </trkpt>
      <trkpt lat="44.06667" lon="7.06101">
        <ele>1859.3</ele>
        <time>2013-06-09T08:13:47Z</time>
      </trkpt>
      <trkpt lat="44.06671" lon="7.061">
        <ele>1859.7</ele>
        <time>2013-06-09T08:13:51Z</time>
      </trkpt>
      <trkpt lat="44.06676" lon="7.06099">
        <ele>1860.2</ele>
        <time>2013-06-09T08:13:55Z</time>
      </trkpt>
      <trkpt lat="44.06679" lon="7.06098">
        <ele>1860.7</ele>
        <time>2013-06-09T08:13:59Z</time>
      </trkpt>
      <trkpt lat="44.06682" lon="7.061">
        <ele>1861.1</ele>
        <time>2013-06-09T08:14:03Z</time>
      </trkpt>
      <trkpt lat="44.06685" lon="7.06103">
        <ele>1861.4</ele>
        <time>2013-06-09T08:14:07Z</time>
      </trkpt>
      <trkpt lat="44.06683" lon="7.06103">
        <ele>1861.2</ele>
        <time>2013-06-09T08:14:11Z</time>
      </trkpt>
      <trkpt lat="44.0669" lon="7.06108">
        <ele>1862.1</ele>
        <time>2013-06-09T08:14:15Z</time>
      </trkpt>
      <trkpt lat="44.06696" lon="7.06113">
        <ele>1863</ele>
        <time>2013-06-09T08:14:19Z</time>
      </trkpt>
      <trkpt lat="44.06702" lon="7.06116">
        <ele>1863.9</ele>
        <time>2013-06-09T08:14:23Z</time>
      </trkpt>
      <trkpt lat="44.06712" lon="7.0612">
        <ele>1864.2</ele>
        <time>2013-06-09T08:14:28Z</time>
      </trkpt>
      <trkpt lat="44.06723" lon="7.06124">
        <ele>1862.7</ele>
        <time>2013-06-09T08:14:32Z</time>
      </trkpt>
      <trkpt lat="44.06731" lon="7.06128">
        <ele>1861.7</ele>
        <time>2013-06-09T08:14:35Z</time>
      </trkpt>
      <trkpt lat="44.06739" lon="7.0613">
        <ele>1860.8</ele>
        <time>2013-06-09T08:14:39Z</time>
      </trkpt>
      <trkpt lat="44.06747" lon="7.06135">
        <ele>1860.2</ele>
        <time>2013-06-09T08:14:43Z</time>
      </trkpt>
      <trkpt lat="44.06755" lon="7.06139">
        <ele>1859.5</ele>
        <time>2013-06-09T08:14:47Z</time>
      </trkpt>
      <trkpt lat="44.06764" lon="7.06141">
        <ele>1858.5</ele>
        <time>2013-06-09T08:14:51Z</time>
      </trkpt>
      <trkpt lat="44.06774" lon="7.06144">
        <ele>1857.7</ele>
        <time>2013-06-09T08:14:55Z</time>
      </trkpt>
      <trkpt lat="44.06784" lon="7.06146">
        <ele>1856.6</ele>
        <time>2013-06-09T08:14:59Z</time>
      </trkpt>
      <trkpt lat="44.06794" lon="7.06151">
        <ele>1855.8</ele>
        <time>2013-06-09T08:15:04Z</time>
      </trkpt>
      <trkpt lat="44.06797" lon="7.06159">
        <ele>1856.2</ele>
        <time>2013-06-09T08:15:08Z</time>
      </trkpt>
      <trkpt lat="44.06801" lon="7.06177">
        <ele>1858.4</ele>
        <time>2013-06-09T08:15:11Z</time>
      </trkpt>
      <trkpt lat="44.06807" lon="7.06193">
        <ele>1859.9</ele>
        <time>2013-06-09T08:15:15Z</time>
      </trkpt>
      <trkpt lat="44.06811" lon="7.06207">
        <ele>1861.3</ele>
        <time>2013-06-09T08:15:19Z</time>
      </trkpt>
      <trkpt lat="44.06814" lon="7.0622">
        <ele>1861.4</ele>
        <time>2013-06-09T08:15:23Z</time>
      </trkpt>
      <trkpt lat="44.06815" lon="7.06231">
        <ele>1861.5</ele>
        <time>2013-06-09T08:15:27Z</time>
      </trkpt>
      <trkpt lat="44.06815" lon="7.06235">
        <ele>1861.6</ele>
        <time>2013-06-09T08:15:31Z</time>
      </trkpt>
      <trkpt lat="44.06814" lon="7.06235">
        <ele>1861.7</ele>
        <time>2013-06-09T08:15:35Z</time>
      </trkpt>
      <trkpt lat="44.06814" lon="7.06236">
        <ele>1861.8</ele>
        <time>2013-06-09T08:15:39Z</time>
      </trkpt>
      <trkpt lat="44.06814" lon="7.06236">
        <ele>1861.8</ele>
        <time>2013-06-09T08:15:43Z</time>
      </trkpt>
      <trkpt lat="44.06815" lon="7.06236">
        <ele>1861.7</ele>
        <time>2013-06-09T08:15:47Z</time>
      </trkpt>
      <trkpt lat="44.0682" lon="7.06238">
        <ele>1860.9</ele>
        <time>2013-06-09T08:15:51Z</time>
      </trkpt>
      <trkpt lat="44.06823" lon="7.06243">
        <ele>1860.7</ele>
        <time>2013-06-09T08:15:55Z</time>
      </trkpt>
      <trkpt lat="44.06823" lon="7.06247">
        <ele>1860.8</ele>
        <time>2013-06-09T08:15:59Z</time>
      </trkpt>
      <trkpt lat="44.06823" lon="7.06245">
        <ele>1860.7</ele>
        <time>2013-06-09T08:16:03Z</time>
      </trkpt>
      <trkpt lat="44.06822" lon="7.06243">
        <ele>1860.7</ele>
        <time>2013-06-09T08:16:07Z</time>
      </trkpt>
      <trkpt lat="44.06822" lon="7.06243">
        <ele>1860.8</ele>
        <time>2013-06-09T08:16:11Z</time>
      </trkpt>
      <trkpt lat="44.06822" lon="7.06244">
        <ele>1860.8</ele>
        <time>2013-06-09T08:16:15Z</time>
      </trkpt>
      <trkpt lat="44.06822" lon="7.06244">
        <ele>1860.8</ele>
        <time>2013-06-09T08:16:19Z</time>
      </trkpt>
      <trkpt lat="44.06822" lon="7.06244">
        <ele>1860.8</ele>
        <time>2013-06-09T08:16:23Z</time>
      </trkpt>
      <trkpt lat="44.06822" lon="7.06243">
        <ele>1860.8</ele>
        <time>2013-06-09T08:16:27Z</time>
      </trkpt>
      <trkpt lat="44.06822" lon="7.06243">
        <ele>1860.8</ele>
        <time>2013-06-09T08:16:31Z</time>
      </trkpt>
      <trkpt lat="44.06822" lon="7.06243">
        <ele>1860.8</ele>
        <time>2013-06-09T08:16:35Z</time>
      </trkpt>
      <trkpt lat="44.06822" lon="7.06243">
        <ele>1860.8</ele>
        <time>2013-06-09T08:16:39Z</time>
      </trkpt>
      <trkpt lat="44.06822" lon="7.06243">
        <ele>1860.7</ele>
        <time>2013-06-09T08:16:43Z</time>
      </trkpt>
      <trkpt lat="44.06822" lon="7.06243">
        <ele>1860.7</ele>
        <time>2013-06-09T08:16:47Z</time>
      </trkpt>
      <trkpt lat="44.06822" lon="7.06243">
        <ele>1860.8</ele>
        <time>2013-06-09T08:16:51Z</time>
      </trkpt>
      <trkpt lat="44.06822" lon="7.06243">
        <ele>1860.8</ele>
        <time>2013-06-09T08:16:55Z</time>
      </trkpt>
      <trkpt lat="44.06822" lon="7.06244">
        <ele>1860.9</ele>
        <time>2013-06-09T08:16:59Z</time>
      </trkpt>
      <trkpt lat="44.06822" lon="7.06243">
        <ele>1860.9</ele>
        <time>2013-06-09T08:17:03Z</time>
      </trkpt>
      <trkpt lat="44.06822" lon="7.06243">
        <ele>1860.9</ele>
        <time>2013-06-09T08:17:07Z</time>
      </trkpt>
      <trkpt lat="44.06822" lon="7.06243">
        <ele>1860.9</ele>
        <time>2013-06-09T08:17:11Z</time>
      </trkpt>
      <trkpt lat="44.06822" lon="7.06243">
        <ele>1860.9</ele>
        <time>2013-06-09T08:17:15Z</time>
      </trkpt>
      <trkpt lat="44.06822" lon="7.06243">
        <ele>1860.9</ele>
        <time>2013-06-09T08:17:19Z</time>
      </trkpt>
      <trkpt lat="44.06822" lon="7.06243">
        <ele>1860.9</ele>
        <time>2013-06-09T08:17:23Z</time>
      </trkpt>
      <trkpt lat="44.06822" lon="7.06243">
        <ele>1860.9</ele>
        <time>2013-06-09T08:17:27Z</time>
      </trkpt>
      <trkpt lat="44.06822" lon="7.06243">
        <ele>1860.9</ele>
        <time>2013-06-09T08:17:31Z</time>
      </trkpt>
      <trkpt lat="44.06822" lon="7.06243">
        <ele>1860.9</ele>
        <time>2013-06-09T08:17:35Z</time>
      </trkpt>
      <trkpt lat="44.06822" lon="7.06243">
        <ele>1860.9</ele>
        <time>2013-06-09T08:17:39Z</time>
      </trkpt>
      <trkpt lat="44.06822" lon="7.06243">
        <ele>1860.9</ele>
        <time>2013-06-09T08:17:43Z</time>
      </trkpt>
      <trkpt lat="44.06822" lon="7.06243">
        <ele>1860.9</ele>
        <time>2013-06-09T08:17:47Z</time>
      </trkpt>
      <trkpt lat="44.06822" lon="7.06243">
        <ele>1860.9</ele>
        <time>2013-06-09T08:17:51Z</time>
      </trkpt>
      <trkpt lat="44.06822" lon="7.06243">
        <ele>1860.9</ele>
        <time>2013-06-09T08:17:55Z</time>
      </trkpt>
      <trkpt lat="44.06822" lon="7.06243">
        <ele>1860.9</ele>
        <time>2013-06-09T08:17:59Z</time>
      </trkpt>
      <trkpt lat="44.06822" lon="7.06243">
        <ele>1860.9</ele>
        <time>2013-06-09T08:18:03Z</time>
      </trkpt>
      <trkpt lat="44.06822" lon="7.06243">
        <ele>1860.9</ele>
        <time>2013-06-09T08:18:07Z</time>
      </trkpt>
      <trkpt lat="44.06822" lon="7.06243">
        <ele>1860.9</ele>
        <time>2013-06-09T08:18:11Z</time>
      </trkpt>
      <trkpt lat="44.06822" lon="7.06243">
        <ele>1860.9</ele>
        <time>2013-06-09T08:18:15Z</time>
      </trkpt>
      <trkpt lat="44.06822" lon="7.06243">
        <ele>1860.9</ele>
        <time>2013-06-09T08:18:19Z</time>
      </trkpt>
      <trkpt lat="44.06822" lon="7.06243">
        <ele>1860.9</ele>
        <time>2013-06-09T08:18:23Z</time>
      </trkpt>
      <trkpt lat="44.06822" lon="7.06243">
        <ele>1860.9</ele>
        <time>2013-06-09T08:18:27Z</time>
      </trkpt>
      <trkpt lat="44.06822" lon="7.06243">
        <ele>1860.9</ele>
        <time>2013-06-09T08:18:31Z</time>
      </trkpt>
      <trkpt lat="44.06822" lon="7.06243">
        <ele>1860.9</ele>
        <time>2013-06-09T08:18:35Z</time>
      </trkpt>
      <trkpt lat="44.06822" lon="7.06243">
        <ele>1860.9</ele>
        <time>2013-06-09T08:18:39Z</time>
      </trkpt>
      <trkpt lat="44.06822" lon="7.06243">
        <ele>1860.9</ele>
        <time>2013-06-09T08:18:43Z</time>
      </trkpt>
      <trkpt lat="44.06822" lon="7.06243">
        <ele>1860.9</ele>
        <time>2013-06-09T08:18:47Z</time>
      </trkpt>
      <trkpt lat="44.06822" lon="7.06243">
        <ele>1860.9</ele>
        <time>2013-06-09T08:18:51Z</time>
      </trkpt>
      <trkpt lat="44.06823" lon="7.06243">
        <ele>1860.7</ele>
        <time>2013-06-09T08:18:55Z</time>
      </trkpt>
      <trkpt lat="44.06822" lon="7.06242">
        <ele>1860.7</ele>
        <time>2013-06-09T08:18:59Z</time>
      </trkpt>
      <trkpt lat="44.06823" lon="7.06242">
        <ele>1860.7</ele>
        <time>2013-06-09T08:19:03Z</time>
      </trkpt>
      <trkpt lat="44.06823" lon="7.06242">
        <ele>1860.6</ele>
        <time>2013-06-09T08:19:07Z</time>
      </trkpt>
      <trkpt lat="44.06823" lon="7.06242">
        <ele>1860.6</ele>
        <time>2013-06-09T08:19:11Z</time>
      </trkpt>
      <trkpt lat="44.06823" lon="7.06242">
        <ele>1860.6</ele>
        <time>2013-06-09T08:19:15Z</time>
      </trkpt>
      <trkpt lat="44.06823" lon="7.06242">
        <ele>1860.6</ele>
        <time>2013-06-09T08:19:19Z</time>
      </trkpt>
      <trkpt lat="44.06823" lon="7.06242">
        <ele>1860.6</ele>
        <time>2013-06-09T08:19:23Z</time>
      </trkpt>
      <trkpt lat="44.06823" lon="7.06242">
        <ele>1860.6</ele>
        <time>2013-06-09T08:19:27Z</time>
      </trkpt>
      <trkpt lat="44.06823" lon="7.06242">
        <ele>1860.6</ele>
        <time>2013-06-09T08:19:31Z</time>
      </trkpt>
      <trkpt lat="44.06823" lon="7.06242">
        <ele>1860.6</ele>
        <time>2013-06-09T08:19:35Z</time>
      </trkpt>
      <trkpt lat="44.06823" lon="7.06242">
        <ele>1860.6</ele>
        <time>2013-06-09T08:19:39Z</time>
      </trkpt>
      <trkpt lat="44.06823" lon="7.06242">
        <ele>1860.6</ele>
        <time>2013-06-09T08:19:43Z</time>
      </trkpt>
      <trkpt lat="44.06823" lon="7.06242">
        <ele>1860.6</ele>
        <time>2013-06-09T08:19:47Z</time>
      </trkpt>
      <trkpt lat="44.06823" lon="7.06242">
        <ele>1860.6</ele>
        <time>2013-06-09T08:19:51Z</time>
      </trkpt>
      <trkpt lat="44.06823" lon="7.06242">
        <ele>1860.6</ele>
        <time>2013-06-09T08:19:55Z</time>
      </trkpt>
      <trkpt lat="44.06823" lon="7.06242">
        <ele>1860.6</ele>
        <time>2013-06-09T08:19:59Z</time>
      </trkpt>
      <trkpt lat="44.06823" lon="7.06242">
        <ele>1860.6</ele>
        <time>2013-06-09T08:20:03Z</time>
      </trkpt>
      <trkpt lat="44.06823" lon="7.06243">
        <ele>1860.6</ele>
        <time>2013-06-09T08:20:07Z</time>
      </trkpt>
      <trkpt lat="44.06823" lon="7.06243">
        <ele>1860.6</ele>
        <time>2013-06-09T08:20:11Z</time>
      </trkpt>
      <trkpt lat="44.06823" lon="7.06243">
        <ele>1860.6</ele>
        <time>2013-06-09T08:20:15Z</time>
      </trkpt>
      <trkpt lat="44.06823" lon="7.06243">
        <ele>1860.6</ele>
        <time>2013-06-09T08:20:19Z</time>
      </trkpt>
      <trkpt lat="44.06823" lon="7.06243">
        <ele>1860.6</ele>
        <time>2013-06-09T08:20:23Z</time>
      </trkpt>
      <trkpt lat="44.06823" lon="7.06243">
        <ele>1860.6</ele>
        <time>2013-06-09T08:20:27Z</time>
      </trkpt>
      <trkpt lat="44.06823" lon="7.06243">
        <ele>1860.6</ele>
        <time>2013-06-09T08:20:31Z</time>
      </trkpt>
      <trkpt lat="44.06823" lon="7.06243">
        <ele>1860.6</ele>
        <time>2013-06-09T08:20:35Z</time>
      </trkpt>
      <trkpt lat="44.06823" lon="7.06243">
        <ele>1860.6</ele>
        <time>2013-06-09T08:20:39Z</time>
      </trkpt>
      <trkpt lat="44.06823" lon="7.06243">
        <ele>1860.6</ele>
        <time>2013-06-09T08:20:43Z</time>
      </trkpt>
      <trkpt lat="44.06823" lon="7.06243">
        <ele>1860.6</ele>
        <time>2013-06-09T08:20:47Z</time>
      </trkpt>
      <trkpt lat="44.06823" lon="7.06243">
        <ele>1860.6</ele>
        <time>2013-06-09T08:20:51Z</time>
      </trkpt>
      <trkpt lat="44.06823" lon="7.06243">
        <ele>1860.6</ele>
        <time>2013-06-09T08:20:55Z</time>
      </trkpt>
      <trkpt lat="44.06823" lon="7.06243">
        <ele>1860.6</ele>
        <time>2013-06-09T08:20:59Z</time>
      </trkpt>
      <trkpt lat="44.06823" lon="7.06243">
        <ele>1860.7</ele>
        <time>2013-06-09T08:21:03Z</time>
      </trkpt>
      <trkpt lat="44.06823" lon="7.06243">
        <ele>1860.7</ele>
        <time>2013-06-09T08:21:07Z</time>
      </trkpt>
      <trkpt lat="44.06823" lon="7.06243">
        <ele>1860.7</ele>
        <time>2013-06-09T08:21:11Z</time>
      </trkpt>
      <trkpt lat="44.06823" lon="7.06243">
        <ele>1860.7</ele>
        <time>2013-06-09T08:21:15Z</time>
      </trkpt>
      <trkpt lat="44.06823" lon="7.06243">
        <ele>1860.7</ele>
        <time>2013-06-09T08:21:19Z</time>
      </trkpt>
      <trkpt lat="44.06823" lon="7.06243">
        <ele>1860.7</ele>
        <time>2013-06-09T08:21:23Z</time>
      </trkpt>
      <trkpt lat="44.06823" lon="7.06243">
        <ele>1860.7</ele>
        <time>2013-06-09T08:21:27Z</time>
      </trkpt>
      <trkpt lat="44.06823" lon="7.06243">
        <ele>1860.7</ele>
        <time>2013-06-09T08:21:31Z</time>
      </trkpt>
      <trkpt lat="44.06823" lon="7.06243">
        <ele>1860.7</ele>
        <time>2013-06-09T08:21:35Z</time>
      </trkpt>
      <trkpt lat="44.06823" lon="7.06243">
        <ele>1860.7</ele>
        <time>2013-06-09T08:21:39Z</time>
      </trkpt>
      <trkpt lat="44.06823" lon="7.06243">
        <ele>1860.7</ele>
        <time>2013-06-09T08:21:43Z</time>
      </trkpt>
      <trkpt lat="44.06823" lon="7.06243">
        <ele>1860.7</ele>
        <time>2013-06-09T08:21:47Z</time>
      </trkpt>
      <trkpt lat="44.06823" lon="7.06243">
        <ele>1860.7</ele>
        <time>2013-06-09T08:21:51Z</time>
      </trkpt>
      <trkpt lat="44.06823" lon="7.06243">
        <ele>1860.7</ele>
        <time>2013-06-09T08:21:55Z</time>
      </trkpt>
      <trkpt lat="44.06823" lon="7.06243">
        <ele>1860.7</ele>
        <time>2013-06-09T08:21:59Z</time>
      </trkpt>
      <trkpt lat="44.06823" lon="7.06243">
        <ele>1860.7</ele>
        <time>2013-06-09T08:22:03Z</time>
      </trkpt>
      <trkpt lat="44.06823" lon="7.06243">
        <ele>1860.7</ele>
        <time>2013-06-09T08:22:07Z</time>
      </trkpt>
      <trkpt lat="44.06823" lon="7.06243">
        <ele>1860.7</ele>
        <time>2013-06-09T08:22:11Z</time>
      </trkpt>
      <trkpt lat="44.06823" lon="7.06243">
        <ele>1860.7</ele>
        <time>2013-06-09T08:22:15Z</time>
      </trkpt>
      <trkpt lat="44.06823" lon="7.06243">
        <ele>1860.7</ele>
        <time>2013-06-09T08:22:19Z</time>
      </trkpt>
      <trkpt lat="44.06823" lon="7.06243">
        <ele>1860.7</ele>
        <time>2013-06-09T08:22:23Z</time>
      </trkpt>
      <trkpt lat="44.06823" lon="7.06243">
        <ele>1860.6</ele>
        <time>2013-06-09T08:22:27Z</time>
      </trkpt>
      <trkpt lat="44.06823" lon="7.06242">
        <ele>1860.6</ele>
        <time>2013-06-09T08:22:31Z</time>
      </trkpt>
      <trkpt lat="44.06822" lon="7.06243">
        <ele>1860.8</ele>
        <time>2013-06-09T08:22:35Z</time>
      </trkpt>
      <trkpt lat="44.06821" lon="7.06245">
        <ele>1861.1</ele>
        <time>2013-06-09T08:22:39Z</time>
      </trkpt>
      <trkpt lat="44.06821" lon="7.06246">
        <ele>1861.1</ele>
        <time>2013-06-09T08:22:43Z</time>
      </trkpt>
      <trkpt lat="44.06822" lon="7.06246">
        <ele>1861</ele>
        <time>2013-06-09T08:22:47Z</time>
      </trkpt>
      <trkpt lat="44.06821" lon="7.06246">
        <ele>1861</ele>
        <time>2013-06-09T08:22:51Z</time>
      </trkpt>
      <trkpt lat="44.06821" lon="7.06246">
        <ele>1861</ele>
        <time>2013-06-09T08:22:55Z</time>
      </trkpt>
      <trkpt lat="44.06821" lon="7.06246">
        <ele>1861.2</ele>
        <time>2013-06-09T08:22:59Z</time>
      </trkpt>
      <trkpt lat="44.0682" lon="7.06247">
        <ele>1861.2</ele>
        <time>2013-06-09T08:23:03Z</time>
      </trkpt>
      <trkpt lat="44.06821" lon="7.06246">
        <ele>1861</ele>
        <time>2013-06-09T08:23:07Z</time>
      </trkpt>
      <trkpt lat="44.06821" lon="7.06246">
        <ele>1861</ele>
        <time>2013-06-09T08:23:11Z</time>
      </trkpt>
      <trkpt lat="44.06821" lon="7.06246">
        <ele>1861</ele>
        <time>2013-06-09T08:23:15Z</time>
      </trkpt>
      <trkpt lat="44.06821" lon="7.06246">
        <ele>1861</ele>
        <time>2013-06-09T08:23:19Z</time>
      </trkpt>
      <trkpt lat="44.06821" lon="7.06246">
        <ele>1861</ele>
        <time>2013-06-09T08:23:23Z</time>
      </trkpt>
      <trkpt lat="44.06821" lon="7.06246">
        <ele>1861</ele>
        <time>2013-06-09T08:23:27Z</time>
      </trkpt>
      <trkpt lat="44.06821" lon="7.06246">
        <ele>1861</ele>
        <time>2013-06-09T08:23:31Z</time>
      </trkpt>
      <trkpt lat="44.06821" lon="7.06246">
        <ele>1861</ele>
        <time>2013-06-09T08:23:35Z</time>
      </trkpt>
      <trkpt lat="44.06821" lon="7.06246">
        <ele>1861</ele>
        <time>2013-06-09T08:23:39Z</time>
      </trkpt>
      <trkpt lat="44.06821" lon="7.06246">
        <ele>1861</ele>
        <time>2013-06-09T08:23:43Z</time>
      </trkpt>
      <trkpt lat="44.06821" lon="7.06246">
        <ele>1861</ele>
        <time>2013-06-09T08:23:47Z</time>
      </trkpt>
      <trkpt lat="44.06821" lon="7.06246">
        <ele>1861</ele>
        <time>2013-06-09T08:23:51Z</time>
      </trkpt>
      <trkpt lat="44.06821" lon="7.06246">
        <ele>1861</ele>
        <time>2013-06-09T08:23:55Z</time>
      </trkpt>
      <trkpt lat="44.06821" lon="7.06246">
        <ele>1861</ele>
        <time>2013-06-09T08:23:59Z</time>
      </trkpt>
      <trkpt lat="44.06821" lon="7.06246">
        <ele>1861</ele>
        <time>2013-06-09T08:24:03Z</time>
      </trkpt>
      <trkpt lat="44.06821" lon="7.06246">
        <ele>1861</ele>
        <time>2013-06-09T08:24:07Z</time>
      </trkpt>
      <trkpt lat="44.06821" lon="7.06245">
        <ele>1861</ele>
        <time>2013-06-09T08:24:11Z</time>
      </trkpt>
      <trkpt lat="44.06821" lon="7.06243">
        <ele>1861</ele>
        <time>2013-06-09T08:24:15Z</time>
      </trkpt>
      <trkpt lat="44.06821" lon="7.06241">
        <ele>1860.9</ele>
        <time>2013-06-09T08:24:19Z</time>
      </trkpt>
      <trkpt lat="44.06821" lon="7.06236">
        <ele>1860.7</ele>
        <time>2013-06-09T08:24:23Z</time>
      </trkpt>
      <trkpt lat="44.0682" lon="7.0623">
        <ele>1860.5</ele>
        <time>2013-06-09T08:24:27Z</time>
      </trkpt>
      <trkpt lat="44.06819" lon="7.06224">
        <ele>1860.5</ele>
        <time>2013-06-09T08:24:31Z</time>
      </trkpt>
      <trkpt lat="44.06819" lon="7.06217">
        <ele>1860.2</ele>
        <time>2013-06-09T08:24:35Z</time>
      </trkpt>
      <trkpt lat="44.06818" lon="7.06211">
        <ele>1860</ele>
        <time>2013-06-09T08:24:39Z</time>
      </trkpt>
      <trkpt lat="44.06817" lon="7.06205">
        <ele>1859.5</ele>
        <time>2013-06-09T08:24:43Z</time>
      </trkpt>
      <trkpt lat="44.06816" lon="7.06201">
        <ele>1859</ele>
        <time>2013-06-09T08:24:47Z</time>
      </trkpt>
      <trkpt lat="44.06814" lon="7.06198">
        <ele>1858.8</ele>
        <time>2013-06-09T08:24:51Z</time>
      </trkpt>
      <trkpt lat="44.06814" lon="7.06198">
        <ele>1858.8</ele>
        <time>2013-06-09T08:24:55Z</time>
      </trkpt>
      <trkpt lat="44.06814" lon="7.06198">
        <ele>1858.9</ele>
        <time>2013-06-09T08:24:59Z</time>
      </trkpt>
      <trkpt lat="44.06814" lon="7.06198">
        <ele>1859</ele>
        <time>2013-06-09T08:25:03Z</time>
      </trkpt>
      <trkpt lat="44.06814" lon="7.06199">
        <ele>1859</ele>
        <time>2013-06-09T08:25:07Z</time>
      </trkpt>
      <trkpt lat="44.06814" lon="7.06199">
        <ele>1859</ele>
        <time>2013-06-09T08:25:11Z</time>
      </trkpt>
      <trkpt lat="44.06814" lon="7.06199">
        <ele>1859.1</ele>
        <time>2013-06-09T08:25:15Z</time>
      </trkpt>
      <trkpt lat="44.06814" lon="7.06199">
        <ele>1859.1</ele>
        <time>2013-06-09T08:25:19Z</time>
      </trkpt>
      <trkpt lat="44.06814" lon="7.06199">
        <ele>1859.1</ele>
        <time>2013-06-09T08:25:23Z</time>
      </trkpt>
      <trkpt lat="44.06814" lon="7.06199">
        <ele>1859.1</ele>
        <time>2013-06-09T08:25:27Z</time>
      </trkpt>
      <trkpt lat="44.06814" lon="7.06199">
        <ele>1859.1</ele>
        <time>2013-06-09T08:25:31Z</time>
      </trkpt>
      <trkpt lat="44.06814" lon="7.06199">
        <ele>1859.1</ele>
        <time>2013-06-09T08:25:35Z</time>
      </trkpt>
      <trkpt lat="44.06814" lon="7.06199">
        <ele>1859.1</ele>
        <time>2013-06-09T08:25:39Z</time>
      </trkpt>
      <trkpt lat="44.06814" lon="7.06199">
        <ele>1859.1</ele>
        <time>2013-06-09T08:25:43Z</time>
      </trkpt>
      <trkpt lat="44.06814" lon="7.06199">
        <ele>1859.1</ele>
        <time>2013-06-09T08:25:47Z</time>
      </trkpt>
      <trkpt lat="44.06814" lon="7.06199">
        <ele>1859.1</ele>
        <time>2013-06-09T08:25:51Z</time>
      </trkpt>
      <trkpt lat="44.06814" lon="7.06199">
        <ele>1859.1</ele>
        <time>2013-06-09T08:25:55Z</time>
      </trkpt>
      <trkpt lat="44.06814" lon="7.06199">
        <ele>1859.1</ele>
        <time>2013-06-09T08:25:59Z</time>
      </trkpt>
      <trkpt lat="44.06814" lon="7.06199">
        <ele>1859.1</ele>
        <time>2013-06-09T08:26:03Z</time>
      </trkpt>
      <trkpt lat="44.06814" lon="7.06199">
        <ele>1859.1</ele>
        <time>2013-06-09T08:26:07Z</time>
      </trkpt>
      <trkpt lat="44.06814" lon="7.06199">
        <ele>1859.1</ele>
        <time>2013-06-09T08:26:11Z</time>
      </trkpt>
      <trkpt lat="44.06814" lon="7.06199">
        <ele>1859.1</ele>
        <time>2013-06-09T08:26:15Z</time>
      </trkpt>
      <trkpt lat="44.06814" lon="7.06199">
        <ele>1859.1</ele>
        <time>2013-06-09T08:26:19Z</time>
      </trkpt>
      <trkpt lat="44.06814" lon="7.06199">
        <ele>1859.1</ele>
        <time>2013-06-09T08:26:23Z</time>
      </trkpt>
      <trkpt lat="44.06814" lon="7.06199">
        <ele>1859.1</ele>
        <time>2013-06-09T08:26:27Z</time>
      </trkpt>
      <trkpt lat="44.06814" lon="7.06199">
        <ele>1859.1</ele>
        <time>2013-06-09T08:26:31Z</time>
      </trkpt>
      <trkpt lat="44.06814" lon="7.06199">
        <ele>1859.1</ele>
        <time>2013-06-09T08:26:35Z</time>
      </trkpt>
      <trkpt lat="44.06814" lon="7.06199">
        <ele>1859.1</ele>
        <time>2013-06-09T08:26:39Z</time>
      </trkpt>
      <trkpt lat="44.06814" lon="7.06199">
        <ele>1859.1</ele>
        <time>2013-06-09T08:26:43Z</time>
      </trkpt>
      <trkpt lat="44.06814" lon="7.06199">
        <ele>1859.1</ele>
        <time>2013-06-09T08:26:47Z</time>
      </trkpt>
      <trkpt lat="44.06814" lon="7.06199">
        <ele>1859.1</ele>
        <time>2013-06-09T08:26:51Z</time>
      </trkpt>
      <trkpt lat="44.06814" lon="7.06199">
        <ele>1859.1</ele>
        <time>2013-06-09T08:26:55Z</time>
      </trkpt>
      <trkpt lat="44.06814" lon="7.06199">
        <ele>1859.1</ele>
        <time>2013-06-09T08:26:59Z</time>
      </trkpt>
      <trkpt lat="44.06814" lon="7.06199">
        <ele>1859.1</ele>
        <time>2013-06-09T08:27:03Z</time>
      </trkpt>
      <trkpt lat="44.06814" lon="7.06199">
        <ele>1859.1</ele>
        <time>2013-06-09T08:27:07Z</time>
      </trkpt>
      <trkpt lat="44.06814" lon="7.06199">
        <ele>1859.1</ele>
        <time>2013-06-09T08:27:11Z</time>
      </trkpt>
      <trkpt lat="44.06814" lon="7.06199">
        <ele>1859.1</ele>
        <time>2013-06-09T08:27:15Z</time>
      </trkpt>
      <trkpt lat="44.06814" lon="7.06199">
        <ele>1859.1</ele>
        <time>2013-06-09T08:27:19Z</time>
      </trkpt>
      <trkpt lat="44.06814" lon="7.06199">
        <ele>1859.1</ele>
        <time>2013-06-09T08:27:23Z</time>
      </trkpt>
      <trkpt lat="44.06814" lon="7.06198">
        <ele>1859</ele>
        <time>2013-06-09T08:27:27Z</time>
      </trkpt>
      <trkpt lat="44.06814" lon="7.06196">
        <ele>1858.6</ele>
        <time>2013-06-09T08:27:31Z</time>
      </trkpt>
      <trkpt lat="44.06814" lon="7.06195">
        <ele>1858.4</ele>
        <time>2013-06-09T08:27:35Z</time>
      </trkpt>
      <trkpt lat="44.06814" lon="7.06196">
        <ele>1858.4</ele>
        <time>2013-06-09T08:27:39Z</time>
      </trkpt>
      <trkpt lat="44.06814" lon="7.06196">
        <ele>1858.4</ele>
        <time>2013-06-09T08:27:43Z</time>
      </trkpt>
      <trkpt lat="44.06814" lon="7.06196">
        <ele>1858.4</ele>
        <time>2013-06-09T08:27:47Z</time>
      </trkpt>
      <trkpt lat="44.06814" lon="7.06196">
        <ele>1858.4</ele>
        <time>2013-06-09T08:27:51Z</time>
      </trkpt>
      <trkpt lat="44.06814" lon="7.06196">
        <ele>1858.4</ele>
        <time>2013-06-09T08:27:55Z</time>
      </trkpt>
      <trkpt lat="44.06814" lon="7.06196">
        <ele>1858.4</ele>
        <time>2013-06-09T08:27:59Z</time>
      </trkpt>
      <trkpt lat="44.06814" lon="7.06196">
        <ele>1858.4</ele>
        <time>2013-06-09T08:28:03Z</time>
      </trkpt>
      <trkpt lat="44.06814" lon="7.06196">
        <ele>1858.4</ele>
        <time>2013-06-09T08:28:07Z</time>
      </trkpt>
      <trkpt lat="44.06814" lon="7.06196">
        <ele>1858.4</ele>
        <time>2013-06-09T08:28:11Z</time>
      </trkpt>
      <trkpt lat="44.06814" lon="7.06196">
        <ele>1858.4</ele>
        <time>2013-06-09T08:28:15Z</time>
      </trkpt>
      <trkpt lat="44.06814" lon="7.06196">
        <ele>1858.4</ele>
        <time>2013-06-09T08:28:19Z</time>
      </trkpt>
      <trkpt lat="44.06814" lon="7.06196">
        <ele>1858.4</ele>
        <time>2013-06-09T08:28:23Z</time>
      </trkpt>
      <trkpt lat="44.06814" lon="7.06196">
        <ele>1858.4</ele>
        <time>2013-06-09T08:28:27Z</time>
      </trkpt>
      <trkpt lat="44.06814" lon="7.06196">
        <ele>1858.4</ele>
        <time>2013-06-09T08:28:31Z</time>
      </trkpt>
      <trkpt lat="44.06814" lon="7.06196">
        <ele>1858.4</ele>
        <time>2013-06-09T08:28:35Z</time>
      </trkpt>
      <trkpt lat="44.06814" lon="7.06196">
        <ele>1858.4</ele>
        <time>2013-06-09T08:28:39Z</time>
      </trkpt>
      <trkpt lat="44.06814" lon="7.06196">
        <ele>1858.4</ele>
        <time>2013-06-09T08:28:43Z</time>
      </trkpt>
      <trkpt lat="44.06814" lon="7.06195">
        <ele>1858.5</ele>
        <time>2013-06-09T08:28:47Z</time>
      </trkpt>
      <trkpt lat="44.06815" lon="7.06195">
        <ele>1858.2</ele>
        <time>2013-06-09T08:28:51Z</time>
      </trkpt>
      <trkpt lat="44.06815" lon="7.06195">
        <ele>1858.2</ele>
        <time>2013-06-09T08:28:55Z</time>
      </trkpt>
      <trkpt lat="44.06814" lon="7.06195">
        <ele>1858.3</ele>
        <time>2013-06-09T08:28:59Z</time>
      </trkpt>
      <trkpt lat="44.06814" lon="7.06195">
        <ele>1858.4</ele>
        <time>2013-06-09T08:29:03Z</time>
      </trkpt>
      <trkpt lat="44.06814" lon="7.06195">
        <ele>1858.4</ele>
        <time>2013-06-09T08:29:07Z</time>
      </trkpt>
      <trkpt lat="44.06814" lon="7.06195">
        <ele>1858.4</ele>
        <time>2013-06-09T08:29:11Z</time>
      </trkpt>
      <trkpt lat="44.06814" lon="7.06195">
        <ele>1858.4</ele>
        <time>2013-06-09T08:29:15Z</time>
      </trkpt>
      <trkpt lat="44.06814" lon="7.06195">
        <ele>1858.4</ele>
        <time>2013-06-09T08:29:19Z</time>
      </trkpt>
      <trkpt lat="44.06814" lon="7.06195">
        <ele>1858.4</ele>
        <time>2013-06-09T08:29:23Z</time>
      </trkpt>
      <trkpt lat="44.06814" lon="7.06195">
        <ele>1858.5</ele>
        <time>2013-06-09T08:29:27Z</time>
      </trkpt>
      <trkpt lat="44.06813" lon="7.06195">
        <ele>1858.6</ele>
        <time>2013-06-09T08:29:31Z</time>
      </trkpt>
      <trkpt lat="44.06813" lon="7.06195">
        <ele>1858.6</ele>
        <time>2013-06-09T08:29:35Z</time>
      </trkpt>
      <trkpt lat="44.06813" lon="7.06195">
        <ele>1858.6</ele>
        <time>2013-06-09T08:29:39Z</time>
      </trkpt>
      <trkpt lat="44.06813" lon="7.06195">
        <ele>1858.6</ele>
        <time>2013-06-09T08:29:43Z</time>
      </trkpt>
      <trkpt lat="44.06813" lon="7.06195">
        <ele>1858.6</ele>
        <time>2013-06-09T08:29:47Z</time>
      </trkpt>
      <trkpt lat="44.06813" lon="7.06195">
        <ele>1858.6</ele>
        <time>2013-06-09T08:29:51Z</time>
      </trkpt>
      <trkpt lat="44.06813" lon="7.06195">
        <ele>1858.6</ele>
        <time>2013-06-09T08:29:55Z</time>
      </trkpt>
      <trkpt lat="44.06813" lon="7.06195">
        <ele>1858.8</ele>
        <time>2013-06-09T08:29:59Z</time>
      </trkpt>
      <trkpt lat="44.06812" lon="7.06195">
        <ele>1858.8</ele>
        <time>2013-06-09T08:30:03Z</time>
      </trkpt>
      <trkpt lat="44.06812" lon="7.06195">
        <ele>1858.9</ele>
        <time>2013-06-09T08:30:07Z</time>
      </trkpt>
      <trkpt lat="44.06811" lon="7.06194">
        <ele>1858.9</ele>
        <time>2013-06-09T08:30:11Z</time>
      </trkpt>
      <trkpt lat="44.0681" lon="7.06191">
        <ele>1858.7</ele>
        <time>2013-06-09T08:30:15Z</time>
      </trkpt>
      <trkpt lat="44.06811" lon="7.06193">
        <ele>1858.7</ele>
        <time>2013-06-09T08:30:19Z</time>
      </trkpt>
      <trkpt lat="44.06811" lon="7.06194">
        <ele>1858.9</ele>
        <time>2013-06-09T08:30:23Z</time>
      </trkpt>
      <trkpt lat="44.06811" lon="7.06194">
        <ele>1858.9</ele>
        <time>2013-06-09T08:30:27Z</time>
      </trkpt>
      <trkpt lat="44.06811" lon="7.06193">
        <ele>1858.8</ele>
        <time>2013-06-09T08:30:31Z</time>
      </trkpt>
      <trkpt lat="44.06811" lon="7.06193">
        <ele>1858.8</ele>
        <time>2013-06-09T08:30:35Z</time>
      </trkpt>
      <trkpt lat="44.06811" lon="7.06193">
        <ele>1858.8</ele>
        <time>2013-06-09T08:30:39Z</time>
      </trkpt>
      <trkpt lat="44.06811" lon="7.06193">
        <ele>1858.8</ele>
        <time>2013-06-09T08:30:43Z</time>
      </trkpt>
      <trkpt lat="44.06811" lon="7.06193">
        <ele>1858.8</ele>
        <time>2013-06-09T08:30:47Z</time>
      </trkpt>
      <trkpt lat="44.06811" lon="7.06193">
        <ele>1858.8</ele>
        <time>2013-06-09T08:30:51Z</time>
      </trkpt>
      <trkpt lat="44.06811" lon="7.06193">
        <ele>1858.8</ele>
        <time>2013-06-09T08:30:55Z</time>
      </trkpt>
      <trkpt lat="44.06811" lon="7.06193">
        <ele>1858.8</ele>
        <time>2013-06-09T08:30:59Z</time>
      </trkpt>
      <trkpt lat="44.06811" lon="7.06194">
        <ele>1858.9</ele>
        <time>2013-06-09T08:31:03Z</time>
      </trkpt>
      <trkpt lat="44.06811" lon="7.06194">
        <ele>1858.9</ele>
        <time>2013-06-09T08:31:07Z</time>
      </trkpt>
      <trkpt lat="44.06811" lon="7.06194">
        <ele>1858.8</ele>
        <time>2013-06-09T08:31:11Z</time>
      </trkpt>
      <trkpt lat="44.06811" lon="7.06194">
        <ele>1858.7</ele>
        <time>2013-06-09T08:31:15Z</time>
      </trkpt>
      <trkpt lat="44.06812" lon="7.06194">
        <ele>1858.7</ele>
        <time>2013-06-09T08:31:19Z</time>
      </trkpt>
      <trkpt lat="44.06812" lon="7.06195">
        <ele>1858.7</ele>
        <time>2013-06-09T08:31:23Z</time>
      </trkpt>
      <trkpt lat="44.06813" lon="7.06194">
        <ele>1858.6</ele>
        <time>2013-06-09T08:31:27Z</time>
      </trkpt>
      <trkpt lat="44.06813" lon="7.06195">
        <ele>1858.8</ele>
        <time>2013-06-09T08:31:31Z</time>
      </trkpt>
      <trkpt lat="44.06812" lon="7.06198">
        <ele>1859.4</ele>
        <time>2013-06-09T08:31:35Z</time>
      </trkpt>
      <trkpt lat="44.06812" lon="7.062">
        <ele>1859.6</ele>
        <time>2013-06-09T08:31:39Z</time>
      </trkpt>
      <trkpt lat="44.06812" lon="7.062">
        <ele>1859.7</ele>
        <time>2013-06-09T08:31:43Z</time>
      </trkpt>
      <trkpt lat="44.06812" lon="7.062">
        <ele>1859.7</ele>
        <time>2013-06-09T08:31:47Z</time>
      </trkpt>
      <trkpt lat="44.06812" lon="7.062">
        <ele>1859.7</ele>
        <time>2013-06-09T08:31:51Z</time>
      </trkpt>
      <trkpt lat="44.06812" lon="7.062">
        <ele>1859.7</ele>
        <time>2013-06-09T08:31:55Z</time>
      </trkpt>
      <trkpt lat="44.06813" lon="7.062">
        <ele>1859.8</ele>
        <time>2013-06-09T08:31:59Z</time>
      </trkpt>
      <trkpt lat="44.06812" lon="7.06201">
        <ele>1859.9</ele>
        <time>2013-06-09T08:32:03Z</time>
      </trkpt>
      <trkpt lat="44.06812" lon="7.06201">
        <ele>1860</ele>
        <time>2013-06-09T08:32:07Z</time>
      </trkpt>
      <trkpt lat="44.06812" lon="7.06201">
        <ele>1860</ele>
        <time>2013-06-09T08:32:11Z</time>
      </trkpt>
      <trkpt lat="44.06813" lon="7.06201">
        <ele>1859.9</ele>
        <time>2013-06-09T08:32:15Z</time>
      </trkpt>
      <trkpt lat="44.06813" lon="7.06201">
        <ele>1859.9</ele>
        <time>2013-06-09T08:32:19Z</time>
      </trkpt>
      <trkpt lat="44.06813" lon="7.06201">
        <ele>1859.8</ele>
        <time>2013-06-09T08:32:23Z</time>
      </trkpt>
      <trkpt lat="44.06814" lon="7.06202">
        <ele>1859.7</ele>
        <time>2013-06-09T08:32:27Z</time>
      </trkpt>
      <trkpt lat="44.06813" lon="7.06201">
        <ele>1859.9</ele>
        <time>2013-06-09T08:32:31Z</time>
      </trkpt>
      <trkpt lat="44.06813" lon="7.06201">
        <ele>1859.9</ele>
        <time>2013-06-09T08:32:35Z</time>
      </trkpt>
      <trkpt lat="44.06813" lon="7.06201">
        <ele>1859.9</ele>
        <time>2013-06-09T08:32:39Z</time>
      </trkpt>
      <trkpt lat="44.06813" lon="7.06201">
        <ele>1859.9</ele>
        <time>2013-06-09T08:32:43Z</time>
      </trkpt>
      <trkpt lat="44.06813" lon="7.06201">
        <ele>1859.9</ele>
        <time>2013-06-09T08:32:47Z</time>
      </trkpt>
      <trkpt lat="44.06813" lon="7.06202">
        <ele>1859.9</ele>
        <time>2013-06-09T08:32:51Z</time>
      </trkpt>
      <trkpt lat="44.06813" lon="7.06202">
        <ele>1859.9</ele>
        <time>2013-06-09T08:32:55Z</time>
      </trkpt>
      <trkpt lat="44.06812" lon="7.06202">
        <ele>1860.1</ele>
        <time>2013-06-09T08:32:59Z</time>
      </trkpt>
      <trkpt lat="44.06812" lon="7.06202">
        <ele>1860.2</ele>
        <time>2013-06-09T08:33:03Z</time>
      </trkpt>
      <trkpt lat="44.06811" lon="7.06202">
        <ele>1860.3</ele>
        <time>2013-06-09T08:33:07Z</time>
      </trkpt>
      <trkpt lat="44.06811" lon="7.06202">
        <ele>1860.3</ele>
        <time>2013-06-09T08:33:11Z</time>
      </trkpt>
      <trkpt lat="44.06812" lon="7.06202">
        <ele>1860.3</ele>
        <time>2013-06-09T08:33:15Z</time>
      </trkpt>
      <trkpt lat="44.06812" lon="7.06202">
        <ele>1860.3</ele>
        <time>2013-06-09T08:33:19Z</time>
      </trkpt>
      <trkpt lat="44.06811" lon="7.06202">
        <ele>1860.3</ele>
        <time>2013-06-09T08:33:23Z</time>
      </trkpt>
      <trkpt lat="44.06811" lon="7.06202">
        <ele>1860.3</ele>
        <time>2013-06-09T08:33:27Z</time>
      </trkpt>
      <trkpt lat="44.06811" lon="7.06202">
        <ele>1860.3</ele>
        <time>2013-06-09T08:33:31Z</time>
      </trkpt>
      <trkpt lat="44.06813" lon="7.06202">
        <ele>1859.9</ele>
        <time>2013-06-09T08:33:35Z</time>
      </trkpt>
      <trkpt lat="44.06813" lon="7.06201">
        <ele>1859.8</ele>
        <time>2013-06-09T08:33:39Z</time>
      </trkpt>
      <trkpt lat="44.06813" lon="7.06201">
        <ele>1859.7</ele>
        <time>2013-06-09T08:33:43Z</time>
      </trkpt>
      <trkpt lat="44.06813" lon="7.06201">
        <ele>1859.8</ele>
        <time>2013-06-09T08:33:47Z</time>
      </trkpt>
      <trkpt lat="44.06813" lon="7.06201">
        <ele>1859.8</ele>
        <time>2013-06-09T08:33:51Z</time>
      </trkpt>
      <trkpt lat="44.06813" lon="7.06201">
        <ele>1859.8</ele>
        <time>2013-06-09T08:33:55Z</time>
      </trkpt>
      <trkpt lat="44.06813" lon="7.06201">
        <ele>1859.8</ele>
        <time>2013-06-09T08:33:59Z</time>
      </trkpt>
      <trkpt lat="44.06813" lon="7.06201">
        <ele>1859.8</ele>
        <time>2013-06-09T08:34:03Z</time>
      </trkpt>
      <trkpt lat="44.06813" lon="7.06201">
        <ele>1859.8</ele>
        <time>2013-06-09T08:34:07Z</time>
      </trkpt>
      <trkpt lat="44.06813" lon="7.06201">
        <ele>1859.8</ele>
        <time>2013-06-09T08:34:11Z</time>
      </trkpt>
      <trkpt lat="44.06813" lon="7.06201">
        <ele>1859.8</ele>
        <time>2013-06-09T08:34:15Z</time>
      </trkpt>
      <trkpt lat="44.06811" lon="7.06202">
        <ele>1860.3</ele>
        <time>2013-06-09T08:34:19Z</time>
      </trkpt>
      <trkpt lat="44.06812" lon="7.06202">
        <ele>1860.2</ele>
        <time>2013-06-09T08:34:23Z</time>
      </trkpt>
      <trkpt lat="44.06812" lon="7.06202">
        <ele>1860.1</ele>
        <time>2013-06-09T08:34:27Z</time>
      </trkpt>
      <trkpt lat="44.06812" lon="7.06202">
        <ele>1860.3</ele>
        <time>2013-06-09T08:34:31Z</time>
      </trkpt>
      <trkpt lat="44.06811" lon="7.06202">
        <ele>1860.3</ele>
        <time>2013-06-09T08:34:35Z</time>
      </trkpt>
      <trkpt lat="44.06812" lon="7.06202">
        <ele>1860.2</ele>
        <time>2013-06-09T08:34:39Z</time>
      </trkpt>
      <trkpt lat="44.06812" lon="7.06202">
        <ele>1860.1</ele>
        <time>2013-06-09T08:34:43Z</time>
      </trkpt>
      <trkpt lat="44.06812" lon="7.06202">
        <ele>1860.1</ele>
        <time>2013-06-09T08:34:47Z</time>
      </trkpt>
      <trkpt lat="44.06811" lon="7.06201">
        <ele>1860.2</ele>
        <time>2013-06-09T08:34:51Z</time>
      </trkpt>
      <trkpt lat="44.06811" lon="7.06201">
        <ele>1860.2</ele>
        <time>2013-06-09T08:34:55Z</time>
      </trkpt>
      <trkpt lat="44.06812" lon="7.06201">
        <ele>1860</ele>
        <time>2013-06-09T08:34:59Z</time>
      </trkpt>
      <trkpt lat="44.06813" lon="7.06201">
        <ele>1859.8</ele>
        <time>2013-06-09T08:35:03Z</time>
      </trkpt>
      <trkpt lat="44.06813" lon="7.06201">
        <ele>1859.8</ele>
        <time>2013-06-09T08:35:07Z</time>
      </trkpt>
      <trkpt lat="44.06813" lon="7.06201">
        <ele>1859.8</ele>
        <time>2013-06-09T08:35:11Z</time>
      </trkpt>
      <trkpt lat="44.06813" lon="7.06201">
        <ele>1859.8</ele>
        <time>2013-06-09T08:35:15Z</time>
      </trkpt>
      <trkpt lat="44.06813" lon="7.06201">
        <ele>1859.8</ele>
        <time>2013-06-09T08:35:19Z</time>
      </trkpt>
      <trkpt lat="44.06813" lon="7.06201">
        <ele>1859.8</ele>
        <time>2013-06-09T08:35:23Z</time>
      </trkpt>
      <trkpt lat="44.06814" lon="7.06202">
        <ele>1859.7</ele>
        <time>2013-06-09T08:35:27Z</time>
      </trkpt>
      <trkpt lat="44.06814" lon="7.06202">
        <ele>1859.8</ele>
        <time>2013-06-09T08:35:31Z</time>
      </trkpt>
      <trkpt lat="44.06813" lon="7.06202">
        <ele>1859.9</ele>
        <time>2013-06-09T08:35:35Z</time>
      </trkpt>
      <trkpt lat="44.06813" lon="7.06202">
        <ele>1859.9</ele>
        <time>2013-06-09T08:35:39Z</time>
      </trkpt>
      <trkpt lat="44.06814" lon="7.06202">
        <ele>1859.9</ele>
        <time>2013-06-09T08:35:43Z</time>
      </trkpt>
      <trkpt lat="44.06814" lon="7.06203">
        <ele>1859.9</ele>
        <time>2013-06-09T08:35:47Z</time>
      </trkpt>
      <trkpt lat="44.06815" lon="7.06203">
        <ele>1859.7</ele>
        <time>2013-06-09T08:35:51Z</time>
      </trkpt>
      <trkpt lat="44.06815" lon="7.06203">
        <ele>1859.6</ele>
        <time>2013-06-09T08:35:55Z</time>
      </trkpt>
      <trkpt lat="44.06816" lon="7.06203">
        <ele>1859.5</ele>
        <time>2013-06-09T08:35:59Z</time>
      </trkpt>
      <trkpt lat="44.06816" lon="7.06203">
        <ele>1859.5</ele>
        <time>2013-06-09T08:36:03Z</time>
      </trkpt>
      <trkpt lat="44.06816" lon="7.06203">
        <ele>1859.5</ele>
        <time>2013-06-09T08:36:07Z</time>
      </trkpt>
      <trkpt lat="44.06816" lon="7.06203">
        <ele>1859.5</ele>
        <time>2013-06-09T08:36:11Z</time>
      </trkpt>
      <trkpt lat="44.06816" lon="7.06203">
        <ele>1859.5</ele>
        <time>2013-06-09T08:36:15Z</time>
      </trkpt>
      <trkpt lat="44.06815" lon="7.06204">
        <ele>1859.9</ele>
        <time>2013-06-09T08:36:19Z</time>
      </trkpt>
      <trkpt lat="44.06814" lon="7.06204">
        <ele>1860.2</ele>
        <time>2013-06-09T08:36:23Z</time>
      </trkpt>
      <trkpt lat="44.06813" lon="7.06205">
        <ele>1860.4</ele>
        <time>2013-06-09T08:36:27Z</time>
      </trkpt>
      <trkpt lat="44.06813" lon="7.06205">
        <ele>1860.4</ele>
        <time>2013-06-09T08:36:31Z</time>
      </trkpt>
      <trkpt lat="44.06813" lon="7.06205">
        <ele>1860.5</ele>
        <time>2013-06-09T08:36:35Z</time>
      </trkpt>
      <trkpt lat="44.06813" lon="7.06205">
        <ele>1860.5</ele>
        <time>2013-06-09T08:36:39Z</time>
      </trkpt>
      <trkpt lat="44.06813" lon="7.06205">
        <ele>1860.5</ele>
        <time>2013-06-09T08:36:43Z</time>
      </trkpt>
      <trkpt lat="44.06813" lon="7.06205">
        <ele>1860.5</ele>
        <time>2013-06-09T08:36:47Z</time>
      </trkpt>
      <trkpt lat="44.06813" lon="7.06205">
        <ele>1860.5</ele>
        <time>2013-06-09T08:36:51Z</time>
      </trkpt>
      <trkpt lat="44.06813" lon="7.06204">
        <ele>1860.2</ele>
        <time>2013-06-09T08:36:55Z</time>
      </trkpt>
      <trkpt lat="44.06814" lon="7.06202">
        <ele>1859.8</ele>
        <time>2013-06-09T08:36:59Z</time>
      </trkpt>
      <trkpt lat="44.06814" lon="7.06203">
        <ele>1860</ele>
        <time>2013-06-09T08:37:03Z</time>
      </trkpt>
      <trkpt lat="44.06814" lon="7.06203">
        <ele>1859.9</ele>
        <time>2013-06-09T08:37:07Z</time>
      </trkpt>
      <trkpt lat="44.06814" lon="7.06203">
        <ele>1859.9</ele>
        <time>2013-06-09T08:37:11Z</time>
      </trkpt>
      <trkpt lat="44.06814" lon="7.06203">
        <ele>1859.9</ele>
        <time>2013-06-09T08:37:15Z</time>
      </trkpt>
      <trkpt lat="44.06814" lon="7.06203">
        <ele>1859.9</ele>
        <time>2013-06-09T08:37:19Z</time>
      </trkpt>
      <trkpt lat="44.06814" lon="7.06203">
        <ele>1859.9</ele>
        <time>2013-06-09T08:37:23Z</time>
      </trkpt>
      <trkpt lat="44.06814" lon="7.06203">
        <ele>1859.9</ele>
        <time>2013-06-09T08:37:27Z</time>
      </trkpt>
      <trkpt lat="44.06814" lon="7.06203">
        <ele>1859.9</ele>
        <time>2013-06-09T08:37:31Z</time>
      </trkpt>
      <trkpt lat="44.06814" lon="7.06203">
        <ele>1859.9</ele>
        <time>2013-06-09T08:37:35Z</time>
      </trkpt>
      <trkpt lat="44.06814" lon="7.06203">
        <ele>1859.9</ele>
        <time>2013-06-09T08:37:39Z</time>
      </trkpt>
      <trkpt lat="44.06813" lon="7.06203">
        <ele>1860.1</ele>
        <time>2013-06-09T08:37:43Z</time>
      </trkpt>
      <trkpt lat="44.06812" lon="7.06204">
        <ele>1860.4</ele>
        <time>2013-06-09T08:37:47Z</time>
      </trkpt>
      <trkpt lat="44.06813" lon="7.06207">
        <ele>1860.8</ele>
        <time>2013-06-09T08:37:51Z</time>
      </trkpt>
      <trkpt lat="44.06813" lon="7.0621">
        <ele>1861.3</ele>
        <time>2013-06-09T08:37:55Z</time>
      </trkpt>
      <trkpt lat="44.06811" lon="7.06213">
        <ele>1861.7</ele>
        <time>2013-06-09T08:37:59Z</time>
      </trkpt>
      <trkpt lat="44.06809" lon="7.06213">
        <ele>1862.2</ele>
        <time>2013-06-09T08:38:03Z</time>
      </trkpt>
      <trkpt lat="44.06808" lon="7.06213">
        <ele>1862.3</ele>
        <time>2013-06-09T08:38:07Z</time>
      </trkpt>
      <trkpt lat="44.06808" lon="7.06215">
        <ele>1862.5</ele>
        <time>2013-06-09T08:38:11Z</time>
      </trkpt>
      <trkpt lat="44.06807" lon="7.06216">
        <ele>1862.6</ele>
        <time>2013-06-09T08:38:15Z</time>
      </trkpt>
      <trkpt lat="44.06808" lon="7.06217">
        <ele>1862.4</ele>
        <time>2013-06-09T08:38:19Z</time>
      </trkpt>
      <trkpt lat="44.06808" lon="7.06217">
        <ele>1862.4</ele>
        <time>2013-06-09T08:38:23Z</time>
      </trkpt>
      <trkpt lat="44.06809" lon="7.06218">
        <ele>1862.3</ele>
        <time>2013-06-09T08:38:27Z</time>
      </trkpt>
      <trkpt lat="44.06808" lon="7.06218">
        <ele>1862.4</ele>
        <time>2013-06-09T08:38:31Z</time>
      </trkpt>
      <trkpt lat="44.06809" lon="7.06218">
        <ele>1862.4</ele>
        <time>2013-06-09T08:38:35Z</time>
      </trkpt>
      <trkpt lat="44.06809" lon="7.06219">
        <ele>1862.4</ele>
        <time>2013-06-09T08:38:39Z</time>
      </trkpt>
      <trkpt lat="44.06809" lon="7.06219">
        <ele>1862.3</ele>
        <time>2013-06-09T08:38:43Z</time>
      </trkpt>
      <trkpt lat="44.06809" lon="7.06219">
        <ele>1862.3</ele>
        <time>2013-06-09T08:38:47Z</time>
      </trkpt>
      <trkpt lat="44.06809" lon="7.06219">
        <ele>1862.3</ele>
        <time>2013-06-09T08:38:51Z</time>
      </trkpt>
      <trkpt lat="44.06811" lon="7.06219">
        <ele>1861.8</ele>
        <time>2013-06-09T08:38:55Z</time>
      </trkpt>
      <trkpt lat="44.06812" lon="7.06218">
        <ele>1861.7</ele>
        <time>2013-06-09T08:38:59Z</time>
      </trkpt>
      <trkpt lat="44.06813" lon="7.06216">
        <ele>1861.4</ele>
        <time>2013-06-09T08:39:03Z</time>
      </trkpt>
      <trkpt lat="44.06812" lon="7.06215">
        <ele>1861.6</ele>
        <time>2013-06-09T08:39:07Z</time>
      </trkpt>
      <trkpt lat="44.06812" lon="7.06215">
        <ele>1861.6</ele>
        <time>2013-06-09T08:39:11Z</time>
      </trkpt>
      <trkpt lat="44.06811" lon="7.06215">
        <ele>1861.7</ele>
        <time>2013-06-09T08:39:15Z</time>
      </trkpt>
      <trkpt lat="44.06811" lon="7.06215">
        <ele>1861.8</ele>
        <time>2013-06-09T08:39:19Z</time>
      </trkpt>
      <trkpt lat="44.06811" lon="7.06215">
        <ele>1861.8</ele>
        <time>2013-06-09T08:39:23Z</time>
      </trkpt>
      <trkpt lat="44.06811" lon="7.06215">
        <ele>1861.8</ele>
        <time>2013-06-09T08:39:27Z</time>
      </trkpt>
      <trkpt lat="44.06811" lon="7.06214">
        <ele>1861.7</ele>
        <time>2013-06-09T08:39:31Z</time>
      </trkpt>
      <trkpt lat="44.06811" lon="7.06213">
        <ele>1861.7</ele>
        <time>2013-06-09T08:39:35Z</time>
      </trkpt>
      <trkpt lat="44.06811" lon="7.06213">
        <ele>1861.7</ele>
        <time>2013-06-09T08:39:39Z</time>
      </trkpt>
      <trkpt lat="44.06811" lon="7.06213">
        <ele>1861.8</ele>
        <time>2013-06-09T08:39:43Z</time>
      </trkpt>
      <trkpt lat="44.0681" lon="7.06213">
        <ele>1861.8</ele>
        <time>2013-06-09T08:39:47Z</time>
      </trkpt>
      <trkpt lat="44.0681" lon="7.06213">
        <ele>1861.9</ele>
        <time>2013-06-09T08:39:51Z</time>
      </trkpt>
      <trkpt lat="44.0681" lon="7.06213">
        <ele>1861.9</ele>
        <time>2013-06-09T08:39:55Z</time>
      </trkpt>
      <trkpt lat="44.0681" lon="7.06213">
        <ele>1862</ele>
        <time>2013-06-09T08:39:59Z</time>
      </trkpt>
      <trkpt lat="44.0681" lon="7.06213">
        <ele>1862</ele>
        <time>2013-06-09T08:40:03Z</time>
      </trkpt>
      <trkpt lat="44.0681" lon="7.06213">
        <ele>1862</ele>
        <time>2013-06-09T08:40:07Z</time>
      </trkpt>
      <trkpt lat="44.0681" lon="7.06213">
        <ele>1862</ele>
        <time>2013-06-09T08:40:11Z</time>
      </trkpt>
      <trkpt lat="44.0681" lon="7.06213">
        <ele>1862</ele>
        <time>2013-06-09T08:40:15Z</time>
      </trkpt>
      <trkpt lat="44.0681" lon="7.06213">
        <ele>1862</ele>
        <time>2013-06-09T08:40:19Z</time>
      </trkpt>
      <trkpt lat="44.0681" lon="7.06213">
        <ele>1862</ele>
        <time>2013-06-09T08:40:23Z</time>
      </trkpt>
      <trkpt lat="44.0681" lon="7.06213">
        <ele>1862</ele>
        <time>2013-06-09T08:40:27Z</time>
      </trkpt>
      <trkpt lat="44.0681" lon="7.06213">
        <ele>1862</ele>
        <time>2013-06-09T08:40:31Z</time>
      </trkpt>
      <trkpt lat="44.0681" lon="7.06213">
        <ele>1862</ele>
        <time>2013-06-09T08:40:35Z</time>
      </trkpt>
      <trkpt lat="44.0681" lon="7.06213">
        <ele>1862</ele>
        <time>2013-06-09T08:40:39Z</time>
      </trkpt>
      <trkpt lat="44.06809" lon="7.06213">
        <ele>1862.1</ele>
        <time>2013-06-09T08:40:43Z</time>
      </trkpt>
      <trkpt lat="44.06809" lon="7.06215">
        <ele>1862.3</ele>
        <time>2013-06-09T08:40:47Z</time>
      </trkpt>
      <trkpt lat="44.06809" lon="7.06217">
        <ele>1862.3</ele>
        <time>2013-06-09T08:40:51Z</time>
      </trkpt>
      <trkpt lat="44.06808" lon="7.06217">
        <ele>1862.4</ele>
        <time>2013-06-09T08:40:55Z</time>
      </trkpt>
      <trkpt lat="44.06809" lon="7.06218">
        <ele>1862.2</ele>
        <time>2013-06-09T08:40:59Z</time>
      </trkpt>
      <trkpt lat="44.06808" lon="7.06219">
        <ele>1862.4</ele>
        <time>2013-06-09T08:41:03Z</time>
      </trkpt>
      <trkpt lat="44.06808" lon="7.06219">
        <ele>1862.5</ele>
        <time>2013-06-09T08:41:07Z</time>
      </trkpt>
      <trkpt lat="44.06808" lon="7.06218">
        <ele>1862.5</ele>
        <time>2013-06-09T08:41:11Z</time>
      </trkpt>
      <trkpt lat="44.06809" lon="7.06218">
        <ele>1862.4</ele>
        <time>2013-06-09T08:41:15Z</time>
      </trkpt>
      <trkpt lat="44.06809" lon="7.06217">
        <ele>1862.4</ele>
        <time>2013-06-09T08:41:19Z</time>
      </trkpt>
      <trkpt lat="44.06809" lon="7.06217">
        <ele>1862.4</ele>
        <time>2013-06-09T08:41:23Z</time>
      </trkpt>
      <trkpt lat="44.06809" lon="7.06217">
        <ele>1862.3</ele>
        <time>2013-06-09T08:41:27Z</time>
      </trkpt>
      <trkpt lat="44.06809" lon="7.06218">
        <ele>1862.2</ele>
        <time>2013-06-09T08:41:31Z</time>
      </trkpt>
      <trkpt lat="44.06809" lon="7.06218">
        <ele>1862.2</ele>
        <time>2013-06-09T08:41:35Z</time>
      </trkpt>
      <trkpt lat="44.0681" lon="7.06217">
        <ele>1862.1</ele>
        <time>2013-06-09T08:41:39Z</time>
      </trkpt>
      <trkpt lat="44.06809" lon="7.06216">
        <ele>1862.1</ele>
        <time>2013-06-09T08:41:43Z</time>
      </trkpt>
      <trkpt lat="44.0681" lon="7.06214">
        <ele>1862</ele>
        <time>2013-06-09T08:41:47Z</time>
      </trkpt>
      <trkpt lat="44.0681" lon="7.06211">
        <ele>1861.8</ele>
        <time>2013-06-09T08:41:51Z</time>
      </trkpt>
      <trkpt lat="44.0681" lon="7.06209">
        <ele>1861.9</ele>
        <time>2013-06-09T08:41:55Z</time>
      </trkpt>
      <trkpt lat="44.0681" lon="7.06209">
        <ele>1861.9</ele>
        <time>2013-06-09T08:41:59Z</time>
      </trkpt>
      <trkpt lat="44.0681" lon="7.06208">
        <ele>1861.7</ele>
        <time>2013-06-09T08:42:03Z</time>
      </trkpt>
      <trkpt lat="44.0681" lon="7.06208">
        <ele>1861.7</ele>
        <time>2013-06-09T08:42:07Z</time>
      </trkpt>
      <trkpt lat="44.0681" lon="7.06208">
        <ele>1861.7</ele>
        <time>2013-06-09T08:42:11Z</time>
      </trkpt>
      <trkpt lat="44.0681" lon="7.06208">
        <ele>1861.7</ele>
        <time>2013-06-09T08:42:15Z</time>
      </trkpt>
      <trkpt lat="44.0681" lon="7.06208">
        <ele>1861.7</ele>
        <time>2013-06-09T08:42:19Z</time>
      </trkpt>
      <trkpt lat="44.0681" lon="7.06208">
        <ele>1861.7</ele>
        <time>2013-06-09T08:42:23Z</time>
      </trkpt>
      <trkpt lat="44.0681" lon="7.06208">
        <ele>1861.7</ele>
        <time>2013-06-09T08:42:27Z</time>
      </trkpt>
      <trkpt lat="44.0681" lon="7.06208">
        <ele>1861.7</ele>
        <time>2013-06-09T08:42:31Z</time>
      </trkpt>
      <trkpt lat="44.0681" lon="7.06208">
        <ele>1861.7</ele>
        <time>2013-06-09T08:42:35Z</time>
      </trkpt>
      <trkpt lat="44.0681" lon="7.06207">
        <ele>1861.7</ele>
        <time>2013-06-09T08:42:39Z</time>
      </trkpt>
      <trkpt lat="44.0681" lon="7.06207">
        <ele>1861.7</ele>
        <time>2013-06-09T08:42:43Z</time>
      </trkpt>
      <trkpt lat="44.0681" lon="7.06207">
        <ele>1861.7</ele>
        <time>2013-06-09T08:42:47Z</time>
      </trkpt>
      <trkpt lat="44.0681" lon="7.06207">
        <ele>1861.7</ele>
        <time>2013-06-09T08:42:51Z</time>
      </trkpt>
      <trkpt lat="44.0681" lon="7.06207">
        <ele>1861.5</ele>
        <time>2013-06-09T08:42:55Z</time>
      </trkpt>
      <trkpt lat="44.0681" lon="7.06207">
        <ele>1861.5</ele>
        <time>2013-06-09T08:42:59Z</time>
      </trkpt>
      <trkpt lat="44.0681" lon="7.06206">
        <ele>1861.3</ele>
        <time>2013-06-09T08:43:03Z</time>
      </trkpt>
      <trkpt lat="44.0681" lon="7.06206">
        <ele>1861.2</ele>
        <time>2013-06-09T08:43:07Z</time>
      </trkpt>
      <trkpt lat="44.06811" lon="7.06206">
        <ele>1861.1</ele>
        <time>2013-06-09T08:43:11Z</time>
      </trkpt>
      <trkpt lat="44.06811" lon="7.06206">
        <ele>1861.1</ele>
        <time>2013-06-09T08:43:15Z</time>
      </trkpt>
      <trkpt lat="44.06811" lon="7.06206">
        <ele>1861.1</ele>
        <time>2013-06-09T08:43:19Z</time>
      </trkpt>
      <trkpt lat="44.06811" lon="7.06206">
        <ele>1861.1</ele>
        <time>2013-06-09T08:43:23Z</time>
      </trkpt>
      <trkpt lat="44.06811" lon="7.06206">
        <ele>1861.1</ele>
        <time>2013-06-09T08:43:27Z</time>
      </trkpt>
      <trkpt lat="44.0681" lon="7.06205">
        <ele>1861.1</ele>
        <time>2013-06-09T08:43:31Z</time>
      </trkpt>
      <trkpt lat="44.0681" lon="7.06205">
        <ele>1861.2</ele>
        <time>2013-06-09T08:43:35Z</time>
      </trkpt>
      <trkpt lat="44.0681" lon="7.06205">
        <ele>1861</ele>
        <time>2013-06-09T08:43:39Z</time>
      </trkpt>
      <trkpt lat="44.06811" lon="7.06204">
        <ele>1860.8</ele>
        <time>2013-06-09T08:43:43Z</time>
      </trkpt>
      <trkpt lat="44.06811" lon="7.06204">
        <ele>1860.8</ele>
        <time>2013-06-09T08:43:47Z</time>
      </trkpt>
      <trkpt lat="44.06811" lon="7.06204">
        <ele>1860.8</ele>
        <time>2013-06-09T08:43:51Z</time>
      </trkpt>
      <trkpt lat="44.06811" lon="7.06204">
        <ele>1860.8</ele>
        <time>2013-06-09T08:43:55Z</time>
      </trkpt>
      <trkpt lat="44.06811" lon="7.06204">
        <ele>1860.8</ele>
        <time>2013-06-09T08:43:59Z</time>
      </trkpt>
      <trkpt lat="44.06811" lon="7.06204">
        <ele>1860.8</ele>
        <time>2013-06-09T08:44:03Z</time>
      </trkpt>
      <trkpt lat="44.06811" lon="7.06204">
        <ele>1860.8</ele>
        <time>2013-06-09T08:44:07Z</time>
      </trkpt>
      <trkpt lat="44.06811" lon="7.06204">
        <ele>1860.7</ele>
        <time>2013-06-09T08:44:11Z</time>
      </trkpt>
      <trkpt lat="44.06811" lon="7.06204">
        <ele>1860.7</ele>
        <time>2013-06-09T08:44:15Z</time>
      </trkpt>
      <trkpt lat="44.06811" lon="7.06204">
        <ele>1860.7</ele>
        <time>2013-06-09T08:44:19Z</time>
      </trkpt>
      <trkpt lat="44.06811" lon="7.06204">
        <ele>1860.8</ele>
        <time>2013-06-09T08:44:23Z</time>
      </trkpt>
      <trkpt lat="44.06811" lon="7.06204">
        <ele>1860.8</ele>
        <time>2013-06-09T08:44:27Z</time>
      </trkpt>
      <trkpt lat="44.06811" lon="7.06204">
        <ele>1860.8</ele>
        <time>2013-06-09T08:44:31Z</time>
      </trkpt>
      <trkpt lat="44.06811" lon="7.06204">
        <ele>1860.8</ele>
        <time>2013-06-09T08:44:35Z</time>
      </trkpt>
      <trkpt lat="44.06811" lon="7.06204">
        <ele>1860.8</ele>
        <time>2013-06-09T08:44:39Z</time>
      </trkpt>
      <trkpt lat="44.06811" lon="7.06204">
        <ele>1860.8</ele>
        <time>2013-06-09T08:44:43Z</time>
      </trkpt>
      <trkpt lat="44.06811" lon="7.06204">
        <ele>1860.8</ele>
        <time>2013-06-09T08:44:47Z</time>
      </trkpt>
      <trkpt lat="44.06811" lon="7.06204">
        <ele>1860.8</ele>
        <time>2013-06-09T08:44:51Z</time>
      </trkpt>
      <trkpt lat="44.06811" lon="7.06204">
        <ele>1860.8</ele>
        <time>2013-06-09T08:44:55Z</time>
      </trkpt>
      <trkpt lat="44.06811" lon="7.06204">
        <ele>1860.8</ele>
        <time>2013-06-09T08:44:59Z</time>
      </trkpt>
      <trkpt lat="44.06811" lon="7.06204">
        <ele>1860.8</ele>
        <time>2013-06-09T08:45:03Z</time>
      </trkpt>
      <trkpt lat="44.06811" lon="7.06204">
        <ele>1860.8</ele>
        <time>2013-06-09T08:45:07Z</time>
      </trkpt>
      <trkpt lat="44.06811" lon="7.06204">
        <ele>1860.8</ele>
        <time>2013-06-09T08:45:11Z</time>
      </trkpt>
      <trkpt lat="44.06811" lon="7.06204">
        <ele>1860.8</ele>
        <time>2013-06-09T08:45:15Z</time>
      </trkpt>
      <trkpt lat="44.06811" lon="7.06204">
        <ele>1860.8</ele>
        <time>2013-06-09T08:45:19Z</time>
      </trkpt>
      <trkpt lat="44.06811" lon="7.06204">
        <ele>1860.7</ele>
        <time>2013-06-09T08:45:23Z</time>
      </trkpt>
      <trkpt lat="44.06811" lon="7.06204">
        <ele>1860.7</ele>
        <time>2013-06-09T08:45:27Z</time>
      </trkpt>
      <trkpt lat="44.06812" lon="7.06208">
        <ele>1861.2</ele>
        <time>2013-06-09T08:45:31Z</time>
      </trkpt>
      <trkpt lat="44.06814" lon="7.06211">
        <ele>1861</ele>
        <time>2013-06-09T08:45:35Z</time>
      </trkpt>
      <trkpt lat="44.06814" lon="7.06211">
        <ele>1860.9</ele>
        <time>2013-06-09T08:45:39Z</time>
      </trkpt>
      <trkpt lat="44.06814" lon="7.06209">
        <ele>1861</ele>
        <time>2013-06-09T08:45:43Z</time>
      </trkpt>
      <trkpt lat="44.06813" lon="7.06205">
        <ele>1860.4</ele>
        <time>2013-06-09T08:45:47Z</time>
      </trkpt>
      <trkpt lat="44.06812" lon="7.06203">
        <ele>1860.4</ele>
        <time>2013-06-09T08:45:51Z</time>
      </trkpt>
      <trkpt lat="44.06813" lon="7.06204">
        <ele>1860.4</ele>
        <time>2013-06-09T08:45:55Z</time>
      </trkpt>
      <trkpt lat="44.06813" lon="7.06204">
        <ele>1860.3</ele>
        <time>2013-06-09T08:45:59Z</time>
      </trkpt>
      <trkpt lat="44.06813" lon="7.06204">
        <ele>1860.3</ele>
        <time>2013-06-09T08:46:03Z</time>
      </trkpt>
      <trkpt lat="44.06813" lon="7.06204">
        <ele>1860.3</ele>
        <time>2013-06-09T08:46:07Z</time>
      </trkpt>
      <trkpt lat="44.06814" lon="7.06204">
        <ele>1860.1</ele>
        <time>2013-06-09T08:46:11Z</time>
      </trkpt>
      <trkpt lat="44.06813" lon="7.06204">
        <ele>1860.3</ele>
        <time>2013-06-09T08:46:15Z</time>
      </trkpt>
      <trkpt lat="44.06812" lon="7.06203">
        <ele>1860.4</ele>
        <time>2013-06-09T08:46:19Z</time>
      </trkpt>
      <trkpt lat="44.06813" lon="7.06203">
        <ele>1860.2</ele>
        <time>2013-06-09T08:46:23Z</time>
      </trkpt>
      <trkpt lat="44.06814" lon="7.06202">
        <ele>1859.8</ele>
        <time>2013-06-09T08:46:27Z</time>
      </trkpt>
      <trkpt lat="44.06812" lon="7.06201">
        <ele>1860</ele>
        <time>2013-06-09T08:46:31Z</time>
      </trkpt>
      <trkpt lat="44.06811" lon="7.06201">
        <ele>1860.3</ele>
        <time>2013-06-09T08:46:35Z</time>
      </trkpt>
      <trkpt lat="44.06811" lon="7.06201">
        <ele>1860.2</ele>
        <time>2013-06-09T08:46:39Z</time>
      </trkpt>
      <trkpt lat="44.06811" lon="7.062">
        <ele>1860.1</ele>
        <time>2013-06-09T08:46:43Z</time>
      </trkpt>
      <trkpt lat="44.06811" lon="7.062">
        <ele>1860</ele>
        <time>2013-06-09T08:46:47Z</time>
      </trkpt>
      <trkpt lat="44.06811" lon="7.06201">
        <ele>1860.1</ele>
        <time>2013-06-09T08:46:51Z</time>
      </trkpt>
      <trkpt lat="44.06811" lon="7.062">
        <ele>1860.1</ele>
        <time>2013-06-09T08:46:55Z</time>
      </trkpt>
      <trkpt lat="44.06811" lon="7.062">
        <ele>1860.1</ele>
        <time>2013-06-09T08:46:59Z</time>
      </trkpt>
      <trkpt lat="44.06811" lon="7.062">
        <ele>1860.1</ele>
        <time>2013-06-09T08:47:03Z</time>
      </trkpt>
      <trkpt lat="44.06811" lon="7.062">
        <ele>1860.1</ele>
        <time>2013-06-09T08:47:07Z</time>
      </trkpt>
      <trkpt lat="44.06811" lon="7.062">
        <ele>1860</ele>
        <time>2013-06-09T08:47:11Z</time>
      </trkpt>
      <trkpt lat="44.06811" lon="7.062">
        <ele>1860</ele>
        <time>2013-06-09T08:47:15Z</time>
      </trkpt>
      <trkpt lat="44.06811" lon="7.062">
        <ele>1860</ele>
        <time>2013-06-09T08:47:19Z</time>
      </trkpt>
      <trkpt lat="44.06811" lon="7.062">
        <ele>1860</ele>
        <time>2013-06-09T08:47:23Z</time>
      </trkpt>
      <trkpt lat="44.06811" lon="7.062">
        <ele>1860.2</ele>
        <time>2013-06-09T08:47:27Z</time>
      </trkpt>
      <trkpt lat="44.06811" lon="7.06201">
        <ele>1860.2</ele>
        <time>2013-06-09T08:47:31Z</time>
      </trkpt>
      <trkpt lat="44.06811" lon="7.06201">
        <ele>1860.2</ele>
        <time>2013-06-09T08:47:35Z</time>
      </trkpt>
      <trkpt lat="44.06811" lon="7.06201">
        <ele>1860.2</ele>
        <time>2013-06-09T08:47:39Z</time>
      </trkpt>
      <trkpt lat="44.06811" lon="7.06201">
        <ele>1860.3</ele>
        <time>2013-06-09T08:47:43Z</time>
      </trkpt>
      <trkpt lat="44.06811" lon="7.06201">
        <ele>1860.3</ele>
        <time>2013-06-09T08:47:47Z</time>
      </trkpt>
      <trkpt lat="44.06811" lon="7.06201">
        <ele>1860.3</ele>
        <time>2013-06-09T08:47:51Z</time>
      </trkpt>
      <trkpt lat="44.0681" lon="7.062">
        <ele>1860.1</ele>
        <time>2013-06-09T08:47:55Z</time>
      </trkpt>
      <trkpt lat="44.0681" lon="7.06197">
        <ele>1859.7</ele>
        <time>2013-06-09T08:47:59Z</time>
      </trkpt>
      <trkpt lat="44.06809" lon="7.06196">
        <ele>1859.8</ele>
        <time>2013-06-09T08:48:03Z</time>
      </trkpt>
      <trkpt lat="44.06809" lon="7.06197">
        <ele>1859.9</ele>
        <time>2013-06-09T08:48:07Z</time>
      </trkpt>
      <trkpt lat="44.06808" lon="7.06197">
        <ele>1860</ele>
        <time>2013-06-09T08:48:11Z</time>
      </trkpt>
      <trkpt lat="44.06808" lon="7.06197">
        <ele>1860</ele>
        <time>2013-06-09T08:48:15Z</time>
      </trkpt>
      <trkpt lat="44.06808" lon="7.06197">
        <ele>1860</ele>
        <time>2013-06-09T08:48:19Z</time>
      </trkpt>
      <trkpt lat="44.06808" lon="7.06196">
        <ele>1860</ele>
        <time>2013-06-09T08:48:23Z</time>
      </trkpt>
      <trkpt lat="44.06808" lon="7.06196">
        <ele>1860</ele>
        <time>2013-06-09T08:48:27Z</time>
      </trkpt>
      <trkpt lat="44.06808" lon="7.06196">
        <ele>1860</ele>
        <time>2013-06-09T08:48:31Z</time>
      </trkpt>
      <trkpt lat="44.06808" lon="7.06196">
        <ele>1860</ele>
        <time>2013-06-09T08:48:35Z</time>
      </trkpt>
      <trkpt lat="44.06808" lon="7.06196">
        <ele>1860</ele>
        <time>2013-06-09T08:48:39Z</time>
      </trkpt>
      <trkpt lat="44.06808" lon="7.06196">
        <ele>1860</ele>
        <time>2013-06-09T08:48:43Z</time>
      </trkpt>
      <trkpt lat="44.06808" lon="7.06196">
        <ele>1860</ele>
        <time>2013-06-09T08:48:47Z</time>
      </trkpt>
      <trkpt lat="44.06808" lon="7.06196">
        <ele>1860</ele>
        <time>2013-06-09T08:48:51Z</time>
      </trkpt>
      <trkpt lat="44.06808" lon="7.06196">
        <ele>1860</ele>
        <time>2013-06-09T08:48:55Z</time>
      </trkpt>
      <trkpt lat="44.06808" lon="7.06196">
        <ele>1860</ele>
        <time>2013-06-09T08:48:59Z</time>
      </trkpt>
      <trkpt lat="44.06808" lon="7.06196">
        <ele>1860</ele>
        <time>2013-06-09T08:49:03Z</time>
      </trkpt>
      <trkpt lat="44.06808" lon="7.06196">
        <ele>1860</ele>
        <time>2013-06-09T08:49:07Z</time>
      </trkpt>
      <trkpt lat="44.06808" lon="7.06196">
        <ele>1860</ele>
        <time>2013-06-09T08:49:11Z</time>
      </trkpt>
      <trkpt lat="44.06808" lon="7.06196">
        <ele>1860</ele>
        <time>2013-06-09T08:49:15Z</time>
      </trkpt>
      <trkpt lat="44.06808" lon="7.06197">
        <ele>1860</ele>
        <time>2013-06-09T08:49:19Z</time>
      </trkpt>
      <trkpt lat="44.06808" lon="7.06197">
        <ele>1860.2</ele>
        <time>2013-06-09T08:49:23Z</time>
      </trkpt>
      <trkpt lat="44.06807" lon="7.06196">
        <ele>1860.4</ele>
        <time>2013-06-09T08:49:27Z</time>
      </trkpt>
      <trkpt lat="44.06807" lon="7.06196">
        <ele>1860.2</ele>
        <time>2013-06-09T08:49:31Z</time>
      </trkpt>
      <trkpt lat="44.06807" lon="7.06196">
        <ele>1860.1</ele>
        <time>2013-06-09T08:49:35Z</time>
      </trkpt>
      <trkpt lat="44.06806" lon="7.06194">
        <ele>1860.2</ele>
        <time>2013-06-09T08:49:39Z</time>
      </trkpt>
      <trkpt lat="44.06805" lon="7.06193">
        <ele>1860.1</ele>
        <time>2013-06-09T08:49:43Z</time>
      </trkpt>
      <trkpt lat="44.06805" lon="7.06192">
        <ele>1860.1</ele>
        <time>2013-06-09T08:49:47Z</time>
      </trkpt>
      <trkpt lat="44.06805" lon="7.06192">
        <ele>1860.1</ele>
        <time>2013-06-09T08:49:51Z</time>
      </trkpt>
      <trkpt lat="44.06805" lon="7.06193">
        <ele>1860.1</ele>
        <time>2013-06-09T08:49:55Z</time>
      </trkpt>
      <trkpt lat="44.06805" lon="7.06193">
        <ele>1860.2</ele>
        <time>2013-06-09T08:49:59Z</time>
      </trkpt>
      <trkpt lat="44.06806" lon="7.06195">
        <ele>1860.3</ele>
        <time>2013-06-09T08:50:03Z</time>
      </trkpt>
      <trkpt lat="44.06806" lon="7.06195">
        <ele>1860.3</ele>
        <time>2013-06-09T08:50:07Z</time>
      </trkpt>
      <trkpt lat="44.06807" lon="7.06197">
        <ele>1860.5</ele>
        <time>2013-06-09T08:50:11Z</time>
      </trkpt>
      <trkpt lat="44.06809" lon="7.062">
        <ele>1860.6</ele>
        <time>2013-06-09T08:50:15Z</time>
      </trkpt>
      <trkpt lat="44.06809" lon="7.06203">
        <ele>1861</ele>
        <time>2013-06-09T08:50:19Z</time>
      </trkpt>
      <trkpt lat="44.0681" lon="7.06204">
        <ele>1861.1</ele>
        <time>2013-06-09T08:50:23Z</time>
      </trkpt>
      <trkpt lat="44.0681" lon="7.06205">
        <ele>1861.3</ele>
        <time>2013-06-09T08:50:27Z</time>
      </trkpt>
      <trkpt lat="44.06812" lon="7.06209">
        <ele>1861.3</ele>
        <time>2013-06-09T08:50:31Z</time>
      </trkpt>
      <trkpt lat="44.06812" lon="7.06207">
        <ele>1861.1</ele>
        <time>2013-06-09T08:50:35Z</time>
      </trkpt>
      <trkpt lat="44.06812" lon="7.06204">
        <ele>1860.5</ele>
        <time>2013-06-09T08:50:39Z</time>
      </trkpt>
      <trkpt lat="44.06814" lon="7.06201">
        <ele>1859.5</ele>
        <time>2013-06-09T08:50:43Z</time>
      </trkpt>
      <trkpt lat="44.06815" lon="7.06201">
        <ele>1859.3</ele>
        <time>2013-06-09T08:50:47Z</time>
      </trkpt>
      <trkpt lat="44.06815" lon="7.06202">
        <ele>1859.4</ele>
        <time>2013-06-09T08:50:51Z</time>
      </trkpt>
      <trkpt lat="44.06816" lon="7.062">
        <ele>1859</ele>
        <time>2013-06-09T08:50:55Z</time>
      </trkpt>
      <trkpt lat="44.06816" lon="7.06197">
        <ele>1858.3</ele>
        <time>2013-06-09T08:50:59Z</time>
      </trkpt>
      <trkpt lat="44.06814" lon="7.06195">
        <ele>1858.4</ele>
        <time>2013-06-09T08:51:03Z</time>
      </trkpt>
      <trkpt lat="44.06813" lon="7.06195">
        <ele>1858.7</ele>
        <time>2013-06-09T08:51:07Z</time>
      </trkpt>
      <trkpt lat="44.06811" lon="7.06198">
        <ele>1859.6</ele>
        <time>2013-06-09T08:51:11Z</time>
      </trkpt>
      <trkpt lat="44.0681" lon="7.062">
        <ele>1860.2</ele>
        <time>2013-06-09T08:51:15Z</time>
      </trkpt>
      <trkpt lat="44.06809" lon="7.06199">
        <ele>1860.3</ele>
        <time>2013-06-09T08:51:19Z</time>
      </trkpt>
      <trkpt lat="44.06811" lon="7.062">
        <ele>1860</ele>
        <time>2013-06-09T08:51:23Z</time>
      </trkpt>
      <trkpt lat="44.06813" lon="7.06202">
        <ele>1859.8</ele>
        <time>2013-06-09T08:51:27Z</time>
      </trkpt>
      <trkpt lat="44.06813" lon="7.06202">
        <ele>1859.8</ele>
        <time>2013-06-09T08:51:31Z</time>
      </trkpt>
      <trkpt lat="44.06813" lon="7.06201">
        <ele>1859.9</ele>
        <time>2013-06-09T08:51:35Z</time>
      </trkpt>
      <trkpt lat="44.06813" lon="7.06202">
        <ele>1859.9</ele>
        <time>2013-06-09T08:51:39Z</time>
      </trkpt>
      <trkpt lat="44.06813" lon="7.06202">
        <ele>1860</ele>
        <time>2013-06-09T08:51:43Z</time>
      </trkpt>
      <trkpt lat="44.06812" lon="7.06202">
        <ele>1860.1</ele>
        <time>2013-06-09T08:51:47Z</time>
      </trkpt>
      <trkpt lat="44.06812" lon="7.06202">
        <ele>1860.1</ele>
        <time>2013-06-09T08:51:51Z</time>
      </trkpt>
      <trkpt lat="44.06812" lon="7.06202">
        <ele>1860.1</ele>
        <time>2013-06-09T08:51:55Z</time>
      </trkpt>
      <trkpt lat="44.06812" lon="7.06202">
        <ele>1860.1</ele>
        <time>2013-06-09T08:51:59Z</time>
      </trkpt>
      <trkpt lat="44.06812" lon="7.06202">
        <ele>1860.1</ele>
        <time>2013-06-09T08:52:03Z</time>
      </trkpt>
      <trkpt lat="44.06813" lon="7.06202">
        <ele>1859.9</ele>
        <time>2013-06-09T08:52:07Z</time>
      </trkpt>
      <trkpt lat="44.06814" lon="7.062">
        <ele>1859.3</ele>
        <time>2013-06-09T08:52:11Z</time>
      </trkpt>
      <trkpt lat="44.06814" lon="7.06198">
        <ele>1859</ele>
        <time>2013-06-09T08:52:15Z</time>
      </trkpt>
      <trkpt lat="44.06814" lon="7.06196">
        <ele>1858.7</ele>
        <time>2013-06-09T08:52:19Z</time>
      </trkpt>
      <trkpt lat="44.06814" lon="7.06194">
        <ele>1858.3</ele>
        <time>2013-06-09T08:52:23Z</time>
      </trkpt>
      <trkpt lat="44.06812" lon="7.06193">
        <ele>1858.4</ele>
        <time>2013-06-09T08:52:27Z</time>
      </trkpt>
      <trkpt lat="44.06813" lon="7.06195">
        <ele>1858.6</ele>
        <time>2013-06-09T08:52:31Z</time>
      </trkpt>
      <trkpt lat="44.06814" lon="7.06197">
        <ele>1858.8</ele>
        <time>2013-06-09T08:52:35Z</time>
      </trkpt>
      <trkpt lat="44.06814" lon="7.06199">
        <ele>1859.2</ele>
        <time>2013-06-09T08:52:39Z</time>
      </trkpt>
      <trkpt lat="44.06814" lon="7.06201">
        <ele>1859.5</ele>
        <time>2013-06-09T08:52:43Z</time>
      </trkpt>
      <trkpt lat="44.06813" lon="7.06202">
        <ele>1859.9</ele>
        <time>2013-06-09T08:52:47Z</time>
      </trkpt>
      <trkpt lat="44.06813" lon="7.06201">
        <ele>1859.6</ele>
        <time>2013-06-09T08:52:51Z</time>
      </trkpt>
      <trkpt lat="44.06814" lon="7.06201">
        <ele>1859.6</ele>
        <time>2013-06-09T08:52:55Z</time>
      </trkpt>
      <trkpt lat="44.06814" lon="7.062">
        <ele>1859.4</ele>
        <time>2013-06-09T08:52:59Z</time>
      </trkpt>
      <trkpt lat="44.06813" lon="7.062">
        <ele>1859.5</ele>
        <time>2013-06-09T08:53:03Z</time>
      </trkpt>
      <trkpt lat="44.06813" lon="7.06202">
        <ele>1860</ele>
        <time>2013-06-09T08:53:07Z</time>
      </trkpt>
      <trkpt lat="44.06812" lon="7.06202">
        <ele>1860.2</ele>
        <time>2013-06-09T08:53:11Z</time>
      </trkpt>
      <trkpt lat="44.06812" lon="7.06202">
        <ele>1860.3</ele>
        <time>2013-06-09T08:53:15Z</time>
      </trkpt>
      <trkpt lat="44.06811" lon="7.06203">
        <ele>1860.4</ele>
        <time>2013-06-09T08:53:19Z</time>
      </trkpt>
      <trkpt lat="44.06811" lon="7.06203">
        <ele>1860.5</ele>
        <time>2013-06-09T08:53:23Z</time>
      </trkpt>
      <trkpt lat="44.06812" lon="7.06203">
        <ele>1860.5</ele>
        <time>2013-06-09T08:53:27Z</time>
      </trkpt>
      <trkpt lat="44.06812" lon="7.06203">
        <ele>1860.5</ele>
        <time>2013-06-09T08:53:31Z</time>
      </trkpt>
      <trkpt lat="44.06812" lon="7.06205">
        <ele>1860.6</ele>
        <time>2013-06-09T08:53:35Z</time>
      </trkpt>
      <trkpt lat="44.06812" lon="7.06205">
        <ele>1860.7</ele>
        <time>2013-06-09T08:53:39Z</time>
      </trkpt>
      <trkpt lat="44.06812" lon="7.06205">
        <ele>1860.7</ele>
        <time>2013-06-09T08:53:43Z</time>
      </trkpt>
      <trkpt lat="44.06813" lon="7.06201">
        <ele>1859.7</ele>
        <time>2013-06-09T08:53:47Z</time>
      </trkpt>
      <trkpt lat="44.06816" lon="7.06196">
        <ele>1858.1</ele>
        <time>2013-06-09T08:53:51Z</time>
      </trkpt>
      <trkpt lat="44.06817" lon="7.0619">
        <ele>1856.7</ele>
        <time>2013-06-09T08:53:55Z</time>
      </trkpt>
      <trkpt lat="44.06817" lon="7.06184">
        <ele>1855.5</ele>
        <time>2013-06-09T08:53:59Z</time>
      </trkpt>
      <trkpt lat="44.06816" lon="7.06178">
        <ele>1854.6</ele>
        <time>2013-06-09T08:54:03Z</time>
      </trkpt>
      <trkpt lat="44.06815" lon="7.06173">
        <ele>1854</ele>
        <time>2013-06-09T08:54:07Z</time>
      </trkpt>
      <trkpt lat="44.06812" lon="7.06168">
        <ele>1853.7</ele>
        <time>2013-06-09T08:54:11Z</time>
      </trkpt>
      <trkpt lat="44.06811" lon="7.06163">
        <ele>1853.1</ele>
        <time>2013-06-09T08:54:15Z</time>
      </trkpt>
      <trkpt lat="44.06811" lon="7.06158">
        <ele>1852.3</ele>
        <time>2013-06-09T08:54:19Z</time>
      </trkpt>
      <trkpt lat="44.06811" lon="7.06154">
        <ele>1851.4</ele>
        <time>2013-06-09T08:54:23Z</time>
      </trkpt>
      <trkpt lat="44.06811" lon="7.0615">
        <ele>1850.6</ele>
        <time>2013-06-09T08:54:27Z</time>
      </trkpt>
      <trkpt lat="44.06811" lon="7.0615">
        <ele>1850.7</ele>
        <time>2013-06-09T08:54:31Z</time>
      </trkpt>
      <trkpt lat="44.06811" lon="7.0615">
        <ele>1850.6</ele>
        <time>2013-06-09T08:54:35Z</time>
      </trkpt>
      <trkpt lat="44.06809" lon="7.0615">
        <ele>1851.1</ele>
        <time>2013-06-09T08:54:39Z</time>
      </trkpt>
      <trkpt lat="44.06808" lon="7.0615">
        <ele>1851.4</ele>
        <time>2013-06-09T08:54:43Z</time>
      </trkpt>
      <trkpt lat="44.06808" lon="7.0615">
        <ele>1851.6</ele>
        <time>2013-06-09T08:54:47Z</time>
      </trkpt>
      <trkpt lat="44.06807" lon="7.0615">
        <ele>1851.6</ele>
        <time>2013-06-09T08:54:51Z</time>
      </trkpt>
      <trkpt lat="44.06807" lon="7.0615">
        <ele>1851.6</ele>
        <time>2013-06-09T08:54:55Z</time>
      </trkpt>
      <trkpt lat="44.06807" lon="7.0615">
        <ele>1851.6</ele>
        <time>2013-06-09T08:54:59Z</time>
      </trkpt>
      <trkpt lat="44.06807" lon="7.06153">
        <ele>1852.3</ele>
        <time>2013-06-09T08:55:03Z</time>
      </trkpt>
      <trkpt lat="44.06807" lon="7.06159">
        <ele>1853.6</ele>
        <time>2013-06-09T08:55:07Z</time>
      </trkpt>
      <trkpt lat="44.06805" lon="7.06165">
        <ele>1855</ele>
        <time>2013-06-09T08:55:11Z</time>
      </trkpt>
      <trkpt lat="44.06805" lon="7.06172">
        <ele>1856.2</ele>
        <time>2013-06-09T08:55:15Z</time>
      </trkpt>
      <trkpt lat="44.06807" lon="7.06178">
        <ele>1857</ele>
        <time>2013-06-09T08:55:19Z</time>
      </trkpt>
      <trkpt lat="44.06808" lon="7.06182">
        <ele>1857.4</ele>
        <time>2013-06-09T08:55:23Z</time>
      </trkpt>
      <trkpt lat="44.06808" lon="7.06184">
        <ele>1857.7</ele>
        <time>2013-06-09T08:55:27Z</time>
      </trkpt>
      <trkpt lat="44.06808" lon="7.06185">
        <ele>1857.9</ele>
        <time>2013-06-09T08:55:31Z</time>
      </trkpt>
      <trkpt lat="44.06809" lon="7.06187">
        <ele>1858.1</ele>
        <time>2013-06-09T08:55:35Z</time>
      </trkpt>
      <trkpt lat="44.06809" lon="7.06189">
        <ele>1858.4</ele>
        <time>2013-06-09T08:55:39Z</time>
      </trkpt>
      <trkpt lat="44.06811" lon="7.06192">
        <ele>1858.6</ele>
        <time>2013-06-09T08:55:43Z</time>
      </trkpt>
      <trkpt lat="44.06811" lon="7.06192">
        <ele>1858.5</ele>
        <time>2013-06-09T08:55:47Z</time>
      </trkpt>
      <trkpt lat="44.06812" lon="7.06194">
        <ele>1858.6</ele>
        <time>2013-06-09T08:55:51Z</time>
      </trkpt>
      <trkpt lat="44.06812" lon="7.06194">
        <ele>1858.5</ele>
        <time>2013-06-09T08:55:55Z</time>
      </trkpt>
      <trkpt lat="44.06812" lon="7.06193">
        <ele>1858.5</ele>
        <time>2013-06-09T08:55:59Z</time>
      </trkpt>
      <trkpt lat="44.06812" lon="7.06194">
        <ele>1858.7</ele>
        <time>2013-06-09T08:56:03Z</time>
      </trkpt>
      <trkpt lat="44.06811" lon="7.06197">
        <ele>1859.3</ele>
        <time>2013-06-09T08:56:07Z</time>
      </trkpt>
      <trkpt lat="44.06811" lon="7.06199">
        <ele>1859.8</ele>
        <time>2013-06-09T08:56:11Z</time>
      </trkpt>
      <trkpt lat="44.06811" lon="7.062">
        <ele>1860</ele>
        <time>2013-06-09T08:56:15Z</time>
      </trkpt>
      <trkpt lat="44.06811" lon="7.062">
        <ele>1860</ele>
        <time>2013-06-09T08:56:19Z</time>
      </trkpt>
      <trkpt lat="44.06811" lon="7.06201">
        <ele>1860.1</ele>
        <time>2013-06-09T08:56:23Z</time>
      </trkpt>
      <trkpt lat="44.06811" lon="7.06201">
        <ele>1860.1</ele>
        <time>2013-06-09T08:56:27Z</time>
      </trkpt>
      <trkpt lat="44.06811" lon="7.06201">
        <ele>1860.1</ele>
        <time>2013-06-09T08:56:31Z</time>
      </trkpt>
      <trkpt lat="44.06811" lon="7.06201">
        <ele>1860.1</ele>
        <time>2013-06-09T08:56:35Z</time>
      </trkpt>
      <trkpt lat="44.06811" lon="7.06201">
        <ele>1860.1</ele>
        <time>2013-06-09T08:56:39Z</time>
      </trkpt>
      <trkpt lat="44.06811" lon="7.06201">
        <ele>1860.1</ele>
        <time>2013-06-09T08:56:43Z</time>
      </trkpt>
      <trkpt lat="44.06811" lon="7.06201">
        <ele>1860.3</ele>
        <time>2013-06-09T08:56:47Z</time>
      </trkpt>
      <trkpt lat="44.06811" lon="7.06201">
        <ele>1860.2</ele>
        <time>2013-06-09T08:56:51Z</time>
      </trkpt>
      <trkpt lat="44.0681" lon="7.06201">
        <ele>1860.4</ele>
        <time>2013-06-09T08:56:55Z</time>
      </trkpt>
      <trkpt lat="44.0681" lon="7.06201">
        <ele>1860.4</ele>
        <time>2013-06-09T08:56:59Z</time>
      </trkpt>
      <trkpt lat="44.0681" lon="7.06201">
        <ele>1860.4</ele>
        <time>2013-06-09T08:57:03Z</time>
      </trkpt>
      <trkpt lat="44.0681" lon="7.06201">
        <ele>1860.4</ele>
        <time>2013-06-09T08:57:07Z</time>
      </trkpt>
      <trkpt lat="44.0681" lon="7.06201">
        <ele>1860.4</ele>
        <time>2013-06-09T08:57:11Z</time>
      </trkpt>
      <trkpt lat="44.0681" lon="7.06201">
        <ele>1860.4</ele>
        <time>2013-06-09T08:57:15Z</time>
      </trkpt>
      <trkpt lat="44.0681" lon="7.06201">
        <ele>1860.4</ele>
        <time>2013-06-09T08:57:19Z</time>
      </trkpt>
      <trkpt lat="44.0681" lon="7.06201">
        <ele>1860.4</ele>
        <time>2013-06-09T08:57:23Z</time>
      </trkpt>
      <trkpt lat="44.0681" lon="7.06201">
        <ele>1860.4</ele>
        <time>2013-06-09T08:57:27Z</time>
      </trkpt>
      <trkpt lat="44.0681" lon="7.06201">
        <ele>1860.4</ele>
        <time>2013-06-09T08:57:31Z</time>
      </trkpt>
      <trkpt lat="44.0681" lon="7.06201">
        <ele>1860.4</ele>
        <time>2013-06-09T08:57:35Z</time>
      </trkpt>
      <trkpt lat="44.0681" lon="7.06201">
        <ele>1860.4</ele>
        <time>2013-06-09T08:57:39Z</time>
      </trkpt>
      <trkpt lat="44.0681" lon="7.06201">
        <ele>1860.4</ele>
        <time>2013-06-09T08:57:43Z</time>
      </trkpt>
      <trkpt lat="44.0681" lon="7.06201">
        <ele>1860.4</ele>
        <time>2013-06-09T08:57:47Z</time>
      </trkpt>
      <trkpt lat="44.06812" lon="7.06201">
        <ele>1860</ele>
        <time>2013-06-09T08:57:51Z</time>
      </trkpt>
      <trkpt lat="44.06813" lon="7.06202">
        <ele>1859.9</ele>
        <time>2013-06-09T08:57:55Z</time>
      </trkpt>
      <trkpt lat="44.06813" lon="7.06202">
        <ele>1859.9</ele>
        <time>2013-06-09T08:57:59Z</time>
      </trkpt>
      <trkpt lat="44.06813" lon="7.06202">
        <ele>1859.9</ele>
        <time>2013-06-09T08:58:03Z</time>
      </trkpt>
      <trkpt lat="44.06813" lon="7.06202">
        <ele>1859.9</ele>
        <time>2013-06-09T08:58:07Z</time>
      </trkpt>
      <trkpt lat="44.06813" lon="7.06202">
        <ele>1859.9</ele>
        <time>2013-06-09T08:58:11Z</time>
      </trkpt>
      <trkpt lat="44.06813" lon="7.06202">
        <ele>1859.9</ele>
        <time>2013-06-09T08:58:15Z</time>
      </trkpt>
      <trkpt lat="44.06813" lon="7.06202">
        <ele>1859.9</ele>
        <time>2013-06-09T08:58:19Z</time>
      </trkpt>
      <trkpt lat="44.06813" lon="7.06202">
        <ele>1859.9</ele>
        <time>2013-06-09T08:58:23Z</time>
      </trkpt>
      <trkpt lat="44.06813" lon="7.06202">
        <ele>1859.9</ele>
        <time>2013-06-09T08:58:27Z</time>
      </trkpt>
      <trkpt lat="44.06813" lon="7.06202">
        <ele>1859.9</ele>
        <time>2013-06-09T08:58:31Z</time>
      </trkpt>
      <trkpt lat="44.06813" lon="7.06202">
        <ele>1859.9</ele>
        <time>2013-06-09T08:58:35Z</time>
      </trkpt>
      <trkpt lat="44.06813" lon="7.06202">
        <ele>1859.9</ele>
        <time>2013-06-09T08:58:39Z</time>
      </trkpt>
      <trkpt lat="44.06813" lon="7.06202">
        <ele>1859.9</ele>
        <time>2013-06-09T08:58:43Z</time>
      </trkpt>
      <trkpt lat="44.06813" lon="7.06202">
        <ele>1859.9</ele>
        <time>2013-06-09T08:58:47Z</time>
      </trkpt>
      <trkpt lat="44.06813" lon="7.06202">
        <ele>1859.9</ele>
        <time>2013-06-09T08:58:51Z</time>
      </trkpt>
      <trkpt lat="44.06813" lon="7.06202">
        <ele>1859.9</ele>
        <time>2013-06-09T08:58:55Z</time>
      </trkpt>
      <trkpt lat="44.06814" lon="7.06202">
        <ele>1859.8</ele>
        <time>2013-06-09T08:58:59Z</time>
      </trkpt>
      <trkpt lat="44.06814" lon="7.06202">
        <ele>1859.7</ele>
        <time>2013-06-09T08:59:03Z</time>
      </trkpt>
      <trkpt lat="44.06814" lon="7.06202">
        <ele>1859.8</ele>
        <time>2013-06-09T08:59:07Z</time>
      </trkpt>
      <trkpt lat="44.06813" lon="7.06203">
        <ele>1860</ele>
        <time>2013-06-09T08:59:11Z</time>
      </trkpt>
      <trkpt lat="44.06813" lon="7.06203">
        <ele>1860</ele>
        <time>2013-06-09T08:59:15Z</time>
      </trkpt>
      <trkpt lat="44.06814" lon="7.06203">
        <ele>1859.9</ele>
        <time>2013-06-09T08:59:19Z</time>
      </trkpt>
      <trkpt lat="44.06814" lon="7.06203">
        <ele>1859.9</ele>
        <time>2013-06-09T08:59:23Z</time>
      </trkpt>
      <trkpt lat="44.06815" lon="7.06201">
        <ele>1859.2</ele>
        <time>2013-06-09T08:59:27Z</time>
      </trkpt>
      <trkpt lat="44.06817" lon="7.06198">
        <ele>1858.2</ele>
        <time>2013-06-09T08:59:31Z</time>
      </trkpt>
      <trkpt lat="44.06818" lon="7.06196">
        <ele>1857.6</ele>
        <time>2013-06-09T08:59:35Z</time>
      </trkpt>
      <trkpt lat="44.0682" lon="7.06191">
        <ele>1856.2</ele>
        <time>2013-06-09T08:59:39Z</time>
      </trkpt>
      <trkpt lat="44.0682" lon="7.06179">
        <ele>1853.8</ele>
        <time>2013-06-09T08:59:43Z</time>
      </trkpt>
      <trkpt lat="44.06817" lon="7.06169">
        <ele>1852.6</ele>
        <time>2013-06-09T08:59:47Z</time>
      </trkpt>
      <trkpt lat="44.06817" lon="7.06169">
        <ele>1852.8</ele>
        <time>2013-06-09T08:59:51Z</time>
      </trkpt>
      <trkpt lat="44.06816" lon="7.06171">
        <ele>1853.2</ele>
        <time>2013-06-09T08:59:55Z</time>
      </trkpt>
      <trkpt lat="44.0681" lon="7.06164">
        <ele>1853.7</ele>
        <time>2013-06-09T08:59:59Z</time>
      </trkpt>
      <trkpt lat="44.06806" lon="7.06156">
        <ele>1853.4</ele>
        <time>2013-06-09T09:00:03Z</time>
      </trkpt>
      <trkpt lat="44.06808" lon="7.06158">
        <ele>1852.9</ele>
        <time>2013-06-09T09:00:07Z</time>
      </trkpt>
      <trkpt lat="44.06811" lon="7.06163">
        <ele>1853</ele>
        <time>2013-06-09T09:00:11Z</time>
      </trkpt>
      <trkpt lat="44.06811" lon="7.0617">
        <ele>1854.3</ele>
        <time>2013-06-09T09:00:15Z</time>
      </trkpt>
      <trkpt lat="44.06812" lon="7.06177">
        <ele>1855.5</ele>
        <time>2013-06-09T09:00:19Z</time>
      </trkpt>
      <trkpt lat="44.0681" lon="7.06183">
        <ele>1857.1</ele>
        <time>2013-06-09T09:00:23Z</time>
      </trkpt>
      <trkpt lat="44.06809" lon="7.06189">
        <ele>1858.4</ele>
        <time>2013-06-09T09:00:27Z</time>
      </trkpt>
      <trkpt lat="44.06809" lon="7.06194">
        <ele>1859.3</ele>
        <time>2013-06-09T09:00:31Z</time>
      </trkpt>
      <trkpt lat="44.06809" lon="7.06198">
        <ele>1860.1</ele>
        <time>2013-06-09T09:00:35Z</time>
      </trkpt>
      <trkpt lat="44.0681" lon="7.06203">
        <ele>1860.8</ele>
        <time>2013-06-09T09:00:39Z</time>
      </trkpt>
      <trkpt lat="44.0681" lon="7.06201">
        <ele>1860.4</ele>
        <time>2013-06-09T09:00:43Z</time>
      </trkpt>
      <trkpt lat="44.0681" lon="7.06201">
        <ele>1860.3</ele>
        <time>2013-06-09T09:00:47Z</time>
      </trkpt>
      <trkpt lat="44.0681" lon="7.06201">
        <ele>1860.4</ele>
        <time>2013-06-09T09:00:51Z</time>
      </trkpt>
      <trkpt lat="44.0681" lon="7.06201">
        <ele>1860.4</ele>
        <time>2013-06-09T09:00:55Z</time>
      </trkpt>
      <trkpt lat="44.0681" lon="7.06201">
        <ele>1860.4</ele>
        <time>2013-06-09T09:00:59Z</time>
      </trkpt>
      <trkpt lat="44.0681" lon="7.06201">
        <ele>1860.4</ele>
        <time>2013-06-09T09:01:03Z</time>
      </trkpt>
      <trkpt lat="44.0681" lon="7.06201">
        <ele>1860.4</ele>
        <time>2013-06-09T09:01:07Z</time>
      </trkpt>
      <trkpt lat="44.0681" lon="7.06201">
        <ele>1860.4</ele>
        <time>2013-06-09T09:01:11Z</time>
      </trkpt>
      <trkpt lat="44.0681" lon="7.06201">
        <ele>1860.4</ele>
        <time>2013-06-09T09:01:15Z</time>
      </trkpt>
      <trkpt lat="44.0681" lon="7.06201">
        <ele>1860.4</ele>
        <time>2013-06-09T09:01:19Z</time>
      </trkpt>
      <trkpt lat="44.0681" lon="7.06201">
        <ele>1860.4</ele>
        <time>2013-06-09T09:01:23Z</time>
      </trkpt>
      <trkpt lat="44.0681" lon="7.06202">
        <ele>1860.6</ele>
        <time>2013-06-09T09:01:27Z</time>
      </trkpt>
      <trkpt lat="44.06812" lon="7.06204">
        <ele>1860.7</ele>
        <time>2013-06-09T09:01:31Z</time>
      </trkpt>
      <trkpt lat="44.06812" lon="7.06205">
        <ele>1860.6</ele>
        <time>2013-06-09T09:01:35Z</time>
      </trkpt>
      <trkpt lat="44.06812" lon="7.06205">
        <ele>1860.6</ele>
        <time>2013-06-09T09:01:39Z</time>
      </trkpt>
      <trkpt lat="44.06812" lon="7.06205">
        <ele>1860.6</ele>
        <time>2013-06-09T09:01:43Z</time>
      </trkpt>
      <trkpt lat="44.06812" lon="7.06205">
        <ele>1860.7</ele>
        <time>2013-06-09T09:01:47Z</time>
      </trkpt>
      <trkpt lat="44.06812" lon="7.06205">
        <ele>1860.7</ele>
        <time>2013-06-09T09:01:51Z</time>
      </trkpt>
      <trkpt lat="44.06812" lon="7.06205">
        <ele>1860.7</ele>
        <time>2013-06-09T09:01:55Z</time>
      </trkpt>
      <trkpt lat="44.06812" lon="7.06205">
        <ele>1860.7</ele>
        <time>2013-06-09T09:01:59Z</time>
      </trkpt>
      <trkpt lat="44.06812" lon="7.06205">
        <ele>1860.7</ele>
        <time>2013-06-09T09:02:03Z</time>
      </trkpt>
      <trkpt lat="44.06812" lon="7.06205">
        <ele>1860.7</ele>
        <time>2013-06-09T09:02:07Z</time>
      </trkpt>
      <trkpt lat="44.06812" lon="7.06205">
        <ele>1860.7</ele>
        <time>2013-06-09T09:02:11Z</time>
      </trkpt>
      <trkpt lat="44.06812" lon="7.06204">
        <ele>1860.6</ele>
        <time>2013-06-09T09:02:15Z</time>
      </trkpt>
      <trkpt lat="44.0681" lon="7.06203">
        <ele>1860.9</ele>
        <time>2013-06-09T09:02:19Z</time>
      </trkpt>
      <trkpt lat="44.0681" lon="7.06202">
        <ele>1860.7</ele>
        <time>2013-06-09T09:02:23Z</time>
      </trkpt>
      <trkpt lat="44.06809" lon="7.06202">
        <ele>1860.8</ele>
        <time>2013-06-09T09:02:27Z</time>
      </trkpt>
      <trkpt lat="44.06809" lon="7.06202">
        <ele>1860.9</ele>
        <time>2013-06-09T09:02:31Z</time>
      </trkpt>
      <trkpt lat="44.06808" lon="7.06202">
        <ele>1860.9</ele>
        <time>2013-06-09T09:02:35Z</time>
      </trkpt>
      <trkpt lat="44.06808" lon="7.06201">
        <ele>1861</ele>
        <time>2013-06-09T09:02:39Z</time>
      </trkpt>
      <trkpt lat="44.06808" lon="7.06202">
        <ele>1861</ele>
        <time>2013-06-09T09:02:43Z</time>
      </trkpt>
      <trkpt lat="44.06808" lon="7.06201">
        <ele>1860.9</ele>
        <time>2013-06-09T09:02:47Z</time>
      </trkpt>
      <trkpt lat="44.06808" lon="7.06201">
        <ele>1860.9</ele>
        <time>2013-06-09T09:02:51Z</time>
      </trkpt>
      <trkpt lat="44.06808" lon="7.062">
        <ele>1860.8</ele>
        <time>2013-06-09T09:02:55Z</time>
      </trkpt>
      <trkpt lat="44.06808" lon="7.06201">
        <ele>1860.9</ele>
        <time>2013-06-09T09:02:59Z</time>
      </trkpt>
      <trkpt lat="44.06809" lon="7.06202">
        <ele>1860.9</ele>
        <time>2013-06-09T09:03:03Z</time>
      </trkpt>
      <trkpt lat="44.06809" lon="7.06202">
        <ele>1861</ele>
        <time>2013-06-09T09:03:07Z</time>
      </trkpt>
      <trkpt lat="44.06809" lon="7.06202">
        <ele>1860.9</ele>
        <time>2013-06-09T09:03:11Z</time>
      </trkpt>
      <trkpt lat="44.06809" lon="7.06202">
        <ele>1860.9</ele>
        <time>2013-06-09T09:03:15Z</time>
      </trkpt>
      <trkpt lat="44.06809" lon="7.06202">
        <ele>1860.9</ele>
        <time>2013-06-09T09:03:19Z</time>
      </trkpt>
      <trkpt lat="44.06809" lon="7.06202">
        <ele>1860.9</ele>
        <time>2013-06-09T09:03:23Z</time>
      </trkpt>
      <trkpt lat="44.06809" lon="7.06202">
        <ele>1860.9</ele>
        <time>2013-06-09T09:03:27Z</time>
      </trkpt>
      <trkpt lat="44.06809" lon="7.06202">
        <ele>1860.9</ele>
        <time>2013-06-09T09:03:31Z</time>
      </trkpt>
      <trkpt lat="44.06809" lon="7.06202">
        <ele>1860.9</ele>
        <time>2013-06-09T09:03:35Z</time>
      </trkpt>
      <trkpt lat="44.06809" lon="7.06202">
        <ele>1860.9</ele>
        <time>2013-06-09T09:03:39Z</time>
      </trkpt>
      <trkpt lat="44.06809" lon="7.06202">
        <ele>1860.9</ele>
        <time>2013-06-09T09:03:43Z</time>
      </trkpt>
      <trkpt lat="44.06808" lon="7.06202">
        <ele>1860.9</ele>
        <time>2013-06-09T09:03:47Z</time>
      </trkpt>
      <trkpt lat="44.06809" lon="7.06202">
        <ele>1861</ele>
        <time>2013-06-09T09:03:51Z</time>
      </trkpt>
      <trkpt lat="44.06809" lon="7.06203">
        <ele>1861.1</ele>
        <time>2013-06-09T09:03:55Z</time>
      </trkpt>
      <trkpt lat="44.06809" lon="7.06203">
        <ele>1861</ele>
        <time>2013-06-09T09:03:59Z</time>
      </trkpt>
      <trkpt lat="44.06809" lon="7.06203">
        <ele>1861</ele>
        <time>2013-06-09T09:04:03Z</time>
      </trkpt>
      <trkpt lat="44.06809" lon="7.06203">
        <ele>1861</ele>
        <time>2013-06-09T09:04:07Z</time>
      </trkpt>
      <trkpt lat="44.06809" lon="7.06203">
        <ele>1861</ele>
        <time>2013-06-09T09:04:11Z</time>
      </trkpt>
      <trkpt lat="44.06809" lon="7.06203">
        <ele>1861</ele>
        <time>2013-06-09T09:04:15Z</time>
      </trkpt>
      <trkpt lat="44.06809" lon="7.06203">
        <ele>1861</ele>
        <time>2013-06-09T09:04:19Z</time>
      </trkpt>
      <trkpt lat="44.06809" lon="7.06203">
        <ele>1861</ele>
        <time>2013-06-09T09:04:23Z</time>
      </trkpt>
      <trkpt lat="44.06809" lon="7.06203">
        <ele>1861</ele>
        <time>2013-06-09T09:04:27Z</time>
      </trkpt>
      <trkpt lat="44.06809" lon="7.06203">
        <ele>1861</ele>
        <time>2013-06-09T09:04:31Z</time>
      </trkpt>
      <trkpt lat="44.06809" lon="7.06203">
        <ele>1861</ele>
        <time>2013-06-09T09:04:35Z</time>
      </trkpt>
      <trkpt lat="44.06809" lon="7.06203">
        <ele>1861</ele>
        <time>2013-06-09T09:04:39Z</time>
      </trkpt>
      <trkpt lat="44.06809" lon="7.06203">
        <ele>1861</ele>
        <time>2013-06-09T09:04:43Z</time>
      </trkpt>
      <trkpt lat="44.06809" lon="7.06203">
        <ele>1861</ele>
        <time>2013-06-09T09:04:47Z</time>
      </trkpt>
      <trkpt lat="44.06809" lon="7.06203">
        <ele>1861</ele>
        <time>2013-06-09T09:04:51Z</time>
      </trkpt>
      <trkpt lat="44.06809" lon="7.06203">
        <ele>1861</ele>
        <time>2013-06-09T09:04:55Z</time>
      </trkpt>
      <trkpt lat="44.06809" lon="7.06203">
        <ele>1861</ele>
        <time>2013-06-09T09:04:59Z</time>
      </trkpt>
      <trkpt lat="44.06809" lon="7.06202">
        <ele>1861</ele>
        <time>2013-06-09T09:05:03Z</time>
      </trkpt>
      <trkpt lat="44.06808" lon="7.06202">
        <ele>1861.1</ele>
        <time>2013-06-09T09:05:07Z</time>
      </trkpt>
      <trkpt lat="44.06808" lon="7.06203">
        <ele>1861.2</ele>
        <time>2013-06-09T09:05:11Z</time>
      </trkpt>
      <trkpt lat="44.06808" lon="7.06203">
        <ele>1861.2</ele>
        <time>2013-06-09T09:05:15Z</time>
      </trkpt>
      <trkpt lat="44.06808" lon="7.06203">
        <ele>1861.2</ele>
        <time>2013-06-09T09:05:19Z</time>
      </trkpt>
      <trkpt lat="44.06808" lon="7.06203">
        <ele>1861.2</ele>
        <time>2013-06-09T09:05:23Z</time>
      </trkpt>
      <trkpt lat="44.06808" lon="7.06203">
        <ele>1861.2</ele>
        <time>2013-06-09T09:05:27Z</time>
      </trkpt>
      <trkpt lat="44.06808" lon="7.06203">
        <ele>1861.2</ele>
        <time>2013-06-09T09:05:31Z</time>
      </trkpt>
      <trkpt lat="44.06808" lon="7.06203">
        <ele>1861.2</ele>
        <time>2013-06-09T09:05:35Z</time>
      </trkpt>
      <trkpt lat="44.06808" lon="7.06203">
        <ele>1861.2</ele>
        <time>2013-06-09T09:05:39Z</time>
      </trkpt>
      <trkpt lat="44.06809" lon="7.06204">
        <ele>1861.2</ele>
        <time>2013-06-09T09:05:43Z</time>
      </trkpt>
      <trkpt lat="44.06809" lon="7.06204">
        <ele>1861.2</ele>
        <time>2013-06-09T09:05:47Z</time>
      </trkpt>
      <trkpt lat="44.06809" lon="7.06203">
        <ele>1861</ele>
        <time>2013-06-09T09:05:51Z</time>
      </trkpt>
      <trkpt lat="44.06809" lon="7.06203">
        <ele>1860.9</ele>
        <time>2013-06-09T09:05:55Z</time>
      </trkpt>
      <trkpt lat="44.0681" lon="7.06203">
        <ele>1860.9</ele>
        <time>2013-06-09T09:05:59Z</time>
      </trkpt>
      <trkpt lat="44.0681" lon="7.06203">
        <ele>1860.9</ele>
        <time>2013-06-09T09:06:03Z</time>
      </trkpt>
      <trkpt lat="44.06809" lon="7.06204">
        <ele>1861.1</ele>
        <time>2013-06-09T09:06:07Z</time>
      </trkpt>
      <trkpt lat="44.0681" lon="7.06206">
        <ele>1861.4</ele>
        <time>2013-06-09T09:06:11Z</time>
      </trkpt>
      <trkpt lat="44.0681" lon="7.06206">
        <ele>1861.4</ele>
        <time>2013-06-09T09:06:15Z</time>
      </trkpt>
      <trkpt lat="44.0681" lon="7.06206">
        <ele>1861.4</ele>
        <time>2013-06-09T09:06:19Z</time>
      </trkpt>
      <trkpt lat="44.0681" lon="7.06207">
        <ele>1861.7</ele>
        <time>2013-06-09T09:06:23Z</time>
      </trkpt>
      <trkpt lat="44.0681" lon="7.06208">
        <ele>1861.7</ele>
        <time>2013-06-09T09:06:27Z</time>
      </trkpt>
      <trkpt lat="44.0681" lon="7.06208">
        <ele>1861.7</ele>
        <time>2013-06-09T09:06:31Z</time>
      </trkpt>
      <trkpt lat="44.0681" lon="7.06208">
        <ele>1861.8</ele>
        <time>2013-06-09T09:06:35Z</time>
      </trkpt>
      <trkpt lat="44.0681" lon="7.06208">
        <ele>1861.9</ele>
        <time>2013-06-09T09:06:39Z</time>
      </trkpt>
      <trkpt lat="44.0681" lon="7.06208">
        <ele>1861.9</ele>
        <time>2013-06-09T09:06:43Z</time>
      </trkpt>
      <trkpt lat="44.0681" lon="7.06208">
        <ele>1861.8</ele>
        <time>2013-06-09T09:06:47Z</time>
      </trkpt>
      <trkpt lat="44.0681" lon="7.06208">
        <ele>1861.8</ele>
        <time>2013-06-09T09:06:51Z</time>
      </trkpt>
      <trkpt lat="44.0681" lon="7.06208">
        <ele>1861.9</ele>
        <time>2013-06-09T09:06:55Z</time>
      </trkpt>
      <trkpt lat="44.0681" lon="7.06208">
        <ele>1861.8</ele>
        <time>2013-06-09T09:06:59Z</time>
      </trkpt>
      <trkpt lat="44.0681" lon="7.0621">
        <ele>1861.8</ele>
        <time>2013-06-09T09:07:03Z</time>
      </trkpt>
      <trkpt lat="44.0681" lon="7.06211">
        <ele>1861.9</ele>
        <time>2013-06-09T09:07:07Z</time>
      </trkpt>
      <trkpt lat="44.0681" lon="7.06211">
        <ele>1861.9</ele>
        <time>2013-06-09T09:07:11Z</time>
      </trkpt>
      <trkpt lat="44.0681" lon="7.06211">
        <ele>1861.8</ele>
        <time>2013-06-09T09:07:15Z</time>
      </trkpt>
      <trkpt lat="44.0681" lon="7.06211">
        <ele>1861.8</ele>
        <time>2013-06-09T09:07:19Z</time>
      </trkpt>
      <trkpt lat="44.0681" lon="7.06211">
        <ele>1861.8</ele>
        <time>2013-06-09T09:07:23Z</time>
      </trkpt>
      <trkpt lat="44.0681" lon="7.06211">
        <ele>1861.8</ele>
        <time>2013-06-09T09:07:27Z</time>
      </trkpt>
      <trkpt lat="44.0681" lon="7.06211">
        <ele>1861.8</ele>
        <time>2013-06-09T09:07:31Z</time>
      </trkpt>
      <trkpt lat="44.0681" lon="7.06211">
        <ele>1861.8</ele>
        <time>2013-06-09T09:07:35Z</time>
      </trkpt>
      <trkpt lat="44.0681" lon="7.06211">
        <ele>1861.8</ele>
        <time>2013-06-09T09:07:39Z</time>
      </trkpt>
      <trkpt lat="44.0681" lon="7.06211">
        <ele>1861.8</ele>
        <time>2013-06-09T09:07:43Z</time>
      </trkpt>
      <trkpt lat="44.0681" lon="7.06211">
        <ele>1861.8</ele>
        <time>2013-06-09T09:07:47Z</time>
      </trkpt>
      <trkpt lat="44.0681" lon="7.06211">
        <ele>1861.8</ele>
        <time>2013-06-09T09:07:51Z</time>
      </trkpt>
      <trkpt lat="44.0681" lon="7.06211">
        <ele>1861.8</ele>
        <time>2013-06-09T09:07:55Z</time>
      </trkpt>
      <trkpt lat="44.0681" lon="7.06211">
        <ele>1861.8</ele>
        <time>2013-06-09T09:07:59Z</time>
      </trkpt>
      <trkpt lat="44.06811" lon="7.06209">
        <ele>1861.6</ele>
        <time>2013-06-09T09:08:03Z</time>
      </trkpt>
      <trkpt lat="44.06811" lon="7.06209">
        <ele>1861.6</ele>
        <time>2013-06-09T09:08:07Z</time>
      </trkpt>
      <trkpt lat="44.06811" lon="7.06209">
        <ele>1861.6</ele>
        <time>2013-06-09T09:08:11Z</time>
      </trkpt>
      <trkpt lat="44.06811" lon="7.0621">
        <ele>1861.6</ele>
        <time>2013-06-09T09:08:15Z</time>
      </trkpt>
      <trkpt lat="44.06811" lon="7.0621">
        <ele>1861.6</ele>
        <time>2013-06-09T09:08:19Z</time>
      </trkpt>
      <trkpt lat="44.06811" lon="7.06211">
        <ele>1861.7</ele>
        <time>2013-06-09T09:08:23Z</time>
      </trkpt>
      <trkpt lat="44.06811" lon="7.06211">
        <ele>1861.7</ele>
        <time>2013-06-09T09:08:27Z</time>
      </trkpt>
      <trkpt lat="44.06811" lon="7.06211">
        <ele>1861.7</ele>
        <time>2013-06-09T09:08:31Z</time>
      </trkpt>
      <trkpt lat="44.06811" lon="7.06211">
        <ele>1861.7</ele>
        <time>2013-06-09T09:08:35Z</time>
      </trkpt>
      <trkpt lat="44.06811" lon="7.06211">
        <ele>1861.7</ele>
        <time>2013-06-09T09:08:39Z</time>
      </trkpt>
      <trkpt lat="44.06811" lon="7.06211">
        <ele>1861.7</ele>
        <time>2013-06-09T09:08:43Z</time>
      </trkpt>
      <trkpt lat="44.06811" lon="7.06211">
        <ele>1861.7</ele>
        <time>2013-06-09T09:08:47Z</time>
      </trkpt>
      <trkpt lat="44.06811" lon="7.06211">
        <ele>1861.7</ele>
        <time>2013-06-09T09:08:51Z</time>
      </trkpt>
      <trkpt lat="44.06811" lon="7.06211">
        <ele>1861.7</ele>
        <time>2013-06-09T09:08:55Z</time>
      </trkpt>
      <trkpt lat="44.06811" lon="7.06211">
        <ele>1861.7</ele>
        <time>2013-06-09T09:08:59Z</time>
      </trkpt>
      <trkpt lat="44.06811" lon="7.06211">
        <ele>1861.7</ele>
        <time>2013-06-09T09:09:03Z</time>
      </trkpt>
      <trkpt lat="44.06811" lon="7.06211">
        <ele>1861.7</ele>
        <time>2013-06-09T09:09:07Z</time>
      </trkpt>
      <trkpt lat="44.06811" lon="7.06211">
        <ele>1861.7</ele>
        <time>2013-06-09T09:09:11Z</time>
      </trkpt>
      <trkpt lat="44.06811" lon="7.06211">
        <ele>1861.7</ele>
        <time>2013-06-09T09:09:15Z</time>
      </trkpt>
      <trkpt lat="44.06811" lon="7.06211">
        <ele>1861.7</ele>
        <time>2013-06-09T09:09:19Z</time>
      </trkpt>
      <trkpt lat="44.06811" lon="7.06211">
        <ele>1861.7</ele>
        <time>2013-06-09T09:09:23Z</time>
      </trkpt>
      <trkpt lat="44.0681" lon="7.06211">
        <ele>1861.8</ele>
        <time>2013-06-09T09:09:27Z</time>
      </trkpt>
      <trkpt lat="44.06811" lon="7.06211">
        <ele>1861.8</ele>
        <time>2013-06-09T09:09:31Z</time>
      </trkpt>
      <trkpt lat="44.0681" lon="7.06211">
        <ele>1861.8</ele>
        <time>2013-06-09T09:09:35Z</time>
      </trkpt>
      <trkpt lat="44.0681" lon="7.06211">
        <ele>1861.8</ele>
        <time>2013-06-09T09:09:39Z</time>
      </trkpt>
      <trkpt lat="44.0681" lon="7.06211">
        <ele>1861.8</ele>
        <time>2013-06-09T09:09:43Z</time>
      </trkpt>
      <trkpt lat="44.0681" lon="7.06211">
        <ele>1861.8</ele>
        <time>2013-06-09T09:09:47Z</time>
      </trkpt>
      <trkpt lat="44.0681" lon="7.06211">
        <ele>1861.8</ele>
        <time>2013-06-09T09:09:51Z</time>
      </trkpt>
      <trkpt lat="44.0681" lon="7.06211">
        <ele>1861.8</ele>
        <time>2013-06-09T09:09:55Z</time>
      </trkpt>
      <trkpt lat="44.0681" lon="7.06211">
        <ele>1861.8</ele>
        <time>2013-06-09T09:09:59Z</time>
      </trkpt>
      <trkpt lat="44.0681" lon="7.06211">
        <ele>1861.8</ele>
        <time>2013-06-09T09:10:03Z</time>
      </trkpt>
      <trkpt lat="44.0681" lon="7.06211">
        <ele>1861.8</ele>
        <time>2013-06-09T09:10:07Z</time>
      </trkpt>
      <trkpt lat="44.0681" lon="7.06211">
        <ele>1861.9</ele>
        <time>2013-06-09T09:10:11Z</time>
      </trkpt>
      <trkpt lat="44.06811" lon="7.0621">
        <ele>1861.8</ele>
        <time>2013-06-09T09:10:15Z</time>
      </trkpt>
      <trkpt lat="44.06812" lon="7.0621">
        <ele>1861.5</ele>
        <time>2013-06-09T09:10:19Z</time>
      </trkpt>
      <trkpt lat="44.06812" lon="7.0621">
        <ele>1861.4</ele>
        <time>2013-06-09T09:10:23Z</time>
      </trkpt>
      <trkpt lat="44.06812" lon="7.0621">
        <ele>1861.5</ele>
        <time>2013-06-09T09:10:27Z</time>
      </trkpt>
      <trkpt lat="44.06812" lon="7.0621">
        <ele>1861.5</ele>
        <time>2013-06-09T09:10:31Z</time>
      </trkpt>
      <trkpt lat="44.06812" lon="7.0621">
        <ele>1861.5</ele>
        <time>2013-06-09T09:10:35Z</time>
      </trkpt>
      <trkpt lat="44.06812" lon="7.0621">
        <ele>1861.5</ele>
        <time>2013-06-09T09:10:39Z</time>
      </trkpt>
      <trkpt lat="44.06812" lon="7.0621">
        <ele>1861.5</ele>
        <time>2013-06-09T09:10:43Z</time>
      </trkpt>
      <trkpt lat="44.06812" lon="7.0621">
        <ele>1861.5</ele>
        <time>2013-06-09T09:10:47Z</time>
      </trkpt>
      <trkpt lat="44.06812" lon="7.0621">
        <ele>1861.5</ele>
        <time>2013-06-09T09:10:51Z</time>
      </trkpt>
      <trkpt lat="44.06812" lon="7.0621">
        <ele>1861.5</ele>
        <time>2013-06-09T09:10:55Z</time>
      </trkpt>
      <trkpt lat="44.06812" lon="7.06208">
        <ele>1861.4</ele>
        <time>2013-06-09T09:10:59Z</time>
      </trkpt>
      <trkpt lat="44.06812" lon="7.06206">
        <ele>1860.8</ele>
        <time>2013-06-09T09:11:03Z</time>
      </trkpt>
      <trkpt lat="44.06812" lon="7.06205">
        <ele>1860.8</ele>
        <time>2013-06-09T09:11:07Z</time>
      </trkpt>
      <trkpt lat="44.06811" lon="7.06205">
        <ele>1860.9</ele>
        <time>2013-06-09T09:11:11Z</time>
      </trkpt>
      <trkpt lat="44.06811" lon="7.06205">
        <ele>1861</ele>
        <time>2013-06-09T09:11:15Z</time>
      </trkpt>
      <trkpt lat="44.06811" lon="7.06207">
        <ele>1861.3</ele>
        <time>2013-06-09T09:11:19Z</time>
      </trkpt>
      <trkpt lat="44.06811" lon="7.06207">
        <ele>1861.4</ele>
        <time>2013-06-09T09:11:23Z</time>
      </trkpt>
      <trkpt lat="44.06811" lon="7.06207">
        <ele>1861.4</ele>
        <time>2013-06-09T09:11:27Z</time>
      </trkpt>
      <trkpt lat="44.06811" lon="7.06207">
        <ele>1861.4</ele>
        <time>2013-06-09T09:11:31Z</time>
      </trkpt>
      <trkpt lat="44.06811" lon="7.06207">
        <ele>1861.4</ele>
        <time>2013-06-09T09:11:35Z</time>
      </trkpt>
      <trkpt lat="44.0681" lon="7.06207">
        <ele>1861.5</ele>
        <time>2013-06-09T09:11:39Z</time>
      </trkpt>
      <trkpt lat="44.0681" lon="7.06207">
        <ele>1861.5</ele>
        <time>2013-06-09T09:11:43Z</time>
      </trkpt>
      <trkpt lat="44.0681" lon="7.06207">
        <ele>1861.4</ele>
        <time>2013-06-09T09:11:47Z</time>
      </trkpt>
      <trkpt lat="44.0681" lon="7.06207">
        <ele>1861.4</ele>
        <time>2013-06-09T09:11:51Z</time>
      </trkpt>
      <trkpt lat="44.0681" lon="7.06207">
        <ele>1861.5</ele>
        <time>2013-06-09T09:11:55Z</time>
      </trkpt>
      <trkpt lat="44.0681" lon="7.06207">
        <ele>1861.5</ele>
        <time>2013-06-09T09:11:59Z</time>
      </trkpt>
      <trkpt lat="44.0681" lon="7.06207">
        <ele>1861.5</ele>
        <time>2013-06-09T09:12:03Z</time>
      </trkpt>
      <trkpt lat="44.06811" lon="7.06207">
        <ele>1861.2</ele>
        <time>2013-06-09T09:12:07Z</time>
      </trkpt>
      <trkpt lat="44.06812" lon="7.06207">
        <ele>1861.2</ele>
        <time>2013-06-09T09:12:11Z</time>
      </trkpt>
      <trkpt lat="44.06813" lon="7.06207">
        <ele>1861</ele>
        <time>2013-06-09T09:12:15Z</time>
      </trkpt>
      <trkpt lat="44.06815" lon="7.06207">
        <ele>1860.4</ele>
        <time>2013-06-09T09:12:19Z</time>
      </trkpt>
      <trkpt lat="44.06816" lon="7.06206">
        <ele>1860</ele>
        <time>2013-06-09T09:12:23Z</time>
      </trkpt>
      <trkpt lat="44.06816" lon="7.06206">
        <ele>1860</ele>
        <time>2013-06-09T09:12:27Z</time>
      </trkpt>
      <trkpt lat="44.06816" lon="7.06205">
        <ele>1859.9</ele>
        <time>2013-06-09T09:12:31Z</time>
      </trkpt>
      <trkpt lat="44.06816" lon="7.06205">
        <ele>1859.8</ele>
        <time>2013-06-09T09:12:35Z</time>
      </trkpt>
      <trkpt lat="44.06816" lon="7.06205">
        <ele>1859.8</ele>
        <time>2013-06-09T09:12:39Z</time>
      </trkpt>
      <trkpt lat="44.06816" lon="7.06205">
        <ele>1859.7</ele>
        <time>2013-06-09T09:12:43Z</time>
      </trkpt>
      <trkpt lat="44.06816" lon="7.06205">
        <ele>1859.7</ele>
        <time>2013-06-09T09:12:47Z</time>
      </trkpt>
      <trkpt lat="44.06816" lon="7.06205">
        <ele>1859.7</ele>
        <time>2013-06-09T09:12:51Z</time>
      </trkpt>
      <trkpt lat="44.06817" lon="7.06205">
        <ele>1859.6</ele>
        <time>2013-06-09T09:12:55Z</time>
      </trkpt>
      <trkpt lat="44.06817" lon="7.06205">
        <ele>1859.5</ele>
        <time>2013-06-09T09:12:59Z</time>
      </trkpt>
      <trkpt lat="44.06817" lon="7.06205">
        <ele>1859.5</ele>
        <time>2013-06-09T09:13:03Z</time>
      </trkpt>
      <trkpt lat="44.06817" lon="7.06207">
        <ele>1859.9</ele>
        <time>2013-06-09T09:13:07Z</time>
      </trkpt>
      <trkpt lat="44.06817" lon="7.06207">
        <ele>1859.9</ele>
        <time>2013-06-09T09:13:11Z</time>
      </trkpt>
      <trkpt lat="44.06818" lon="7.06205">
        <ele>1859.3</ele>
        <time>2013-06-09T09:13:15Z</time>
      </trkpt>
      <trkpt lat="44.06818" lon="7.06204">
        <ele>1859</ele>
        <time>2013-06-09T09:13:19Z</time>
      </trkpt>
      <trkpt lat="44.06818" lon="7.06204">
        <ele>1859</ele>
        <time>2013-06-09T09:13:23Z</time>
      </trkpt>
      <trkpt lat="44.06818" lon="7.06203">
        <ele>1859</ele>
        <time>2013-06-09T09:13:27Z</time>
      </trkpt>
      <trkpt lat="44.06818" lon="7.06204">
        <ele>1859.1</ele>
        <time>2013-06-09T09:13:31Z</time>
      </trkpt>
      <trkpt lat="44.06818" lon="7.06203">
        <ele>1858.9</ele>
        <time>2013-06-09T09:13:35Z</time>
      </trkpt>
      <trkpt lat="44.06818" lon="7.06203">
        <ele>1859</ele>
        <time>2013-06-09T09:13:39Z</time>
      </trkpt>
      <trkpt lat="44.06818" lon="7.06204">
        <ele>1859.1</ele>
        <time>2013-06-09T09:13:43Z</time>
      </trkpt>
      <trkpt lat="44.06818" lon="7.06203">
        <ele>1859.1</ele>
        <time>2013-06-09T09:13:47Z</time>
      </trkpt>
      <trkpt lat="44.06818" lon="7.06203">
        <ele>1859</ele>
        <time>2013-06-09T09:13:51Z</time>
      </trkpt>
      <trkpt lat="44.06818" lon="7.06203">
        <ele>1858.9</ele>
        <time>2013-06-09T09:13:55Z</time>
      </trkpt>
      <trkpt lat="44.06817" lon="7.06203">
        <ele>1859.1</ele>
        <time>2013-06-09T09:13:59Z</time>
      </trkpt>
      <trkpt lat="44.06815" lon="7.06204">
        <ele>1859.7</ele>
        <time>2013-06-09T09:14:03Z</time>
      </trkpt>
      <trkpt lat="44.06814" lon="7.06204">
        <ele>1860.3</ele>
        <time>2013-06-09T09:14:07Z</time>
      </trkpt>
      <trkpt lat="44.06811" lon="7.06207">
        <ele>1861.4</ele>
        <time>2013-06-09T09:14:11Z</time>
      </trkpt>
      <trkpt lat="44.06809" lon="7.06209">
        <ele>1862.1</ele>
        <time>2013-06-09T09:14:15Z</time>
      </trkpt>
      <trkpt lat="44.06809" lon="7.06209">
        <ele>1862</ele>
        <time>2013-06-09T09:14:19Z</time>
      </trkpt>
      <trkpt lat="44.06809" lon="7.06209">
        <ele>1862</ele>
        <time>2013-06-09T09:14:23Z</time>
      </trkpt>
      <trkpt lat="44.06809" lon="7.06209">
        <ele>1862</ele>
        <time>2013-06-09T09:14:27Z</time>
      </trkpt>
      <trkpt lat="44.06809" lon="7.06209">
        <ele>1862</ele>
        <time>2013-06-09T09:14:31Z</time>
      </trkpt>
      <trkpt lat="44.06809" lon="7.06209">
        <ele>1862.1</ele>
        <time>2013-06-09T09:14:35Z</time>
      </trkpt>
      <trkpt lat="44.06809" lon="7.06209">
        <ele>1862.1</ele>
        <time>2013-06-09T09:14:39Z</time>
      </trkpt>
      <trkpt lat="44.06809" lon="7.06209">
        <ele>1862.1</ele>
        <time>2013-06-09T09:14:43Z</time>
      </trkpt>
      <trkpt lat="44.06809" lon="7.06209">
        <ele>1862.1</ele>
        <time>2013-06-09T09:14:47Z</time>
      </trkpt>
      <trkpt lat="44.06809" lon="7.06211">
        <ele>1862.1</ele>
        <time>2013-06-09T09:14:51Z</time>
      </trkpt>
      <trkpt lat="44.06808" lon="7.06212">
        <ele>1862.3</ele>
        <time>2013-06-09T09:14:55Z</time>
      </trkpt>
      <trkpt lat="44.06809" lon="7.06213">
        <ele>1862.3</ele>
        <time>2013-06-09T09:14:59Z</time>
      </trkpt>
      <trkpt lat="44.06809" lon="7.06214">
        <ele>1862.3</ele>
        <time>2013-06-09T09:15:03Z</time>
      </trkpt>
      <trkpt lat="44.06809" lon="7.06215">
        <ele>1862.3</ele>
        <time>2013-06-09T09:15:07Z</time>
      </trkpt>
      <trkpt lat="44.06807" lon="7.06216">
        <ele>1862.6</ele>
        <time>2013-06-09T09:15:11Z</time>
      </trkpt>
      <trkpt lat="44.06805" lon="7.06221">
        <ele>1863.2</ele>
        <time>2013-06-09T09:15:15Z</time>
      </trkpt>
      <trkpt lat="44.06803" lon="7.06227">
        <ele>1863.5</ele>
        <time>2013-06-09T09:15:19Z</time>
      </trkpt>
      <trkpt lat="44.06802" lon="7.06233">
        <ele>1863.8</ele>
        <time>2013-06-09T09:15:23Z</time>
      </trkpt>
      <trkpt lat="44.06805" lon="7.06242">
        <ele>1863.5</ele>
        <time>2013-06-09T09:15:27Z</time>
      </trkpt>
      <trkpt lat="44.06807" lon="7.06248">
        <ele>1863.3</ele>
        <time>2013-06-09T09:15:31Z</time>
      </trkpt>
      <trkpt lat="44.06808" lon="7.06253">
        <ele>1863.2</ele>
        <time>2013-06-09T09:15:35Z</time>
      </trkpt>
      <trkpt lat="44.06806" lon="7.06257">
        <ele>1863.6</ele>
        <time>2013-06-09T09:15:39Z</time>
      </trkpt>
      <trkpt lat="44.06807" lon="7.06257">
        <ele>1863.5</ele>
        <time>2013-06-09T09:15:43Z</time>
      </trkpt>
      <trkpt lat="44.06807" lon="7.06257">
        <ele>1863.5</ele>
        <time>2013-06-09T09:15:47Z</time>
      </trkpt>
      <trkpt lat="44.06806" lon="7.06257">
        <ele>1863.5</ele>
        <time>2013-06-09T09:15:51Z</time>
      </trkpt>
      <trkpt lat="44.06806" lon="7.06257">
        <ele>1863.5</ele>
        <time>2013-06-09T09:15:55Z</time>
      </trkpt>
      <trkpt lat="44.06807" lon="7.06257">
        <ele>1863.5</ele>
        <time>2013-06-09T09:15:59Z</time>
      </trkpt>
      <trkpt lat="44.06807" lon="7.06257">
        <ele>1863.5</ele>
        <time>2013-06-09T09:16:03Z</time>
      </trkpt>
      <trkpt lat="44.06807" lon="7.06257">
        <ele>1863.5</ele>
        <time>2013-06-09T09:16:07Z</time>
      </trkpt>
      <trkpt lat="44.06807" lon="7.06257">
        <ele>1863.5</ele>
        <time>2013-06-09T09:16:11Z</time>
      </trkpt>
      <trkpt lat="44.06807" lon="7.06257">
        <ele>1863.5</ele>
        <time>2013-06-09T09:16:15Z</time>
      </trkpt>
      <trkpt lat="44.06807" lon="7.06257">
        <ele>1863.5</ele>
        <time>2013-06-09T09:16:19Z</time>
      </trkpt>
      <trkpt lat="44.06807" lon="7.06257">
        <ele>1863.5</ele>
        <time>2013-06-09T09:16:23Z</time>
      </trkpt>
      <trkpt lat="44.06807" lon="7.06257">
        <ele>1863.5</ele>
        <time>2013-06-09T09:16:27Z</time>
      </trkpt>
      <trkpt lat="44.06807" lon="7.06257">
        <ele>1863.5</ele>
        <time>2013-06-09T09:16:31Z</time>
      </trkpt>
      <trkpt lat="44.06807" lon="7.06257">
        <ele>1863.5</ele>
        <time>2013-06-09T09:16:35Z</time>
      </trkpt>
      <trkpt lat="44.06807" lon="7.06257">
        <ele>1863.5</ele>
        <time>2013-06-09T09:16:39Z</time>
      </trkpt>
      <trkpt lat="44.06807" lon="7.06257">
        <ele>1863.5</ele>
        <time>2013-06-09T09:16:43Z</time>
      </trkpt>
      <trkpt lat="44.06807" lon="7.06257">
        <ele>1863.5</ele>
        <time>2013-06-09T09:16:47Z</time>
      </trkpt>
      <trkpt lat="44.06807" lon="7.06257">
        <ele>1863.5</ele>
        <time>2013-06-09T09:16:51Z</time>
      </trkpt>
      <trkpt lat="44.06806" lon="7.06257">
        <ele>1863.5</ele>
        <time>2013-06-09T09:16:55Z</time>
      </trkpt>
      <trkpt lat="44.06806" lon="7.06257">
        <ele>1863.5</ele>
        <time>2013-06-09T09:16:59Z</time>
      </trkpt>
      <trkpt lat="44.06806" lon="7.06257">
        <ele>1863.5</ele>
        <time>2013-06-09T09:17:03Z</time>
      </trkpt>
      <trkpt lat="44.06806" lon="7.06257">
        <ele>1863.5</ele>
        <time>2013-06-09T09:17:07Z</time>
      </trkpt>
      <trkpt lat="44.06806" lon="7.06257">
        <ele>1863.5</ele>
        <time>2013-06-09T09:17:11Z</time>
      </trkpt>
      <trkpt lat="44.06806" lon="7.06257">
        <ele>1863.5</ele>
        <time>2013-06-09T09:17:15Z</time>
      </trkpt>
      <trkpt lat="44.06806" lon="7.06257">
        <ele>1863.5</ele>
        <time>2013-06-09T09:17:19Z</time>
      </trkpt>
      <trkpt lat="44.06806" lon="7.06257">
        <ele>1863.5</ele>
        <time>2013-06-09T09:17:23Z</time>
      </trkpt>
      <trkpt lat="44.06806" lon="7.06257">
        <ele>1863.5</ele>
        <time>2013-06-09T09:17:27Z</time>
      </trkpt>
      <trkpt lat="44.06806" lon="7.06257">
        <ele>1863.5</ele>
        <time>2013-06-09T09:17:31Z</time>
      </trkpt>
      <trkpt lat="44.06806" lon="7.06257">
        <ele>1863.5</ele>
        <time>2013-06-09T09:17:35Z</time>
      </trkpt>
      <trkpt lat="44.06806" lon="7.06257">
        <ele>1863.5</ele>
        <time>2013-06-09T09:17:39Z</time>
      </trkpt>
      <trkpt lat="44.06806" lon="7.06257">
        <ele>1863.5</ele>
        <time>2013-06-09T09:17:43Z</time>
      </trkpt>
      <trkpt lat="44.06806" lon="7.06257">
        <ele>1863.5</ele>
        <time>2013-06-09T09:17:47Z</time>
      </trkpt>
      <trkpt lat="44.06806" lon="7.06257">
        <ele>1863.5</ele>
        <time>2013-06-09T09:17:51Z</time>
      </trkpt>
      <trkpt lat="44.06806" lon="7.06257">
        <ele>1863.5</ele>
        <time>2013-06-09T09:17:55Z</time>
      </trkpt>
      <trkpt lat="44.06806" lon="7.06257">
        <ele>1863.5</ele>
        <time>2013-06-09T09:17:59Z</time>
      </trkpt>
      <trkpt lat="44.06806" lon="7.06257">
        <ele>1863.5</ele>
        <time>2013-06-09T09:18:03Z</time>
      </trkpt>
      <trkpt lat="44.06806" lon="7.06257">
        <ele>1863.5</ele>
        <time>2013-06-09T09:18:07Z</time>
      </trkpt>
      <trkpt lat="44.06806" lon="7.06257">
        <ele>1863.5</ele>
        <time>2013-06-09T09:18:11Z</time>
      </trkpt>
      <trkpt lat="44.06806" lon="7.06257">
        <ele>1863.5</ele>
        <time>2013-06-09T09:18:15Z</time>
      </trkpt>
      <trkpt lat="44.06806" lon="7.06257">
        <ele>1863.5</ele>
        <time>2013-06-09T09:18:19Z</time>
      </trkpt>
      <trkpt lat="44.06806" lon="7.06257">
        <ele>1863.5</ele>
        <time>2013-06-09T09:18:23Z</time>
      </trkpt>
      <trkpt lat="44.06806" lon="7.06257">
        <ele>1863.5</ele>
        <time>2013-06-09T09:18:27Z</time>
      </trkpt>
      <trkpt lat="44.06806" lon="7.06257">
        <ele>1863.5</ele>
        <time>2013-06-09T09:18:31Z</time>
      </trkpt>
      <trkpt lat="44.06806" lon="7.06257">
        <ele>1863.5</ele>
        <time>2013-06-09T09:18:35Z</time>
      </trkpt>
      <trkpt lat="44.06806" lon="7.06257">
        <ele>1863.5</ele>
        <time>2013-06-09T09:18:39Z</time>
      </trkpt>
      <trkpt lat="44.06806" lon="7.06257">
        <ele>1863.5</ele>
        <time>2013-06-09T09:18:43Z</time>
      </trkpt>
      <trkpt lat="44.06806" lon="7.06257">
        <ele>1863.5</ele>
        <time>2013-06-09T09:18:47Z</time>
      </trkpt>
      <trkpt lat="44.06806" lon="7.06257">
        <ele>1863.5</ele>
        <time>2013-06-09T09:18:51Z</time>
      </trkpt>
      <trkpt lat="44.06806" lon="7.06257">
        <ele>1863.5</ele>
        <time>2013-06-09T09:18:55Z</time>
      </trkpt>
      <trkpt lat="44.06806" lon="7.06257">
        <ele>1863.5</ele>
        <time>2013-06-09T09:18:59Z</time>
      </trkpt>
      <trkpt lat="44.06806" lon="7.06257">
        <ele>1863.5</ele>
        <time>2013-06-09T09:19:03Z</time>
      </trkpt>
      <trkpt lat="44.06806" lon="7.06257">
        <ele>1863.5</ele>
        <time>2013-06-09T09:19:07Z</time>
      </trkpt>
      <trkpt lat="44.06807" lon="7.06254">
        <ele>1863.4</ele>
        <time>2013-06-09T09:19:11Z</time>
      </trkpt>
      <trkpt lat="44.06807" lon="7.06247">
        <ele>1863.2</ele>
        <time>2013-06-09T09:19:15Z</time>
      </trkpt>
      <trkpt lat="44.06807" lon="7.0624">
        <ele>1863</ele>
        <time>2013-06-09T09:19:19Z</time>
      </trkpt>
      <trkpt lat="44.06809" lon="7.06235">
        <ele>1862.7</ele>
        <time>2013-06-09T09:19:23Z</time>
      </trkpt>
      <trkpt lat="44.06811" lon="7.06231">
        <ele>1862.2</ele>
        <time>2013-06-09T09:19:27Z</time>
      </trkpt>
      <trkpt lat="44.06811" lon="7.06233">
        <ele>1862.3</ele>
        <time>2013-06-09T09:19:31Z</time>
      </trkpt>
      <trkpt lat="44.06811" lon="7.06233">
        <ele>1862.2</ele>
        <time>2013-06-09T09:19:35Z</time>
      </trkpt>
      <trkpt lat="44.06812" lon="7.06232">
        <ele>1862</ele>
        <time>2013-06-09T09:19:39Z</time>
      </trkpt>
      <trkpt lat="44.06813" lon="7.06231">
        <ele>1861.9</ele>
        <time>2013-06-09T09:19:43Z</time>
      </trkpt>
      <trkpt lat="44.06813" lon="7.06231">
        <ele>1861.9</ele>
        <time>2013-06-09T09:19:47Z</time>
      </trkpt>
      <trkpt lat="44.06813" lon="7.06231">
        <ele>1861.9</ele>
        <time>2013-06-09T09:19:51Z</time>
      </trkpt>
      <trkpt lat="44.06813" lon="7.06231">
        <ele>1861.9</ele>
        <time>2013-06-09T09:19:55Z</time>
      </trkpt>
      <trkpt lat="44.06812" lon="7.0623">
        <ele>1861.9</ele>
        <time>2013-06-09T09:19:59Z</time>
      </trkpt>
      <trkpt lat="44.06812" lon="7.06229">
        <ele>1862</ele>
        <time>2013-06-09T09:20:03Z</time>
      </trkpt>
      <trkpt lat="44.06812" lon="7.06229">
        <ele>1862</ele>
        <time>2013-06-09T09:20:07Z</time>
      </trkpt>
      <trkpt lat="44.06812" lon="7.06229">
        <ele>1862</ele>
        <time>2013-06-09T09:20:11Z</time>
      </trkpt>
      <trkpt lat="44.06812" lon="7.06227">
        <ele>1861.9</ele>
        <time>2013-06-09T09:20:15Z</time>
      </trkpt>
      <trkpt lat="44.06812" lon="7.06226">
        <ele>1861.9</ele>
        <time>2013-06-09T09:20:19Z</time>
      </trkpt>
      <trkpt lat="44.06812" lon="7.06226">
        <ele>1861.9</ele>
        <time>2013-06-09T09:20:23Z</time>
      </trkpt>
      <trkpt lat="44.06812" lon="7.06226">
        <ele>1861.9</ele>
        <time>2013-06-09T09:20:27Z</time>
      </trkpt>
      <trkpt lat="44.06812" lon="7.06226">
        <ele>1861.9</ele>
        <time>2013-06-09T09:20:31Z</time>
      </trkpt>
      <trkpt lat="44.06811" lon="7.06223">
        <ele>1862</ele>
        <time>2013-06-09T09:20:35Z</time>
      </trkpt>
      <trkpt lat="44.06809" lon="7.0622">
        <ele>1862.3</ele>
        <time>2013-06-09T09:20:39Z</time>
      </trkpt>
      <trkpt lat="44.06808" lon="7.06219">
        <ele>1862.5</ele>
        <time>2013-06-09T09:20:43Z</time>
      </trkpt>
      <trkpt lat="44.06808" lon="7.06219">
        <ele>1862.5</ele>
        <time>2013-06-09T09:20:47Z</time>
      </trkpt>
      <trkpt lat="44.06808" lon="7.06219">
        <ele>1862.4</ele>
        <time>2013-06-09T09:20:51Z</time>
      </trkpt>
      <trkpt lat="44.06808" lon="7.06218">
        <ele>1862.4</ele>
        <time>2013-06-09T09:20:55Z</time>
      </trkpt>
      <trkpt lat="44.06808" lon="7.06219">
        <ele>1862.4</ele>
        <time>2013-06-09T09:20:59Z</time>
      </trkpt>
      <trkpt lat="44.06808" lon="7.06218">
        <ele>1862.4</ele>
        <time>2013-06-09T09:21:03Z</time>
      </trkpt>
      <trkpt lat="44.06808" lon="7.06217">
        <ele>1862.5</ele>
        <time>2013-06-09T09:21:07Z</time>
      </trkpt>
      <trkpt lat="44.06808" lon="7.06213">
        <ele>1862.3</ele>
        <time>2013-06-09T09:21:11Z</time>
      </trkpt>
      <trkpt lat="44.06811" lon="7.06215">
        <ele>1861.8</ele>
        <time>2013-06-09T09:21:15Z</time>
      </trkpt>
      <trkpt lat="44.06813" lon="7.06219">
        <ele>1861.5</ele>
        <time>2013-06-09T09:21:19Z</time>
      </trkpt>
      <trkpt lat="44.06813" lon="7.06228">
        <ele>1861.7</ele>
        <time>2013-06-09T09:21:23Z</time>
      </trkpt>
      <trkpt lat="44.06814" lon="7.06246">
        <ele>1862.2</ele>
        <time>2013-06-09T09:21:27Z</time>
      </trkpt>
      <trkpt lat="44.06813" lon="7.06275">
        <ele>1863.2</ele>
        <time>2013-06-09T09:21:31Z</time>
      </trkpt>
      <trkpt lat="44.06805" lon="7.06299">
        <ele>1863.1</ele>
        <time>2013-06-09T09:21:35Z</time>
      </trkpt>
      <trkpt lat="44.06787" lon="7.0633">
        <ele>1858.3</ele>
        <time>2013-06-09T09:21:39Z</time>
      </trkpt>
      <trkpt lat="44.06786" lon="7.06358">
        <ele>1853.4</ele>
        <time>2013-06-09T09:21:43Z</time>
      </trkpt>
      <trkpt lat="44.06797" lon="7.06386">
        <ele>1849.2</ele>
        <time>2013-06-09T09:21:47Z</time>
      </trkpt>
      <trkpt lat="44.06794" lon="7.06409">
        <ele>1845.4</ele>
        <time>2013-06-09T09:21:51Z</time>
      </trkpt>
      <trkpt lat="44.06776" lon="7.06427">
        <ele>1843.1</ele>
        <time>2013-06-09T09:21:55Z</time>
      </trkpt>
      <trkpt lat="44.06789" lon="7.06461">
        <ele>1837.8</ele>
        <time>2013-06-09T09:21:59Z</time>
      </trkpt>
      <trkpt lat="44.06794" lon="7.06495">
        <ele>1834.6</ele>
        <time>2013-06-09T09:22:03Z</time>
      </trkpt>
      <trkpt lat="44.06799" lon="7.06538">
        <ele>1831</ele>
        <time>2013-06-09T09:22:07Z</time>
      </trkpt>
      <trkpt lat="44.06807" lon="7.0658">
        <ele>1827.1</ele>
        <time>2013-06-09T09:22:11Z</time>
      </trkpt>
      <trkpt lat="44.06815" lon="7.06624">
        <ele>1822.9</ele>
        <time>2013-06-09T09:22:15Z</time>
      </trkpt>
      <trkpt lat="44.06829" lon="7.06659">
        <ele>1819.2</ele>
        <time>2013-06-09T09:22:19Z</time>
      </trkpt>
      <trkpt lat="44.06833" lon="7.06675">
        <ele>1816.9</ele>
        <time>2013-06-09T09:22:23Z</time>
      </trkpt>
      <trkpt lat="44.06834" lon="7.06681">
        <ele>1815.8</ele>
        <time>2013-06-09T09:22:27Z</time>
      </trkpt>
      <trkpt lat="44.06839" lon="7.06691">
        <ele>1814.4</ele>
        <time>2013-06-09T09:22:31Z</time>
      </trkpt>
      <trkpt lat="44.06845" lon="7.067">
        <ele>1812.9</ele>
        <time>2013-06-09T09:22:35Z</time>
      </trkpt>
      <trkpt lat="44.06853" lon="7.06711">
        <ele>1811</ele>
        <time>2013-06-09T09:22:39Z</time>
      </trkpt>
      <trkpt lat="44.06861" lon="7.06724">
        <ele>1808.4</ele>
        <time>2013-06-09T09:22:43Z</time>
      </trkpt>
      <trkpt lat="44.06872" lon="7.06738">
        <ele>1805.2</ele>
        <time>2013-06-09T09:22:47Z</time>
      </trkpt>
      <trkpt lat="44.0688" lon="7.0675">
        <ele>1803.3</ele>
        <time>2013-06-09T09:22:51Z</time>
      </trkpt>
      <trkpt lat="44.0689" lon="7.06761">
        <ele>1802.9</ele>
        <time>2013-06-09T09:22:55Z</time>
      </trkpt>
      <trkpt lat="44.06903" lon="7.06774">
        <ele>1802.1</ele>
        <time>2013-06-09T09:22:59Z</time>
      </trkpt>
      <trkpt lat="44.06915" lon="7.06785">
        <ele>1801.4</ele>
        <time>2013-06-09T09:23:03Z</time>
      </trkpt>
      <trkpt lat="44.06924" lon="7.06797">
        <ele>1799.4</ele>
        <time>2013-06-09T09:23:07Z</time>
      </trkpt>
      <trkpt lat="44.06931" lon="7.06802">
        <ele>1799.3</ele>
        <time>2013-06-09T09:23:11Z</time>
      </trkpt>
      <trkpt lat="44.06934" lon="7.06805">
        <ele>1799.1</ele>
        <time>2013-06-09T09:23:15Z</time>
      </trkpt>
      <trkpt lat="44.06937" lon="7.06807">
        <ele>1799.1</ele>
        <time>2013-06-09T09:23:19Z</time>
      </trkpt>
      <trkpt lat="44.0694" lon="7.0681">
        <ele>1798.7</ele>
        <time>2013-06-09T09:23:23Z</time>
      </trkpt>
      <trkpt lat="44.06947" lon="7.06816">
        <ele>1798.1</ele>
        <time>2013-06-09T09:23:27Z</time>
      </trkpt>
      <trkpt lat="44.06956" lon="7.0682">
        <ele>1798.6</ele>
        <time>2013-06-09T09:23:31Z</time>
      </trkpt>
      <trkpt lat="44.06966" lon="7.06823">
        <ele>1799.1</ele>
        <time>2013-06-09T09:23:35Z</time>
      </trkpt>
      <trkpt lat="44.06977" lon="7.06829">
        <ele>1799</ele>
        <time>2013-06-09T09:23:39Z</time>
      </trkpt>
      <trkpt lat="44.06986" lon="7.06841">
        <ele>1796.7</ele>
        <time>2013-06-09T09:23:43Z</time>
      </trkpt>
      <trkpt lat="44.06988" lon="7.06863">
        <ele>1790.1</ele>
        <time>2013-06-09T09:23:47Z</time>
      </trkpt>
      <trkpt lat="44.06985" lon="7.06883">
        <ele>1784.3</ele>
        <time>2013-06-09T09:23:51Z</time>
      </trkpt>
      <trkpt lat="44.06982" lon="7.06902">
        <ele>1780.2</ele>
        <time>2013-06-09T09:23:55Z</time>
      </trkpt>
      <trkpt lat="44.0698" lon="7.06917">
        <ele>1776.7</ele>
        <time>2013-06-09T09:23:59Z</time>
      </trkpt>
      <trkpt lat="44.06976" lon="7.06943">
        <ele>1770.8</ele>
        <time>2013-06-09T09:24:03Z</time>
      </trkpt>
      <trkpt lat="44.06971" lon="7.06962">
        <ele>1766.7</ele>
        <time>2013-06-09T09:24:07Z</time>
      </trkpt>
      <trkpt lat="44.06958" lon="7.0698">
        <ele>1764.2</ele>
        <time>2013-06-09T09:24:11Z</time>
      </trkpt>
      <trkpt lat="44.06945" lon="7.07005">
        <ele>1760.9</ele>
        <time>2013-06-09T09:24:15Z</time>
      </trkpt>
      <trkpt lat="44.06932" lon="7.07031">
        <ele>1756.3</ele>
        <time>2013-06-09T09:24:19Z</time>
      </trkpt>
      <trkpt lat="44.06924" lon="7.07059">
        <ele>1752.8</ele>
        <time>2013-06-09T09:24:23Z</time>
      </trkpt>
      <trkpt lat="44.06919" lon="7.07085">
        <ele>1750.9</ele>
        <time>2013-06-09T09:24:27Z</time>
      </trkpt>
      <trkpt lat="44.06915" lon="7.0711">
        <ele>1749.1</ele>
        <time>2013-06-09T09:24:31Z</time>
      </trkpt>
      <trkpt lat="44.06912" lon="7.07136">
        <ele>1746.6</ele>
        <time>2013-06-09T09:24:35Z</time>
      </trkpt>
      <trkpt lat="44.06907" lon="7.07157">
        <ele>1742.6</ele>
        <time>2013-06-09T09:24:39Z</time>
      </trkpt>
      <trkpt lat="44.06897" lon="7.07174">
        <ele>1737.7</ele>
        <time>2013-06-09T09:24:43Z</time>
      </trkpt>
      <trkpt lat="44.06896" lon="7.07196">
        <ele>1735.5</ele>
        <time>2013-06-09T09:24:47Z</time>
      </trkpt>
      <trkpt lat="44.06895" lon="7.07213">
        <ele>1733.9</ele>
        <time>2013-06-09T09:24:51Z</time>
      </trkpt>
      <trkpt lat="44.06891" lon="7.07233">
        <ele>1730.7</ele>
        <time>2013-06-09T09:24:55Z</time>
      </trkpt>
      <trkpt lat="44.06896" lon="7.07262">
        <ele>1728.8</ele>
        <time>2013-06-09T09:24:59Z</time>
      </trkpt>
      <trkpt lat="44.06895" lon="7.07277">
        <ele>1727.1</ele>
        <time>2013-06-09T09:25:03Z</time>
      </trkpt>
      <trkpt lat="44.06895" lon="7.07299">
        <ele>1724.5</ele>
        <time>2013-06-09T09:25:07Z</time>
      </trkpt>
      <trkpt lat="44.06895" lon="7.07323">
        <ele>1720.7</ele>
        <time>2013-06-09T09:25:11Z</time>
      </trkpt>
      <trkpt lat="44.06897" lon="7.07349">
        <ele>1716.9</ele>
        <time>2013-06-09T09:25:15Z</time>
      </trkpt>
      <trkpt lat="44.069" lon="7.0738">
        <ele>1712.6</ele>
        <time>2013-06-09T09:25:19Z</time>
      </trkpt>
      <trkpt lat="44.06903" lon="7.07402">
        <ele>1709.6</ele>
        <time>2013-06-09T09:25:23Z</time>
      </trkpt>
      <trkpt lat="44.06895" lon="7.0741">
        <ele>1706.5</ele>
        <time>2013-06-09T09:25:27Z</time>
      </trkpt>
      <trkpt lat="44.06886" lon="7.07414">
        <ele>1703.8</ele>
        <time>2013-06-09T09:25:31Z</time>
      </trkpt>
      <trkpt lat="44.06879" lon="7.07429">
        <ele>1699.5</ele>
        <time>2013-06-09T09:25:35Z</time>
      </trkpt>
      <trkpt lat="44.06874" lon="7.07456">
        <ele>1693.1</ele>
        <time>2013-06-09T09:25:39Z</time>
      </trkpt>
      <trkpt lat="44.06874" lon="7.07483">
        <ele>1688.1</ele>
        <time>2013-06-09T09:25:43Z</time>
      </trkpt>
      <trkpt lat="44.06872" lon="7.07499">
        <ele>1684.5</ele>
        <time>2013-06-09T09:25:47Z</time>
      </trkpt>
      <trkpt lat="44.06863" lon="7.07498">
        <ele>1681.1</ele>
        <time>2013-06-09T09:25:51Z</time>
      </trkpt>
      <trkpt lat="44.06852" lon="7.07499">
        <ele>1676.2</ele>
        <time>2013-06-09T09:25:55Z</time>
      </trkpt>
      <trkpt lat="44.06837" lon="7.07497">
        <ele>1670.1</ele>
        <time>2013-06-09T09:25:59Z</time>
      </trkpt>
      <trkpt lat="44.06824" lon="7.07494">
        <ele>1665</ele>
        <time>2013-06-09T09:26:03Z</time>
      </trkpt>
      <trkpt lat="44.06815" lon="7.07486">
        <ele>1662.3</ele>
        <time>2013-06-09T09:26:07Z</time>
      </trkpt>
      <trkpt lat="44.06812" lon="7.07498">
        <ele>1659.5</ele>
        <time>2013-06-09T09:26:11Z</time>
      </trkpt>
      <trkpt lat="44.0681" lon="7.07513">
        <ele>1657.4</ele>
        <time>2013-06-09T09:26:15Z</time>
      </trkpt>
      <trkpt lat="44.06799" lon="7.07515">
        <ele>1652.9</ele>
        <time>2013-06-09T09:26:19Z</time>
      </trkpt>
      <trkpt lat="44.06787" lon="7.07517">
        <ele>1648.1</ele>
        <time>2013-06-09T09:26:23Z</time>
      </trkpt>
      <trkpt lat="44.06769" lon="7.07532">
        <ele>1641.5</ele>
        <time>2013-06-09T09:26:27Z</time>
      </trkpt>
      <trkpt lat="44.06751" lon="7.07542">
        <ele>1635.7</ele>
        <time>2013-06-09T09:26:31Z</time>
      </trkpt>
      <trkpt lat="44.06739" lon="7.07537">
        <ele>1632.2</ele>
        <time>2013-06-09T09:26:35Z</time>
      </trkpt>
      <trkpt lat="44.0673" lon="7.07533">
        <ele>1629.3</ele>
        <time>2013-06-09T09:26:39Z</time>
      </trkpt>
      <trkpt lat="44.06702" lon="7.07541">
        <ele>1620.5</ele>
        <time>2013-06-09T09:26:43Z</time>
      </trkpt>
      <trkpt lat="44.06677" lon="7.07537">
        <ele>1610.9</ele>
        <time>2013-06-09T09:26:47Z</time>
      </trkpt>
      <trkpt lat="44.06659" lon="7.07554">
        <ele>1604.2</ele>
        <time>2013-06-09T09:26:51Z</time>
      </trkpt>
      <trkpt lat="44.06651" lon="7.07572">
        <ele>1600.2</ele>
        <time>2013-06-09T09:26:55Z</time>
      </trkpt>
      <trkpt lat="44.06659" lon="7.07595">
        <ele>1602.1</ele>
        <time>2013-06-09T09:26:59Z</time>
      </trkpt>
      <trkpt lat="44.06665" lon="7.07623">
        <ele>1603</ele>
        <time>2013-06-09T09:27:03Z</time>
      </trkpt>
      <trkpt lat="44.06674" lon="7.07642">
        <ele>1601.9</ele>
        <time>2013-06-09T09:27:07Z</time>
      </trkpt>
      <trkpt lat="44.06687" lon="7.07658">
        <ele>1602.3</ele>
        <time>2013-06-09T09:27:11Z</time>
      </trkpt>
      <trkpt lat="44.06706" lon="7.07674">
        <ele>1605.2</ele>
        <time>2013-06-09T09:27:15Z</time>
      </trkpt>
      <trkpt lat="44.06723" lon="7.07683">
        <ele>1606.3</ele>
        <time>2013-06-09T09:27:19Z</time>
      </trkpt>
      <trkpt lat="44.06733" lon="7.07698">
        <ele>1604.3</ele>
        <time>2013-06-09T09:27:23Z</time>
      </trkpt>
      <trkpt lat="44.06746" lon="7.07715">
        <ele>1600.8</ele>
        <time>2013-06-09T09:27:27Z</time>
      </trkpt>
      <trkpt lat="44.06752" lon="7.0773">
        <ele>1595.3</ele>
        <time>2013-06-09T09:27:31Z</time>
      </trkpt>
      <trkpt lat="44.0676" lon="7.07746">
        <ele>1589.5</ele>
        <time>2013-06-09T09:27:35Z</time>
      </trkpt>
      <trkpt lat="44.06769" lon="7.07766">
        <ele>1582.7</ele>
        <time>2013-06-09T09:27:39Z</time>
      </trkpt>
      <trkpt lat="44.06774" lon="7.07778">
        <ele>1578.8</ele>
        <time>2013-06-09T09:27:43Z</time>
      </trkpt>
      <trkpt lat="44.06779" lon="7.07785">
        <ele>1576.8</ele>
        <time>2013-06-09T09:27:47Z</time>
      </trkpt>
      <trkpt lat="44.06786" lon="7.07793">
        <ele>1575.1</ele>
        <time>2013-06-09T09:27:51Z</time>
      </trkpt>
      <trkpt lat="44.06796" lon="7.07814">
        <ele>1569.3</ele>
        <time>2013-06-09T09:27:55Z</time>
      </trkpt>
      <trkpt lat="44.06805" lon="7.07833">
        <ele>1565.2</ele>
        <time>2013-06-09T09:27:59Z</time>
      </trkpt>
      <trkpt lat="44.0681" lon="7.07849">
        <ele>1560.7</ele>
        <time>2013-06-09T09:28:03Z</time>
      </trkpt>
      <trkpt lat="44.06813" lon="7.07864">
        <ele>1555.8</ele>
        <time>2013-06-09T09:28:07Z</time>
      </trkpt>
      <trkpt lat="44.06813" lon="7.07881">
        <ele>1549.8</ele>
        <time>2013-06-09T09:28:11Z</time>
      </trkpt>
      <trkpt lat="44.06822" lon="7.07911">
        <ele>1543.3</ele>
        <time>2013-06-09T09:28:15Z</time>
      </trkpt>
      <trkpt lat="44.06832" lon="7.07938">
        <ele>1538.9</ele>
        <time>2013-06-09T09:28:19Z</time>
      </trkpt>
      <trkpt lat="44.06842" lon="7.07966">
        <ele>1534.7</ele>
        <time>2013-06-09T09:28:23Z</time>
      </trkpt>
      <trkpt lat="44.06854" lon="7.07988">
        <ele>1534</ele>
        <time>2013-06-09T09:28:27Z</time>
      </trkpt>
      <trkpt lat="44.0685" lon="7.07977">
        <ele>1535.3</ele>
        <time>2013-06-09T09:28:31Z</time>
      </trkpt>
      <trkpt lat="44.06852" lon="7.07984">
        <ele>1534.5</ele>
        <time>2013-06-09T09:28:35Z</time>
      </trkpt>
      <trkpt lat="44.06856" lon="7.07992">
        <ele>1533.7</ele>
        <time>2013-06-09T09:28:39Z</time>
      </trkpt>
      <trkpt lat="44.06858" lon="7.08005">
        <ele>1531.1</ele>
        <time>2013-06-09T09:28:43Z</time>
      </trkpt>
      <trkpt lat="44.06868" lon="7.08027">
        <ele>1529.2</ele>
        <time>2013-06-09T09:28:47Z</time>
      </trkpt>
      <trkpt lat="44.0687" lon="7.0805">
        <ele>1524.7</ele>
        <time>2013-06-09T09:28:51Z</time>
      </trkpt>
      <trkpt lat="44.06878" lon="7.0808">
        <ele>1522.7</ele>
        <time>2013-06-09T09:28:55Z</time>
      </trkpt>
      <trkpt lat="44.06873" lon="7.08093">
        <ele>1519</ele>
        <time>2013-06-09T09:28:59Z</time>
      </trkpt>
      <trkpt lat="44.06854" lon="7.08094">
        <ele>1511.6</ele>
        <time>2013-06-09T09:29:03Z</time>
      </trkpt>
      <trkpt lat="44.06845" lon="7.081">
        <ele>1507.2</ele>
        <time>2013-06-09T09:29:07Z</time>
      </trkpt>
      <trkpt lat="44.06835" lon="7.0812">
        <ele>1500.8</ele>
        <time>2013-06-09T09:29:11Z</time>
      </trkpt>
      <trkpt lat="44.06826" lon="7.08133">
        <ele>1495.6</ele>
        <time>2013-06-09T09:29:15Z</time>
      </trkpt>
      <trkpt lat="44.06816" lon="7.0816">
        <ele>1488</ele>
        <time>2013-06-09T09:29:19Z</time>
      </trkpt>
      <trkpt lat="44.06821" lon="7.0818">
        <ele>1486.4</ele>
        <time>2013-06-09T09:29:23Z</time>
      </trkpt>
      <trkpt lat="44.06834" lon="7.08178">
        <ele>1490.9</ele>
        <time>2013-06-09T09:29:27Z</time>
      </trkpt>
      <trkpt lat="44.06847" lon="7.08182">
        <ele>1494.1</ele>
        <time>2013-06-09T09:29:31Z</time>
      </trkpt>
      <trkpt lat="44.06856" lon="7.08186">
        <ele>1496.1</ele>
        <time>2013-06-09T09:29:35Z</time>
      </trkpt>
      <trkpt lat="44.06864" lon="7.08194">
        <ele>1496.7</ele>
        <time>2013-06-09T09:29:39Z</time>
      </trkpt>
      <trkpt lat="44.06866" lon="7.08208">
        <ele>1494.7</ele>
        <time>2013-06-09T09:29:43Z</time>
      </trkpt>
      <trkpt lat="44.06868" lon="7.08222">
        <ele>1490.4</ele>
        <time>2013-06-09T09:29:47Z</time>
      </trkpt>
      <trkpt lat="44.06864" lon="7.08245">
        <ele>1481.1</ele>
        <time>2013-06-09T09:29:51Z</time>
      </trkpt>
      <trkpt lat="44.06873" lon="7.08271">
        <ele>1474.6</ele>
        <time>2013-06-09T09:29:55Z</time>
      </trkpt>
      <trkpt lat="44.06882" lon="7.08293">
        <ele>1469.1</ele>
        <time>2013-06-09T09:29:59Z</time>
      </trkpt>
      <trkpt lat="44.06893" lon="7.08312">
        <ele>1465.4</ele>
        <time>2013-06-09T09:30:03Z</time>
      </trkpt>
      <trkpt lat="44.06905" lon="7.08335">
        <ele>1460.6</ele>
        <time>2013-06-09T09:30:07Z</time>
      </trkpt>
      <trkpt lat="44.06921" lon="7.08348">
        <ele>1460.9</ele>
        <time>2013-06-09T09:30:11Z</time>
      </trkpt>
      <trkpt lat="44.06942" lon="7.08366">
        <ele>1461.4</ele>
        <time>2013-06-09T09:30:15Z</time>
      </trkpt>
      <trkpt lat="44.06952" lon="7.08386">
        <ele>1457</ele>
        <time>2013-06-09T09:30:19Z</time>
      </trkpt>
      <trkpt lat="44.06964" lon="7.08405">
        <ele>1450.6</ele>
        <time>2013-06-09T09:30:23Z</time>
      </trkpt>
      <trkpt lat="44.06989" lon="7.08411">
        <ele>1450</ele>
        <time>2013-06-09T09:30:27Z</time>
      </trkpt>
      <trkpt lat="44.07007" lon="7.08428">
        <ele>1444</ele>
        <time>2013-06-09T09:30:31Z</time>
      </trkpt>
      <trkpt lat="44.0702" lon="7.08444">
        <ele>1437.5</ele>
        <time>2013-06-09T09:30:35Z</time>
      </trkpt>
      <trkpt lat="44.07035" lon="7.08469">
        <ele>1428.4</ele>
        <time>2013-06-09T09:30:39Z</time>
      </trkpt>
      <trkpt lat="44.07054" lon="7.08486">
        <ele>1423.2</ele>
        <time>2013-06-09T09:30:43Z</time>
      </trkpt>
      <trkpt lat="44.07069" lon="7.08504">
        <ele>1416.9</ele>
        <time>2013-06-09T09:30:47Z</time>
      </trkpt>
      <trkpt lat="44.0708" lon="7.08518">
        <ele>1411.6</ele>
        <time>2013-06-09T09:30:51Z</time>
      </trkpt>
      <trkpt lat="44.07094" lon="7.08526">
        <ele>1408.7</ele>
        <time>2013-06-09T09:30:55Z</time>
      </trkpt>
      <trkpt lat="44.07091" lon="7.08547">
        <ele>1400.6</ele>
        <time>2013-06-09T09:30:59Z</time>
      </trkpt>
      <trkpt lat="44.07081" lon="7.08553">
        <ele>1397.6</ele>
        <time>2013-06-09T09:31:03Z</time>
      </trkpt>
      <trkpt lat="44.07073" lon="7.08572">
        <ele>1389.4</ele>
        <time>2013-06-09T09:31:07Z</time>
      </trkpt>
      <trkpt lat="44.07068" lon="7.08584">
        <ele>1383.6</ele>
        <time>2013-06-09T09:31:11Z</time>
      </trkpt>
      <trkpt lat="44.07058" lon="7.08597">
        <ele>1377.3</ele>
        <time>2013-06-09T09:31:15Z</time>
      </trkpt>
      <trkpt lat="44.07051" lon="7.08608">
        <ele>1371.7</ele>
        <time>2013-06-09T09:31:19Z</time>
      </trkpt>
      <trkpt lat="44.07051" lon="7.08627">
        <ele>1363.2</ele>
        <time>2013-06-09T09:31:23Z</time>
      </trkpt>
      <trkpt lat="44.07042" lon="7.08637">
        <ele>1358.6</ele>
        <time>2013-06-09T09:31:27Z</time>
      </trkpt>
      <trkpt lat="44.07045" lon="7.08654">
        <ele>1352.1</ele>
        <time>2013-06-09T09:31:31Z</time>
      </trkpt>
      <trkpt lat="44.07042" lon="7.08671">
        <ele>1345.4</ele>
        <time>2013-06-09T09:31:35Z</time>
      </trkpt>
      <trkpt lat="44.07033" lon="7.0867">
        <ele>1344.2</ele>
        <time>2013-06-09T09:31:39Z</time>
      </trkpt>
      <trkpt lat="44.0702" lon="7.08669">
        <ele>1342.6</ele>
        <time>2013-06-09T09:31:43Z</time>
      </trkpt>
      <trkpt lat="44.07014" lon="7.0866">
        <ele>1344.8</ele>
        <time>2013-06-09T09:31:47Z</time>
      </trkpt>
      <trkpt lat="44.07" lon="7.08662">
        <ele>1341.7</ele>
        <time>2013-06-09T09:31:51Z</time>
      </trkpt>
      <trkpt lat="44.06986" lon="7.0866">
        <ele>1340.2</ele>
        <time>2013-06-09T09:31:55Z</time>
      </trkpt>
      <trkpt lat="44.06981" lon="7.08669">
        <ele>1335.2</ele>
        <time>2013-06-09T09:31:59Z</time>
      </trkpt>
      <trkpt lat="44.06975" lon="7.08673">
        <ele>1332.7</ele>
        <time>2013-06-09T09:32:03Z</time>
      </trkpt>
      <trkpt lat="44.06966" lon="7.08675">
        <ele>1329.8</ele>
        <time>2013-06-09T09:32:07Z</time>
      </trkpt>
      <trkpt lat="44.06955" lon="7.0868">
        <ele>1325.4</ele>
        <time>2013-06-09T09:32:11Z</time>
      </trkpt>
      <trkpt lat="44.06953" lon="7.08679">
        <ele>1325.3</ele>
        <time>2013-06-09T09:32:15Z</time>
      </trkpt>
      <trkpt lat="44.06957" lon="7.08693">
        <ele>1319.7</ele>
        <time>2013-06-09T09:32:19Z</time>
      </trkpt>
      <trkpt lat="44.06965" lon="7.08713">
        <ele>1312.9</ele>
        <time>2013-06-09T09:32:23Z</time>
      </trkpt>
      <trkpt lat="44.06978" lon="7.08718">
        <ele>1313.7</ele>
        <time>2013-06-09T09:32:27Z</time>
      </trkpt>
      <trkpt lat="44.06994" lon="7.08737">
        <ele>1309.8</ele>
        <time>2013-06-09T09:32:31Z</time>
      </trkpt>
      <trkpt lat="44.07009" lon="7.08761">
        <ele>1304.6</ele>
        <time>2013-06-09T09:32:35Z</time>
      </trkpt>
      <trkpt lat="44.07022" lon="7.08779">
        <ele>1300.3</ele>
        <time>2013-06-09T09:32:40Z</time>
      </trkpt>
      <trkpt lat="44.07024" lon="7.08792">
        <ele>1295.8</ele>
        <time>2013-06-09T09:32:43Z</time>
      </trkpt>
      <trkpt lat="44.07026" lon="7.08783">
        <ele>1300</ele>
        <time>2013-06-09T09:32:48Z</time>
      </trkpt>
      <trkpt lat="44.07026" lon="7.08783">
        <ele>1300.1</ele>
        <time>2013-06-09T09:32:51Z</time>
      </trkpt>
      <trkpt lat="44.07025" lon="7.08785">
        <ele>1299.1</ele>
        <time>2013-06-09T09:32:56Z</time>
      </trkpt>
      <trkpt lat="44.07023" lon="7.08789">
        <ele>1296.9</ele>
        <time>2013-06-09T09:32:59Z</time>
      </trkpt>
      <trkpt lat="44.07022" lon="7.0879">
        <ele>1296.3</ele>
        <time>2013-06-09T09:33:03Z</time>
      </trkpt>
      <trkpt lat="44.07023" lon="7.08796">
        <ele>1293.9</ele>
        <time>2013-06-09T09:33:08Z</time>
      </trkpt>
      <trkpt lat="44.07031" lon="7.08813">
        <ele>1287.3</ele>
        <time>2013-06-09T09:33:12Z</time>
      </trkpt>
      <trkpt lat="44.07038" lon="7.08831">
        <ele>1279.5</ele>
        <time>2013-06-09T09:33:15Z</time>
      </trkpt>
      <trkpt lat="44.07048" lon="7.08841">
        <ele>1275.3</ele>
        <time>2013-06-09T09:33:20Z</time>
      </trkpt>
      <trkpt lat="44.0706" lon="7.08834">
        <ele>1279.2</ele>
        <time>2013-06-09T09:33:23Z</time>
      </trkpt>
      <trkpt lat="44.0707" lon="7.08831">
        <ele>1280.8</ele>
        <time>2013-06-09T09:33:28Z</time>
      </trkpt>
      <trkpt lat="44.07079" lon="7.08825">
        <ele>1283.5</ele>
        <time>2013-06-09T09:33:31Z</time>
      </trkpt>
      <trkpt lat="44.07093" lon="7.08818">
        <ele>1287.1</ele>
        <time>2013-06-09T09:33:36Z</time>
      </trkpt>
      <trkpt lat="44.07114" lon="7.08827">
        <ele>1283</ele>
        <time>2013-06-09T09:33:40Z</time>
      </trkpt>
      <trkpt lat="44.07146" lon="7.08846">
        <ele>1271.9</ele>
        <time>2013-06-09T09:33:44Z</time>
      </trkpt>
      <trkpt lat="44.07165" lon="7.08846">
        <ele>1268.9</ele>
        <time>2013-06-09T09:33:48Z</time>
      </trkpt>
      <trkpt lat="44.07179" lon="7.0884">
        <ele>1269.5</ele>
        <time>2013-06-09T09:33:52Z</time>
      </trkpt>
      <trkpt lat="44.07201" lon="7.08835">
        <ele>1268.5</ele>
        <time>2013-06-09T09:33:56Z</time>
      </trkpt>
      <trkpt lat="44.0722" lon="7.08823">
        <ele>1269.4</ele>
        <time>2013-06-09T09:34:00Z</time>
      </trkpt>
      <trkpt lat="44.07235" lon="7.08813">
        <ele>1269.7</ele>
        <time>2013-06-09T09:34:04Z</time>
      </trkpt>
      <trkpt lat="44.07255" lon="7.08801">
        <ele>1269</ele>
        <time>2013-06-09T09:34:08Z</time>
      </trkpt>
      <trkpt lat="44.07279" lon="7.08781">
        <ele>1270.7</ele>
        <time>2013-06-09T09:34:12Z</time>
      </trkpt>
      <trkpt lat="44.07294" lon="7.08772">
        <ele>1270.1</ele>
        <time>2013-06-09T09:34:16Z</time>
      </trkpt>
      <trkpt lat="44.07303" lon="7.08768">
        <ele>1269.2</ele>
        <time>2013-06-09T09:34:20Z</time>
      </trkpt>
      <trkpt lat="44.0731" lon="7.08764">
        <ele>1268.4</ele>
        <time>2013-06-09T09:34:24Z</time>
      </trkpt>
      <trkpt lat="44.07324" lon="7.08772">
        <ele>1261.4</ele>
        <time>2013-06-09T09:34:28Z</time>
      </trkpt>
      <trkpt lat="44.07353" lon="7.08791">
        <ele>1245.6</ele>
        <time>2013-06-09T09:34:32Z</time>
      </trkpt>
      <trkpt lat="44.07374" lon="7.08804">
        <ele>1234.4</ele>
        <time>2013-06-09T09:34:36Z</time>
      </trkpt>
      <trkpt lat="44.07384" lon="7.08816">
        <ele>1228</ele>
        <time>2013-06-09T09:34:40Z</time>
      </trkpt>
      <trkpt lat="44.07392" lon="7.08824">
        <ele>1223.9</ele>
        <time>2013-06-09T09:34:44Z</time>
      </trkpt>
      <trkpt lat="44.07388" lon="7.08832">
        <ele>1221</ele>
        <time>2013-06-09T09:34:48Z</time>
      </trkpt>
      <trkpt lat="44.07382" lon="7.08837">
        <ele>1219.5</ele>
        <time>2013-06-09T09:34:52Z</time>
      </trkpt>
      <trkpt lat="44.07387" lon="7.08846">
        <ele>1215.1</ele>
        <time>2013-06-09T09:34:56Z</time>
      </trkpt>
      <trkpt lat="44.07385" lon="7.08855">
        <ele>1212.1</ele>
        <time>2013-06-09T09:35:00Z</time>
      </trkpt>
      <trkpt lat="44.07379" lon="7.08865">
        <ele>1208.6</ele>
        <time>2013-06-09T09:35:04Z</time>
      </trkpt>
      <trkpt lat="44.07388" lon="7.08872">
        <ele>1204.7</ele>
        <time>2013-06-09T09:35:08Z</time>
      </trkpt>
      <trkpt lat="44.07395" lon="7.08874">
        <ele>1202.9</ele>
        <time>2013-06-09T09:35:12Z</time>
      </trkpt>
      <trkpt lat="44.07413" lon="7.08878">
        <ele>1198.9</ele>
        <time>2013-06-09T09:35:16Z</time>
      </trkpt>
      <trkpt lat="44.07435" lon="7.08908">
        <ele>1186.9</ele>
        <time>2013-06-09T09:35:20Z</time>
      </trkpt>
      <trkpt lat="44.07449" lon="7.08945">
        <ele>1174</ele>
        <time>2013-06-09T09:35:24Z</time>
      </trkpt>
      <trkpt lat="44.0744" lon="7.08962">
        <ele>1169.8</ele>
        <time>2013-06-09T09:35:28Z</time>
      </trkpt>
      <trkpt lat="44.07431" lon="7.08981">
        <ele>1164.9</ele>
        <time>2013-06-09T09:35:32Z</time>
      </trkpt>
      <trkpt lat="44.07424" lon="7.08998">
        <ele>1160.1</ele>
        <time>2013-06-09T09:35:36Z</time>
      </trkpt>
      <trkpt lat="44.07421" lon="7.09023">
        <ele>1152.8</ele>
        <time>2013-06-09T09:35:40Z</time>
      </trkpt>
      <trkpt lat="44.07421" lon="7.09043">
        <ele>1146.4</ele>
        <time>2013-06-09T09:35:44Z</time>
      </trkpt>
      <trkpt lat="44.07428" lon="7.09076">
        <ele>1136.1</ele>
        <time>2013-06-09T09:35:48Z</time>
      </trkpt>
      <trkpt lat="44.07426" lon="7.09121">
        <ele>1122</ele>
        <time>2013-06-09T09:35:52Z</time>
      </trkpt>
      <trkpt lat="44.07422" lon="7.09155">
        <ele>1114.5</ele>
        <time>2013-06-09T09:35:56Z</time>
      </trkpt>
      <trkpt lat="44.07406" lon="7.09186">
        <ele>1107.8</ele>
        <time>2013-06-09T09:36:00Z</time>
      </trkpt>
      <trkpt lat="44.07385" lon="7.09191">
        <ele>1106.5</ele>
        <time>2013-06-09T09:36:04Z</time>
      </trkpt>
      <trkpt lat="44.07365" lon="7.09186">
        <ele>1106.1</ele>
        <time>2013-06-09T09:36:08Z</time>
      </trkpt>
      <trkpt lat="44.07349" lon="7.0918">
        <ele>1105.5</ele>
        <time>2013-06-09T09:36:12Z</time>
      </trkpt>
      <trkpt lat="44.07338" lon="7.09178">
        <ele>1104.8</ele>
        <time>2013-06-09T09:36:16Z</time>
      </trkpt>
      <trkpt lat="44.07331" lon="7.09179">
        <ele>1103.8</ele>
        <time>2013-06-09T09:36:20Z</time>
      </trkpt>
      <trkpt lat="44.07325" lon="7.0918">
        <ele>1102.9</ele>
        <time>2013-06-09T09:36:24Z</time>
      </trkpt>
      <trkpt lat="44.07318" lon="7.09187">
        <ele>1100.2</ele>
        <time>2013-06-09T09:36:28Z</time>
      </trkpt>
      <trkpt lat="44.07306" lon="7.09195">
        <ele>1096.8</ele>
        <time>2013-06-09T09:36:32Z</time>
      </trkpt>
      <trkpt lat="44.07293" lon="7.09194">
        <ele>1095.3</ele>
        <time>2013-06-09T09:36:36Z</time>
      </trkpt>
      <trkpt lat="44.07281" lon="7.09191">
        <ele>1093.8</ele>
        <time>2013-06-09T09:36:40Z</time>
      </trkpt>
      <trkpt lat="44.07266" lon="7.09206">
        <ele>1083.9</ele>
        <time>2013-06-09T09:36:44Z</time>
      </trkpt>
      <trkpt lat="44.07261" lon="7.09231">
        <ele>1075.3</ele>
        <time>2013-06-09T09:36:48Z</time>
      </trkpt>
      <trkpt lat="44.07261" lon="7.09266">
        <ele>1066.3</ele>
        <time>2013-06-09T09:36:52Z</time>
      </trkpt>
      <trkpt lat="44.07265" lon="7.0928">
        <ele>1064.8</ele>
        <time>2013-06-09T09:36:56Z</time>
      </trkpt>
      <trkpt lat="44.07267" lon="7.09283">
        <ele>1064.9</ele>
        <time>2013-06-09T09:37:00Z</time>
      </trkpt>
      <trkpt lat="44.07269" lon="7.09294">
        <ele>1063</ele>
        <time>2013-06-09T09:37:04Z</time>
      </trkpt>
      <trkpt lat="44.07274" lon="7.09311">
        <ele>1060.4</ele>
        <time>2013-06-09T09:37:08Z</time>
      </trkpt>
      <trkpt lat="44.07281" lon="7.0933">
        <ele>1058.2</ele>
        <time>2013-06-09T09:37:12Z</time>
      </trkpt>
      <trkpt lat="44.07272" lon="7.09344">
        <ele>1049.2</ele>
        <time>2013-06-09T09:37:16Z</time>
      </trkpt>
      <trkpt lat="44.07265" lon="7.09358">
        <ele>1041.4</ele>
        <time>2013-06-09T09:37:20Z</time>
      </trkpt>
      <trkpt lat="44.07259" lon="7.09362">
        <ele>1037.1</ele>
        <time>2013-06-09T09:37:24Z</time>
      </trkpt>
      <trkpt lat="44.07256" lon="7.09382">
        <ele>1030.3</ele>
        <time>2013-06-09T09:37:28Z</time>
      </trkpt>
      <trkpt lat="44.07251" lon="7.09404">
        <ele>1023.1</ele>
        <time>2013-06-09T09:37:32Z</time>
      </trkpt>
      <trkpt lat="44.07245" lon="7.09407">
        <ele>1019.8</ele>
        <time>2013-06-09T09:37:36Z</time>
      </trkpt>
      <trkpt lat="44.07236" lon="7.0939">
        <ele>1018.2</ele>
        <time>2013-06-09T09:37:40Z</time>
      </trkpt>
      <trkpt lat="44.07225" lon="7.09374">
        <ele>1016</ele>
        <time>2013-06-09T09:37:44Z</time>
      </trkpt>
      <trkpt lat="44.07218" lon="7.09378">
        <ele>1011.5</ele>
        <time>2013-06-09T09:37:48Z</time>
      </trkpt>
      <trkpt lat="44.07216" lon="7.09391">
        <ele>1008.1</ele>
        <time>2013-06-09T09:37:52Z</time>
      </trkpt>
      <trkpt lat="44.07213" lon="7.09395">
        <ele>1006.2</ele>
        <time>2013-06-09T09:37:56Z</time>
      </trkpt>
      <trkpt lat="44.07211" lon="7.09402">
        <ele>1003.6</ele>
        <time>2013-06-09T09:38:00Z</time>
      </trkpt>
      <trkpt lat="44.07207" lon="7.09416">
        <ele>999.5</ele>
        <time>2013-06-09T09:38:04Z</time>
      </trkpt>
      <trkpt lat="44.07198" lon="7.09426">
        <ele>994.1</ele>
        <time>2013-06-09T09:38:08Z</time>
      </trkpt>
      <trkpt lat="44.0719" lon="7.09431">
        <ele>989.3</ele>
        <time>2013-06-09T09:38:12Z</time>
      </trkpt>
      <trkpt lat="44.0719" lon="7.09446">
        <ele>986</ele>
        <time>2013-06-09T09:38:16Z</time>
      </trkpt>
      <trkpt lat="44.07185" lon="7.09457">
        <ele>981.2</ele>
        <time>2013-06-09T09:38:20Z</time>
      </trkpt>
      <trkpt lat="44.07186" lon="7.09472">
        <ele>978.2</ele>
        <time>2013-06-09T09:38:24Z</time>
      </trkpt>
      <trkpt lat="44.07183" lon="7.09476">
        <ele>976.1</ele>
        <time>2013-06-09T09:38:28Z</time>
      </trkpt>
      <trkpt lat="44.07183" lon="7.09485">
        <ele>974</ele>
        <time>2013-06-09T09:38:32Z</time>
      </trkpt>
      <trkpt lat="44.07182" lon="7.09516">
        <ele>966.8</ele>
        <time>2013-06-09T09:38:36Z</time>
      </trkpt>
      <trkpt lat="44.07186" lon="7.09552">
        <ele>960.8</ele>
        <time>2013-06-09T09:38:40Z</time>
      </trkpt>
      <trkpt lat="44.07188" lon="7.09558">
        <ele>960.7</ele>
        <time>2013-06-09T09:38:44Z</time>
      </trkpt>
      <trkpt lat="44.07191" lon="7.09588">
        <ele>954.7</ele>
        <time>2013-06-09T09:38:48Z</time>
      </trkpt>
      <trkpt lat="44.07194" lon="7.09605">
        <ele>951.8</ele>
        <time>2013-06-09T09:38:52Z</time>
      </trkpt>
      <trkpt lat="44.07193" lon="7.09623">
        <ele>946.3</ele>
        <time>2013-06-09T09:38:56Z</time>
      </trkpt>
      <trkpt lat="44.07192" lon="7.09638">
        <ele>942.1</ele>
        <time>2013-06-09T09:39:00Z</time>
      </trkpt>
      <trkpt lat="44.07186" lon="7.09646">
        <ele>937</ele>
        <time>2013-06-09T09:39:04Z</time>
      </trkpt>
      <trkpt lat="44.07184" lon="7.09654">
        <ele>934.2</ele>
        <time>2013-06-09T09:39:08Z</time>
      </trkpt>
      <trkpt lat="44.07191" lon="7.09671">
        <ele>934.4</ele>
        <time>2013-06-09T09:39:12Z</time>
      </trkpt>
      <trkpt lat="44.07184" lon="7.09678">
        <ele>929</ele>
        <time>2013-06-09T09:39:16Z</time>
      </trkpt>
      <trkpt lat="44.07183" lon="7.09689">
        <ele>926</ele>
        <time>2013-06-09T09:39:20Z</time>
      </trkpt>
      <trkpt lat="44.07188" lon="7.09703">
        <ele>926.1</ele>
        <time>2013-06-09T09:39:24Z</time>
      </trkpt>
      <trkpt lat="44.07186" lon="7.09714">
        <ele>922.2</ele>
        <time>2013-06-09T09:39:27Z</time>
      </trkpt>
      <trkpt lat="44.07184" lon="7.09722">
        <ele>919.3</ele>
        <time>2013-06-09T09:39:31Z</time>
      </trkpt>
      <trkpt lat="44.07184" lon="7.09725">
        <ele>919</ele>
        <time>2013-06-09T09:39:35Z</time>
      </trkpt>
      <trkpt lat="44.07186" lon="7.09723">
        <ele>919.9</ele>
        <time>2013-06-09T09:39:39Z</time>
      </trkpt>
      <trkpt lat="44.07186" lon="7.09723">
        <ele>920</ele>
        <time>2013-06-09T09:39:43Z</time>
      </trkpt>
      <trkpt lat="44.07186" lon="7.09723">
        <ele>920</ele>
        <time>2013-06-09T09:39:48Z</time>
      </trkpt>
      <trkpt lat="44.07186" lon="7.09723">
        <ele>920</ele>
        <time>2013-06-09T09:39:52Z</time>
      </trkpt>
      <trkpt lat="44.07186" lon="7.09723">
        <ele>920</ele>
        <time>2013-06-09T09:39:56Z</time>
      </trkpt>
      <trkpt lat="44.07186" lon="7.09723">
        <ele>920</ele>
        <time>2013-06-09T09:40:00Z</time>
      </trkpt>
      <trkpt lat="44.07186" lon="7.09723">
        <ele>920</ele>
        <time>2013-06-09T09:40:04Z</time>
      </trkpt>
      <trkpt lat="44.07186" lon="7.09725">
        <ele>919.5</ele>
        <time>2013-06-09T09:40:08Z</time>
      </trkpt>
      <trkpt lat="44.07183" lon="7.09742">
        <ele>913.9</ele>
        <time>2013-06-09T09:40:11Z</time>
      </trkpt>
      <trkpt lat="44.07161" lon="7.09738">
        <ele>903.5</ele>
        <time>2013-06-09T09:40:16Z</time>
      </trkpt>
      <trkpt lat="44.07146" lon="7.09736">
        <ele>896.3</ele>
        <time>2013-06-09T09:40:20Z</time>
      </trkpt>
      <trkpt lat="44.07138" lon="7.09725">
        <ele>894.3</ele>
        <time>2013-06-09T09:40:23Z</time>
      </trkpt>
      <trkpt lat="44.0713" lon="7.09719">
        <ele>890.9</ele>
        <time>2013-06-09T09:40:28Z</time>
      </trkpt>
      <trkpt lat="44.07127" lon="7.09724">
        <ele>888.5</ele>
        <time>2013-06-09T09:40:32Z</time>
      </trkpt>
      <trkpt lat="44.07124" lon="7.09727">
        <ele>886.2</ele>
        <time>2013-06-09T09:40:36Z</time>
      </trkpt>
      <trkpt lat="44.07116" lon="7.09717">
        <ele>883.4</ele>
        <time>2013-06-09T09:40:40Z</time>
      </trkpt>
      <trkpt lat="44.0711" lon="7.0972">
        <ele>879.2</ele>
        <time>2013-06-09T09:40:43Z</time>
      </trkpt>
      <trkpt lat="44.07108" lon="7.0973">
        <ele>876.1</ele>
        <time>2013-06-09T09:40:48Z</time>
      </trkpt>
      <trkpt lat="44.07105" lon="7.09738">
        <ele>873</ele>
        <time>2013-06-09T09:40:52Z</time>
      </trkpt>
      <trkpt lat="44.07101" lon="7.09743">
        <ele>869.8</ele>
        <time>2013-06-09T09:40:56Z</time>
      </trkpt>
      <trkpt lat="44.07096" lon="7.09733">
        <ele>868.6</ele>
        <time>2013-06-09T09:41:00Z</time>
      </trkpt>
      <trkpt lat="44.07092" lon="7.0972">
        <ele>868.3</ele>
        <time>2013-06-09T09:41:03Z</time>
      </trkpt>
      <trkpt lat="44.07088" lon="7.09707">
        <ele>867.8</ele>
        <time>2013-06-09T09:41:08Z</time>
      </trkpt>
      <trkpt lat="44.07083" lon="7.09702">
        <ele>866.1</ele>
        <time>2013-06-09T09:41:12Z</time>
      </trkpt>
      <trkpt lat="44.07081" lon="7.09707">
        <ele>864.1</ele>
        <time>2013-06-09T09:41:15Z</time>
      </trkpt>
      <trkpt lat="44.07081" lon="7.09722">
        <ele>861.4</ele>
        <time>2013-06-09T09:41:20Z</time>
      </trkpt>
      <trkpt lat="44.0708" lon="7.09738">
        <ele>858.3</ele>
        <time>2013-06-09T09:41:23Z</time>
      </trkpt>
      <trkpt lat="44.07082" lon="7.09754">
        <ele>857.3</ele>
        <time>2013-06-09T09:41:27Z</time>
      </trkpt>
      <trkpt lat="44.07092" lon="7.09778">
        <ele>858.9</ele>
        <time>2013-06-09T09:41:32Z</time>
      </trkpt>
      <trkpt lat="44.07095" lon="7.09799">
        <ele>857.7</ele>
        <time>2013-06-09T09:41:36Z</time>
      </trkpt>
      <trkpt lat="44.07093" lon="7.09823">
        <ele>852</ele>
        <time>2013-06-09T09:41:40Z</time>
      </trkpt>
      <trkpt lat="44.07089" lon="7.09843">
        <ele>846.2</ele>
        <time>2013-06-09T09:41:43Z</time>
      </trkpt>
      <trkpt lat="44.07087" lon="7.09857">
        <ele>842.6</ele>
        <time>2013-06-09T09:41:48Z</time>
      </trkpt>
      <trkpt lat="44.07088" lon="7.09873">
        <ele>840.7</ele>
        <time>2013-06-09T09:41:52Z</time>
      </trkpt>
      <trkpt lat="44.07099" lon="7.09905">
        <ele>841.6</ele>
        <time>2013-06-09T09:41:56Z</time>
      </trkpt>
      <trkpt lat="44.07106" lon="7.09918">
        <ele>843.5</ele>
        <time>2013-06-09T09:42:00Z</time>
      </trkpt>
      <trkpt lat="44.07099" lon="7.09915">
        <ele>839.7</ele>
        <time>2013-06-09T09:42:03Z</time>
      </trkpt>
      <trkpt lat="44.07096" lon="7.0992">
        <ele>836.9</ele>
        <time>2013-06-09T09:42:08Z</time>
      </trkpt>
      <trkpt lat="44.07099" lon="7.09934">
        <ele>835.8</ele>
        <time>2013-06-09T09:42:11Z</time>
      </trkpt>
      <trkpt lat="44.07109" lon="7.09956">
        <ele>837.9</ele>
        <time>2013-06-09T09:42:15Z</time>
      </trkpt>
      <trkpt lat="44.07114" lon="7.0998">
        <ele>835.2</ele>
        <time>2013-06-09T09:42:20Z</time>
      </trkpt>
      <trkpt lat="44.07121" lon="7.10004">
        <ele>833.8</ele>
        <time>2013-06-09T09:42:23Z</time>
      </trkpt>
      <trkpt lat="44.07131" lon="7.10025">
        <ele>833.4</ele>
        <time>2013-06-09T09:42:28Z</time>
      </trkpt>
      <trkpt lat="44.07151" lon="7.10043">
        <ele>837.2</ele>
        <time>2013-06-09T09:42:32Z</time>
      </trkpt>
      <trkpt lat="44.07166" lon="7.10053">
        <ele>841.1</ele>
        <time>2013-06-09T09:42:36Z</time>
      </trkpt>
      <trkpt lat="44.07173" lon="7.10053">
        <ele>843.6</ele>
        <time>2013-06-09T09:42:40Z</time>
      </trkpt>
      <trkpt lat="44.07167" lon="7.10069">
        <ele>837.4</ele>
        <time>2013-06-09T09:42:44Z</time>
      </trkpt>
      <trkpt lat="44.07167" lon="7.10094">
        <ele>831.2</ele>
        <time>2013-06-09T09:42:48Z</time>
      </trkpt>
      <trkpt lat="44.07173" lon="7.1013">
        <ele>824.7</ele>
        <time>2013-06-09T09:42:51Z</time>
      </trkpt>
      <trkpt lat="44.07185" lon="7.10126">
        <ele>831.6</ele>
        <time>2013-06-09T09:42:56Z</time>
      </trkpt>
      <trkpt lat="44.07194" lon="7.10123">
        <ele>836.2</ele>
        <time>2013-06-09T09:42:59Z</time>
      </trkpt>
      <trkpt lat="44.07201" lon="7.10128">
        <ele>838.1</ele>
        <time>2013-06-09T09:43:04Z</time>
      </trkpt>
      <trkpt lat="44.07196" lon="7.10134">
        <ele>834</ele>
        <time>2013-06-09T09:43:08Z</time>
      </trkpt>
      <trkpt lat="44.07176" lon="7.1015">
        <ele>820.2</ele>
        <time>2013-06-09T09:43:11Z</time>
      </trkpt>
      <trkpt lat="44.07166" lon="7.1016">
        <ele>812.5</ele>
        <time>2013-06-09T09:43:16Z</time>
      </trkpt>
      <trkpt lat="44.0717" lon="7.10164">
        <ele>813.3</ele>
        <time>2013-06-09T09:43:20Z</time>
      </trkpt>
      <trkpt lat="44.0718" lon="7.10171">
        <ele>815.9</ele>
        <time>2013-06-09T09:43:24Z</time>
      </trkpt>
      <trkpt lat="44.07195" lon="7.10183">
        <ele>819.1</ele>
        <time>2013-06-09T09:43:28Z</time>
      </trkpt>
      <trkpt lat="44.07201" lon="7.10197">
        <ele>818.1</ele>
        <time>2013-06-09T09:43:31Z</time>
      </trkpt>
      <trkpt lat="44.07214" lon="7.10205">
        <ele>818.3</ele>
        <time>2013-06-09T09:43:35Z</time>
      </trkpt>
      <trkpt lat="44.07229" lon="7.10209">
        <ele>814.9</ele>
        <time>2013-06-09T09:43:40Z</time>
      </trkpt>
      <trkpt lat="44.07254" lon="7.1021">
        <ele>811.5</ele>
        <time>2013-06-09T09:43:44Z</time>
      </trkpt>
      <trkpt lat="44.07247" lon="7.1022">
        <ele>808.4</ele>
        <time>2013-06-09T09:43:48Z</time>
      </trkpt>
      <trkpt lat="44.07249" lon="7.10221">
        <ele>807.6</ele>
        <time>2013-06-09T09:43:51Z</time>
      </trkpt>
      <trkpt lat="44.07251" lon="7.10228">
        <ele>804.5</ele>
        <time>2013-06-09T09:43:55Z</time>
      </trkpt>
      <trkpt lat="44.07246" lon="7.10237">
        <ele>801.3</ele>
        <time>2013-06-09T09:43:59Z</time>
      </trkpt>
      <trkpt lat="44.07252" lon="7.10244">
        <ele>798.5</ele>
        <time>2013-06-09T09:44:03Z</time>
      </trkpt>
      <trkpt lat="44.07262" lon="7.10244">
        <ele>797.9</ele>
        <time>2013-06-09T09:44:08Z</time>
      </trkpt>
      <trkpt lat="44.07268" lon="7.10248">
        <ele>796.5</ele>
        <time>2013-06-09T09:44:11Z</time>
      </trkpt>
      <trkpt lat="44.0727" lon="7.10254">
        <ele>794.3</ele>
        <time>2013-06-09T09:44:16Z</time>
      </trkpt>
      <trkpt lat="44.07262" lon="7.10263">
        <ele>791.3</ele>
        <time>2013-06-09T09:44:20Z</time>
      </trkpt>
      <trkpt lat="44.07264" lon="7.10272">
        <ele>788.1</ele>
        <time>2013-06-09T09:44:24Z</time>
      </trkpt>
      <trkpt lat="44.07266" lon="7.10282">
        <ele>784.7</ele>
        <time>2013-06-09T09:44:28Z</time>
      </trkpt>
      <trkpt lat="44.07252" lon="7.10295">
        <ele>778</ele>
        <time>2013-06-09T09:44:31Z</time>
      </trkpt>
      <trkpt lat="44.07235" lon="7.10293">
        <ele>777.2</ele>
        <time>2013-06-09T09:44:36Z</time>
      </trkpt>
      <trkpt lat="44.07233" lon="7.10302">
        <ele>771.4</ele>
        <time>2013-06-09T09:44:40Z</time>
      </trkpt>
      <trkpt lat="44.07239" lon="7.10319">
        <ele>762.2</ele>
        <time>2013-06-09T09:44:43Z</time>
      </trkpt>
      <trkpt lat="44.07246" lon="7.10327">
        <ele>758.3</ele>
        <time>2013-06-09T09:44:48Z</time>
      </trkpt>
      <trkpt lat="44.07258" lon="7.10329">
        <ele>759.5</ele>
        <time>2013-06-09T09:44:51Z</time>
      </trkpt>
      <trkpt lat="44.07267" lon="7.10333">
        <ele>758.6</ele>
        <time>2013-06-09T09:44:56Z</time>
      </trkpt>
      <trkpt lat="44.07274" lon="7.10335">
        <ele>758.8</ele>
        <time>2013-06-09T09:45:00Z</time>
      </trkpt>
      <trkpt lat="44.07272" lon="7.10339">
        <ele>756.1</ele>
        <time>2013-06-09T09:45:04Z</time>
      </trkpt>
      <trkpt lat="44.07278" lon="7.1034">
        <ele>756.9</ele>
        <time>2013-06-09T09:45:08Z</time>
      </trkpt>
      <trkpt lat="44.07292" lon="7.10328">
        <ele>765.4</ele>
        <time>2013-06-09T09:45:11Z</time>
      </trkpt>
      <trkpt lat="44.07306" lon="7.1032">
        <ele>761.9</ele>
        <time>2013-06-09T09:45:16Z</time>
      </trkpt>
      <trkpt lat="44.07315" lon="7.10322">
        <ele>756.5</ele>
        <time>2013-06-09T09:45:20Z</time>
      </trkpt>
      <trkpt lat="44.07317" lon="7.10326">
        <ele>754.2</ele>
        <time>2013-06-09T09:45:23Z</time>
      </trkpt>
      <trkpt lat="44.07326" lon="7.10326">
        <ele>749.5</ele>
        <time>2013-06-09T09:45:28Z</time>
      </trkpt>
      <trkpt lat="44.07339" lon="7.10321">
        <ele>744.7</ele>
        <time>2013-06-09T09:45:31Z</time>
      </trkpt>
      <trkpt lat="44.07349" lon="7.10311">
        <ele>743.5</ele>
        <time>2013-06-09T09:45:36Z</time>
      </trkpt>
      <trkpt lat="44.07355" lon="7.10314">
        <ele>738.9</ele>
        <time>2013-06-09T09:45:40Z</time>
      </trkpt>
      <trkpt lat="44.07361" lon="7.10323">
        <ele>733.1</ele>
        <time>2013-06-09T09:45:44Z</time>
      </trkpt>
      <trkpt lat="44.07367" lon="7.10312">
        <ele>733.1</ele>
        <time>2013-06-09T09:45:48Z</time>
      </trkpt>
      <trkpt lat="44.07368" lon="7.10319">
        <ele>730.7</ele>
        <time>2013-06-09T09:45:51Z</time>
      </trkpt>
      <trkpt lat="44.07367" lon="7.10328">
        <ele>728.9</ele>
        <time>2013-06-09T09:45:56Z</time>
      </trkpt>
      <trkpt lat="44.0737" lon="7.1033">
        <ele>726.5</ele>
        <time>2013-06-09T09:46:00Z</time>
      </trkpt>
      <trkpt lat="44.07372" lon="7.10342">
        <ele>722.7</ele>
        <time>2013-06-09T09:46:04Z</time>
      </trkpt>
      <trkpt lat="44.07378" lon="7.10354">
        <ele>716.6</ele>
        <time>2013-06-09T09:46:08Z</time>
      </trkpt>
      <trkpt lat="44.0738" lon="7.1036">
        <ele>713.5</ele>
        <time>2013-06-09T09:46:12Z</time>
      </trkpt>
      <trkpt lat="44.07383" lon="7.10356">
        <ele>712.4</ele>
        <time>2013-06-09T09:46:16Z</time>
      </trkpt>
      <trkpt lat="44.07387" lon="7.10355">
        <ele>709.9</ele>
        <time>2013-06-09T09:46:20Z</time>
      </trkpt>
      <trkpt lat="44.07389" lon="7.10369">
        <ele>705.3</ele>
        <time>2013-06-09T09:46:23Z</time>
      </trkpt>
      <trkpt lat="44.07392" lon="7.10392">
        <ele>696.5</ele>
        <time>2013-06-09T09:46:28Z</time>
      </trkpt>
      <trkpt lat="44.07393" lon="7.10415">
        <ele>688.5</ele>
        <time>2013-06-09T09:46:32Z</time>
      </trkpt>
      <trkpt lat="44.07392" lon="7.10429">
        <ele>684.5</ele>
        <time>2013-06-09T09:46:36Z</time>
      </trkpt>
      <trkpt lat="44.07396" lon="7.1043">
        <ele>682.1</ele>
        <time>2013-06-09T09:46:39Z</time>
      </trkpt>
      <trkpt lat="44.07394" lon="7.10438">
        <ele>680.3</ele>
        <time>2013-06-09T09:46:44Z</time>
      </trkpt>
      <trkpt lat="44.07384" lon="7.10453">
        <ele>679.4</ele>
        <time>2013-06-09T09:46:48Z</time>
      </trkpt>
      <trkpt lat="44.07382" lon="7.10462">
        <ele>677</ele>
        <time>2013-06-09T09:46:52Z</time>
      </trkpt>
      <trkpt lat="44.07388" lon="7.10463">
        <ele>674.4</ele>
        <time>2013-06-09T09:46:56Z</time>
      </trkpt>
      <trkpt lat="44.07388" lon="7.10461">
        <ele>675</ele>
        <time>2013-06-09T09:47:00Z</time>
      </trkpt>
      <trkpt lat="44.07391" lon="7.10461">
        <ele>674.2</ele>
        <time>2013-06-09T09:47:04Z</time>
      </trkpt>
      <trkpt lat="44.07391" lon="7.1046">
        <ele>674.1</ele>
        <time>2013-06-09T09:47:08Z</time>
      </trkpt>
      <trkpt lat="44.07391" lon="7.1046">
        <ele>674.2</ele>
        <time>2013-06-09T09:47:12Z</time>
      </trkpt>
      <trkpt lat="44.07391" lon="7.1046">
        <ele>674.2</ele>
        <time>2013-06-09T09:47:16Z</time>
      </trkpt>
      <trkpt lat="44.0739" lon="7.10461">
        <ele>674.1</ele>
        <time>2013-06-09T09:47:19Z</time>
      </trkpt>
      <trkpt lat="44.0739" lon="7.10471">
        <ele>670.8</ele>
        <time>2013-06-09T09:47:23Z</time>
      </trkpt>
      <trkpt lat="44.07394" lon="7.10474">
        <ele>668.1</ele>
        <time>2013-06-09T09:47:27Z</time>
      </trkpt>
      <trkpt lat="44.074" lon="7.10472">
        <ele>666.4</ele>
        <time>2013-06-09T09:47:32Z</time>
      </trkpt>
      <trkpt lat="44.07403" lon="7.1048">
        <ele>662.4</ele>
        <time>2013-06-09T09:47:36Z</time>
      </trkpt>
      <trkpt lat="44.07398" lon="7.10489">
        <ele>660.9</ele>
        <time>2013-06-09T09:47:40Z</time>
      </trkpt>
      <trkpt lat="44.07387" lon="7.10503">
        <ele>660.1</ele>
        <time>2013-06-09T09:47:44Z</time>
      </trkpt>
      <trkpt lat="44.0737" lon="7.10518">
        <ele>658.5</ele>
        <time>2013-06-09T09:47:48Z</time>
      </trkpt>
      <trkpt lat="44.07344" lon="7.10521">
        <ele>654.7</ele>
        <time>2013-06-09T09:47:52Z</time>
      </trkpt>
      <trkpt lat="44.07345" lon="7.10528">
        <ele>651.5</ele>
        <time>2013-06-09T09:47:56Z</time>
      </trkpt>
      <trkpt lat="44.07357" lon="7.10553">
        <ele>640.6</ele>
        <time>2013-06-09T09:48:00Z</time>
      </trkpt>
      <trkpt lat="44.0737" lon="7.10567">
        <ele>634.3</ele>
        <time>2013-06-09T09:48:03Z</time>
      </trkpt>
      <trkpt lat="44.07386" lon="7.10554">
        <ele>639.2</ele>
        <time>2013-06-09T09:48:07Z</time>
      </trkpt>
      <trkpt lat="44.074" lon="7.10547">
        <ele>638.3</ele>
        <time>2013-06-09T09:48:11Z</time>
      </trkpt>
      <trkpt lat="44.0742" lon="7.10545">
        <ele>632.1</ele>
        <time>2013-06-09T09:48:15Z</time>
      </trkpt>
      <trkpt lat="44.07433" lon="7.10526">
        <ele>634.8</ele>
        <time>2013-06-09T09:48:19Z</time>
      </trkpt>
      <trkpt lat="44.07452" lon="7.10519">
        <ele>630.2</ele>
        <time>2013-06-09T09:48:23Z</time>
      </trkpt>
      <trkpt lat="44.07465" lon="7.10512">
        <ele>625.2</ele>
        <time>2013-06-09T09:48:27Z</time>
      </trkpt>
      <trkpt lat="44.0747" lon="7.10503">
        <ele>625.2</ele>
        <time>2013-06-09T09:48:31Z</time>
      </trkpt>
      <trkpt lat="44.07483" lon="7.10493">
        <ele>618.8</ele>
        <time>2013-06-09T09:48:35Z</time>
      </trkpt>
      <trkpt lat="44.07501" lon="7.10467">
        <ele>614.2</ele>
        <time>2013-06-09T09:48:40Z</time>
      </trkpt>
      <trkpt lat="44.07519" lon="7.10445">
        <ele>606.3</ele>
        <time>2013-06-09T09:48:43Z</time>
      </trkpt>
      <trkpt lat="44.07544" lon="7.10416">
        <ele>592.1</ele>
        <time>2013-06-09T09:48:48Z</time>
      </trkpt>
      <trkpt lat="44.07563" lon="7.10396">
        <ele>581.7</ele>
        <time>2013-06-09T09:48:52Z</time>
      </trkpt>
      <trkpt lat="44.07567" lon="7.10379">
        <ele>581.4</ele>
        <time>2013-06-09T09:48:56Z</time>
      </trkpt>
      <trkpt lat="44.07579" lon="7.10369">
        <ele>574</ele>
        <time>2013-06-09T09:49:00Z</time>
      </trkpt>
      <trkpt lat="44.07593" lon="7.10355">
        <ele>564.2</ele>
        <time>2013-06-09T09:49:03Z</time>
      </trkpt>
      <trkpt lat="44.07607" lon="7.10353">
        <ele>554.4</ele>
        <time>2013-06-09T09:49:08Z</time>
      </trkpt>
      <trkpt lat="44.07621" lon="7.10332">
        <ele>546.2</ele>
        <time>2013-06-09T09:49:12Z</time>
      </trkpt>
      <trkpt lat="44.07627" lon="7.10322">
        <ele>543.4</ele>
        <time>2013-06-09T09:49:16Z</time>
      </trkpt>
      <trkpt lat="44.07628" lon="7.10323">
        <ele>543</ele>
        <time>2013-06-09T09:49:20Z</time>
      </trkpt>
      <trkpt lat="44.07634" lon="7.10328">
        <ele>540.9</ele>
        <time>2013-06-09T09:49:23Z</time>
      </trkpt>
      <trkpt lat="44.07645" lon="7.10331">
        <ele>537.5</ele>
        <time>2013-06-09T09:49:28Z</time>
      </trkpt>
      <trkpt lat="44.07649" lon="7.10318">
        <ele>538</ele>
        <time>2013-06-09T09:49:32Z</time>
      </trkpt>
      <trkpt lat="44.07659" lon="7.1031">
        <ele>536.5</ele>
        <time>2013-06-09T09:49:36Z</time>
      </trkpt>
      <trkpt lat="44.07666" lon="7.10307">
        <ele>535.2</ele>
        <time>2013-06-09T09:49:40Z</time>
      </trkpt>
      <trkpt lat="44.07682" lon="7.10331">
        <ele>527.1</ele>
        <time>2013-06-09T09:49:43Z</time>
      </trkpt>
      <trkpt lat="44.07702" lon="7.10344">
        <ele>518.3</ele>
        <time>2013-06-09T09:49:48Z</time>
      </trkpt>
      <trkpt lat="44.07726" lon="7.10357">
        <ele>510.6</ele>
        <time>2013-06-09T09:49:52Z</time>
      </trkpt>
      <trkpt lat="44.07737" lon="7.10354">
        <ele>509.7</ele>
        <time>2013-06-09T09:49:56Z</time>
      </trkpt>
      <trkpt lat="44.07747" lon="7.10361">
        <ele>506.5</ele>
        <time>2013-06-09T09:50:00Z</time>
      </trkpt>
      <trkpt lat="44.07755" lon="7.10375">
        <ele>501.3</ele>
        <time>2013-06-09T09:50:03Z</time>
      </trkpt>
      <trkpt lat="44.07756" lon="7.1036">
        <ele>505.3</ele>
        <time>2013-06-09T09:50:08Z</time>
      </trkpt>
      <trkpt lat="44.07756" lon="7.10352">
        <ele>507.6</ele>
        <time>2013-06-09T09:50:12Z</time>
      </trkpt>
      <trkpt lat="44.07758" lon="7.10356">
        <ele>506.1</ele>
        <time>2013-06-09T09:50:16Z</time>
      </trkpt>
      <trkpt lat="44.07759" lon="7.10358">
        <ele>505.3</ele>
        <time>2013-06-09T09:50:20Z</time>
      </trkpt>
      <trkpt lat="44.07768" lon="7.10362">
        <ele>502.9</ele>
        <time>2013-06-09T09:50:23Z</time>
      </trkpt>
      <trkpt lat="44.07789" lon="7.10381">
        <ele>494.2</ele>
        <time>2013-06-09T09:50:28Z</time>
      </trkpt>
      <trkpt lat="44.07805" lon="7.10383">
        <ele>492.4</ele>
        <time>2013-06-09T09:50:32Z</time>
      </trkpt>
      <trkpt lat="44.07814" lon="7.10368">
        <ele>496.2</ele>
        <time>2013-06-09T09:50:35Z</time>
      </trkpt>
      <trkpt lat="44.07826" lon="7.10364">
        <ele>497.4</ele>
        <time>2013-06-09T09:50:39Z</time>
      </trkpt>
      <trkpt lat="44.07844" lon="7.10365">
        <ele>496.2</ele>
        <time>2013-06-09T09:50:43Z</time>
      </trkpt>
      <trkpt lat="44.0787" lon="7.10404">
        <ele>484.7</ele>
        <time>2013-06-09T09:50:47Z</time>
      </trkpt>
      <trkpt lat="44.07891" lon="7.10429">
        <ele>481.3</ele>
        <time>2013-06-09T09:50:51Z</time>
      </trkpt>
      <trkpt lat="44.07909" lon="7.10443">
        <ele>479.8</ele>
        <time>2013-06-09T09:50:55Z</time>
      </trkpt>
      <trkpt lat="44.07927" lon="7.10445">
        <ele>480.9</ele>
        <time>2013-06-09T09:51:00Z</time>
      </trkpt>
      <trkpt lat="44.07938" lon="7.10466">
        <ele>479</ele>
        <time>2013-06-09T09:51:03Z</time>
      </trkpt>
      <trkpt lat="44.07958" lon="7.1047">
        <ele>480.8</ele>
        <time>2013-06-09T09:51:08Z</time>
      </trkpt>
      <trkpt lat="44.07985" lon="7.10462">
        <ele>482.4</ele>
        <time>2013-06-09T09:51:12Z</time>
      </trkpt>
      <trkpt lat="44.08003" lon="7.10476">
        <ele>484.5</ele>
        <time>2013-06-09T09:51:15Z</time>
      </trkpt>
      <trkpt lat="44.08012" lon="7.10488">
        <ele>484.8</ele>
        <time>2013-06-09T09:51:20Z</time>
      </trkpt>
      <trkpt lat="44.0801" lon="7.10494">
        <ele>484.7</ele>
        <time>2013-06-09T09:51:23Z</time>
      </trkpt>
      <trkpt lat="44.08005" lon="7.105">
        <ele>484.7</ele>
        <time>2013-06-09T09:51:28Z</time>
      </trkpt>
      <trkpt lat="44.07999" lon="7.10513">
        <ele>485</ele>
        <time>2013-06-09T09:51:32Z</time>
      </trkpt>
      <trkpt lat="44.07996" lon="7.10536">
        <ele>486</ele>
        <time>2013-06-09T09:51:36Z</time>
      </trkpt>
      <trkpt lat="44.08014" lon="7.10536">
        <ele>483.5</ele>
        <time>2013-06-09T09:51:40Z</time>
      </trkpt>
      <trkpt lat="44.08032" lon="7.10537">
        <ele>480.9</ele>
        <time>2013-06-09T09:51:43Z</time>
      </trkpt>
      <trkpt lat="44.08052" lon="7.10546">
        <ele>480.6</ele>
        <time>2013-06-09T09:51:47Z</time>
      </trkpt>
      <trkpt lat="44.08067" lon="7.10567">
        <ele>484.9</ele>
        <time>2013-06-09T09:51:52Z</time>
      </trkpt>
      <trkpt lat="44.08075" lon="7.10581">
        <ele>486.5</ele>
        <time>2013-06-09T09:51:56Z</time>
      </trkpt>
      <trkpt lat="44.08083" lon="7.10577">
        <ele>485.4</ele>
        <time>2013-06-09T09:52:00Z</time>
      </trkpt>
      <trkpt lat="44.08085" lon="7.10576">
        <ele>485.2</ele>
        <time>2013-06-09T09:52:03Z</time>
      </trkpt>
      <trkpt lat="44.08083" lon="7.1058">
        <ele>485.7</ele>
        <time>2013-06-09T09:52:08Z</time>
      </trkpt>
      <trkpt lat="44.08083" lon="7.10579">
        <ele>485.7</ele>
        <time>2013-06-09T09:52:11Z</time>
      </trkpt>
      <trkpt lat="44.08085" lon="7.10578">
        <ele>485.4</ele>
        <time>2013-06-09T09:52:16Z</time>
      </trkpt>
      <trkpt lat="44.08086" lon="7.1058">
        <ele>485.5</ele>
        <time>2013-06-09T09:52:20Z</time>
      </trkpt>
      <trkpt lat="44.08084" lon="7.10582">
        <ele>485.8</ele>
        <time>2013-06-09T09:52:24Z</time>
      </trkpt>
      <trkpt lat="44.08084" lon="7.10583">
        <ele>485.9</ele>
        <time>2013-06-09T09:52:27Z</time>
      </trkpt>
      <trkpt lat="44.08084" lon="7.10583">
        <ele>485.9</ele>
        <time>2013-06-09T09:52:31Z</time>
      </trkpt>
      <trkpt lat="44.08084" lon="7.10583">
        <ele>485.9</ele>
        <time>2013-06-09T09:52:35Z</time>
      </trkpt>
      <trkpt lat="44.08084" lon="7.10583">
        <ele>485.9</ele>
        <time>2013-06-09T09:52:40Z</time>
      </trkpt>
      <trkpt lat="44.08084" lon="7.10583">
        <ele>485.9</ele>
        <time>2013-06-09T09:52:44Z</time>
      </trkpt>
      <trkpt lat="44.08084" lon="7.10584">
        <ele>486</ele>
        <time>2013-06-09T09:52:48Z</time>
      </trkpt>
      <trkpt lat="44.08084" lon="7.10584">
        <ele>486.1</ele>
        <time>2013-06-09T09:52:52Z</time>
      </trkpt>
      <trkpt lat="44.08083" lon="7.10585">
        <ele>486.2</ele>
        <time>2013-06-09T09:52:56Z</time>
      </trkpt>
      <trkpt lat="44.08083" lon="7.10585">
        <ele>486.2</ele>
        <time>2013-06-09T09:53:00Z</time>
      </trkpt>
      <trkpt lat="44.08083" lon="7.10585">
        <ele>486.2</ele>
        <time>2013-06-09T09:53:04Z</time>
      </trkpt>
      <trkpt lat="44.08083" lon="7.10585">
        <ele>486.2</ele>
        <time>2013-06-09T09:53:08Z</time>
      </trkpt>
      <trkpt lat="44.08083" lon="7.10585">
        <ele>486.2</ele>
        <time>2013-06-09T09:53:12Z</time>
      </trkpt>
      <trkpt lat="44.08083" lon="7.10585">
        <ele>486.2</ele>
        <time>2013-06-09T09:53:16Z</time>
      </trkpt>
      <trkpt lat="44.08083" lon="7.10585">
        <ele>486.2</ele>
        <time>2013-06-09T09:53:20Z</time>
      </trkpt>
      <trkpt lat="44.08083" lon="7.10585">
        <ele>486.2</ele>
        <time>2013-06-09T09:53:24Z</time>
      </trkpt>
      <trkpt lat="44.08083" lon="7.10585">
        <ele>486.2</ele>
        <time>2013-06-09T09:53:28Z</time>
      </trkpt>
      <trkpt lat="44.08083" lon="7.10585">
        <ele>486.2</ele>
        <time>2013-06-09T09:53:32Z</time>
      </trkpt>
      <trkpt lat="44.08083" lon="7.10585">
        <ele>486.2</ele>
        <time>2013-06-09T09:53:36Z</time>
      </trkpt>
      <trkpt lat="44.08083" lon="7.10585">
        <ele>486.2</ele>
        <time>2013-06-09T09:53:40Z</time>
      </trkpt>
      <trkpt lat="44.08091" lon="7.10586">
        <ele>485.4</ele>
        <time>2013-06-09T09:53:44Z</time>
      </trkpt>
      <trkpt lat="44.08106" lon="7.10582">
        <ele>483.9</ele>
        <time>2013-06-09T09:53:48Z</time>
      </trkpt>
      <trkpt lat="44.08121" lon="7.10578">
        <ele>482.6</ele>
        <time>2013-06-09T09:53:52Z</time>
      </trkpt>
      <trkpt lat="44.08137" lon="7.10572">
        <ele>483.3</ele>
        <time>2013-06-09T09:53:56Z</time>
      </trkpt>
      <trkpt lat="44.08154" lon="7.10565">
        <ele>484.4</ele>
        <time>2013-06-09T09:54:00Z</time>
      </trkpt>
      <trkpt lat="44.0817" lon="7.10558">
        <ele>485.1</ele>
        <time>2013-06-09T09:54:04Z</time>
      </trkpt>
      <trkpt lat="44.08181" lon="7.10552">
        <ele>485.5</ele>
        <time>2013-06-09T09:54:08Z</time>
      </trkpt>
      <trkpt lat="44.08191" lon="7.1055">
        <ele>485.8</ele>
        <time>2013-06-09T09:54:12Z</time>
      </trkpt>
      <trkpt lat="44.082" lon="7.10542">
        <ele>485.9</ele>
        <time>2013-06-09T09:54:16Z</time>
      </trkpt>
      <trkpt lat="44.08208" lon="7.10531">
        <ele>489.8</ele>
        <time>2013-06-09T09:54:20Z</time>
      </trkpt>
      <trkpt lat="44.08218" lon="7.10518">
        <ele>493.1</ele>
        <time>2013-06-09T09:54:24Z</time>
      </trkpt>
      <trkpt lat="44.08226" lon="7.10507">
        <ele>495.2</ele>
        <time>2013-06-09T09:54:28Z</time>
      </trkpt>
      <trkpt lat="44.08234" lon="7.10495">
        <ele>496.8</ele>
        <time>2013-06-09T09:54:32Z</time>
      </trkpt>
      <trkpt lat="44.08239" lon="7.10485">
        <ele>498</ele>
        <time>2013-06-09T09:54:36Z</time>
      </trkpt>
      <trkpt lat="44.08241" lon="7.10481">
        <ele>498.4</ele>
        <time>2013-06-09T09:54:40Z</time>
      </trkpt>
      <trkpt lat="44.0824" lon="7.10478">
        <ele>499.4</ele>
        <time>2013-06-09T09:54:44Z</time>
      </trkpt>
      <trkpt lat="44.0824" lon="7.10476">
        <ele>500.1</ele>
        <time>2013-06-09T09:54:48Z</time>
      </trkpt>
      <trkpt lat="44.0824" lon="7.10473">
        <ele>500.4</ele>
        <time>2013-06-09T09:54:52Z</time>
      </trkpt>
      <trkpt lat="44.08241" lon="7.10473">
        <ele>500.4</ele>
        <time>2013-06-09T09:54:56Z</time>
      </trkpt>
      <trkpt lat="44.08241" lon="7.10473">
        <ele>500.4</ele>
        <time>2013-06-09T09:55:00Z</time>
      </trkpt>
      <trkpt lat="44.08241" lon="7.10473">
        <ele>500.4</ele>
        <time>2013-06-09T09:55:04Z</time>
      </trkpt>
      <trkpt lat="44.08241" lon="7.10473">
        <ele>500.4</ele>
        <time>2013-06-09T09:55:08Z</time>
      </trkpt>
      <trkpt lat="44.08241" lon="7.10473">
        <ele>500.4</ele>
        <time>2013-06-09T09:55:12Z</time>
      </trkpt>
      <trkpt lat="44.08241" lon="7.10473">
        <ele>500.4</ele>
        <time>2013-06-09T09:55:16Z</time>
      </trkpt>
      <trkpt lat="44.08241" lon="7.10473">
        <ele>500.4</ele>
        <time>2013-06-09T09:55:20Z</time>
      </trkpt>
      <trkpt lat="44.08241" lon="7.10473">
        <ele>500.4</ele>
        <time>2013-06-09T09:55:24Z</time>
      </trkpt>
      <trkpt lat="44.08241" lon="7.10473">
        <ele>500.4</ele>
        <time>2013-06-09T09:55:28Z</time>
      </trkpt>
      <trkpt lat="44.08241" lon="7.10473">
        <ele>500.4</ele>
        <time>2013-06-09T09:55:32Z</time>
      </trkpt>
      <trkpt lat="44.08241" lon="7.10473">
        <ele>500.4</ele>
        <time>2013-06-09T09:55:36Z</time>
      </trkpt>
      <trkpt lat="44.08241" lon="7.10473">
        <ele>500.4</ele>
        <time>2013-06-09T09:55:40Z</time>
      </trkpt>
      <trkpt lat="44.08241" lon="7.10473">
        <ele>500.4</ele>
        <time>2013-06-09T09:55:44Z</time>
      </trkpt>
      <trkpt lat="44.08241" lon="7.10473">
        <ele>500.4</ele>
        <time>2013-06-09T09:55:48Z</time>
      </trkpt>
      <trkpt lat="44.08241" lon="7.10473">
        <ele>500.4</ele>
        <time>2013-06-09T09:55:52Z</time>
      </trkpt>
      <trkpt lat="44.08241" lon="7.10473">
        <ele>500.4</ele>
        <time>2013-06-09T09:55:56Z</time>
      </trkpt>
      <trkpt lat="44.08241" lon="7.10473">
        <ele>500.4</ele>
        <time>2013-06-09T09:56:00Z</time>
      </trkpt>
      <trkpt lat="44.08241" lon="7.10473">
        <ele>500.4</ele>
        <time>2013-06-09T09:56:04Z</time>
      </trkpt>
      <trkpt lat="44.08241" lon="7.10473">
        <ele>500.4</ele>
        <time>2013-06-09T09:56:08Z</time>
      </trkpt>
      <trkpt lat="44.08241" lon="7.10473">
        <ele>500.4</ele>
        <time>2013-06-09T09:56:12Z</time>
      </trkpt>
      <trkpt lat="44.08241" lon="7.10473">
        <ele>500.4</ele>
        <time>2013-06-09T09:56:16Z</time>
      </trkpt>
      <trkpt lat="44.08241" lon="7.10473">
        <ele>500.4</ele>
        <time>2013-06-09T09:56:20Z</time>
      </trkpt>
      <trkpt lat="44.08241" lon="7.10473">
        <ele>500.4</ele>
        <time>2013-06-09T09:56:24Z</time>
      </trkpt>
      <trkpt lat="44.08241" lon="7.10473">
        <ele>500.4</ele>
        <time>2013-06-09T09:56:28Z</time>
      </trkpt>
      <trkpt lat="44.08241" lon="7.10473">
        <ele>500.4</ele>
        <time>2013-06-09T09:56:32Z</time>
      </trkpt>
      <trkpt lat="44.08241" lon="7.10473">
        <ele>500.4</ele>
        <time>2013-06-09T09:56:36Z</time>
      </trkpt>
      <trkpt lat="44.08241" lon="7.10473">
        <ele>500.4</ele>
        <time>2013-06-09T09:56:40Z</time>
      </trkpt>
      <trkpt lat="44.08241" lon="7.10473">
        <ele>500.4</ele>
        <time>2013-06-09T09:56:44Z</time>
      </trkpt>
      <trkpt lat="44.08241" lon="7.10473">
        <ele>500.4</ele>
        <time>2013-06-09T09:56:48Z</time>
      </trkpt>
      <trkpt lat="44.08241" lon="7.10473">
        <ele>500.4</ele>
        <time>2013-06-09T09:56:52Z</time>
      </trkpt>
      <trkpt lat="44.08241" lon="7.10473">
        <ele>500.4</ele>
        <time>2013-06-09T09:56:56Z</time>
      </trkpt>
      <trkpt lat="44.08241" lon="7.10473">
        <ele>500.4</ele>
        <time>2013-06-09T09:57:00Z</time>
      </trkpt>
      <trkpt lat="44.08241" lon="7.10473">
        <ele>500.4</ele>
        <time>2013-06-09T09:57:04Z</time>
      </trkpt>
      <trkpt lat="44.08241" lon="7.10473">
        <ele>500.4</ele>
        <time>2013-06-09T09:57:08Z</time>
      </trkpt>
      <trkpt lat="44.08241" lon="7.10473">
        <ele>500.4</ele>
        <time>2013-06-09T09:57:12Z</time>
      </trkpt>
      <trkpt lat="44.08241" lon="7.10473">
        <ele>500.4</ele>
        <time>2013-06-09T09:57:16Z</time>
      </trkpt>
      <trkpt lat="44.08241" lon="7.10473">
        <ele>500.4</ele>
        <time>2013-06-09T09:57:20Z</time>
      </trkpt>
      <trkpt lat="44.08241" lon="7.10473">
        <ele>500.4</ele>
        <time>2013-06-09T09:57:24Z</time>
      </trkpt>
      <trkpt lat="44.08241" lon="7.10473">
        <ele>500.4</ele>
        <time>2013-06-09T09:57:28Z</time>
      </trkpt>
      <trkpt lat="44.08241" lon="7.10473">
        <ele>500.4</ele>
        <time>2013-06-09T09:57:32Z</time>
      </trkpt>
      <trkpt lat="44.08241" lon="7.10473">
        <ele>500.5</ele>
        <time>2013-06-09T09:57:36Z</time>
      </trkpt>
      <trkpt lat="44.08241" lon="7.10473">
        <ele>500.5</ele>
        <time>2013-06-09T09:57:40Z</time>
      </trkpt>
      <trkpt lat="44.08241" lon="7.10473">
        <ele>500.5</ele>
        <time>2013-06-09T09:57:44Z</time>
      </trkpt>
      <trkpt lat="44.08241" lon="7.10473">
        <ele>500.5</ele>
        <time>2013-06-09T09:57:48Z</time>
      </trkpt>
      <trkpt lat="44.08241" lon="7.10473">
        <ele>500.5</ele>
        <time>2013-06-09T09:57:52Z</time>
      </trkpt>
      <trkpt lat="44.08241" lon="7.10473">
        <ele>500.5</ele>
        <time>2013-06-09T09:57:56Z</time>
      </trkpt>
      <trkpt lat="44.08241" lon="7.10473">
        <ele>500.5</ele>
        <time>2013-06-09T09:58:00Z</time>
      </trkpt>
      <trkpt lat="44.08241" lon="7.10473">
        <ele>500.5</ele>
        <time>2013-06-09T09:58:04Z</time>
      </trkpt>
      <trkpt lat="44.08241" lon="7.10473">
        <ele>500.5</ele>
        <time>2013-06-09T09:58:08Z</time>
      </trkpt>
      <trkpt lat="44.08241" lon="7.10473">
        <ele>500.5</ele>
        <time>2013-06-09T09:58:12Z</time>
      </trkpt>
      <trkpt lat="44.08241" lon="7.10473">
        <ele>500.5</ele>
        <time>2013-06-09T09:58:16Z</time>
      </trkpt>
      <trkpt lat="44.08241" lon="7.10473">
        <ele>500.5</ele>
        <time>2013-06-09T09:58:20Z</time>
      </trkpt>
      <trkpt lat="44.08241" lon="7.10473">
        <ele>500.5</ele>
        <time>2013-06-09T09:58:24Z</time>
      </trkpt>
      <trkpt lat="44.08241" lon="7.10473">
        <ele>500.5</ele>
        <time>2013-06-09T09:58:28Z</time>
      </trkpt>
      <trkpt lat="44.08241" lon="7.10473">
        <ele>500.5</ele>
        <time>2013-06-09T09:58:32Z</time>
      </trkpt>
      <trkpt lat="44.08241" lon="7.10473">
        <ele>500.5</ele>
        <time>2013-06-09T09:58:36Z</time>
      </trkpt>
      <trkpt lat="44.08241" lon="7.10473">
        <ele>500.5</ele>
        <time>2013-06-09T09:58:40Z</time>
      </trkpt>
      <trkpt lat="44.08241" lon="7.10473">
        <ele>500.5</ele>
        <time>2013-06-09T09:58:44Z</time>
      </trkpt>
      <trkpt lat="44.08241" lon="7.10473">
        <ele>500.5</ele>
        <time>2013-06-09T09:58:48Z</time>
      </trkpt>
      <trkpt lat="44.08241" lon="7.10473">
        <ele>500.5</ele>
        <time>2013-06-09T09:58:52Z</time>
      </trkpt>
      <trkpt lat="44.08241" lon="7.10473">
        <ele>500.5</ele>
        <time>2013-06-09T09:58:56Z</time>
      </trkpt>
      <trkpt lat="44.08241" lon="7.10473">
        <ele>500.5</ele>
        <time>2013-06-09T09:59:00Z</time>
      </trkpt>
      <trkpt lat="44.08241" lon="7.10473">
        <ele>500.5</ele>
        <time>2013-06-09T09:59:04Z</time>
      </trkpt>
      <trkpt lat="44.08241" lon="7.10473">
        <ele>500.5</ele>
        <time>2013-06-09T09:59:08Z</time>
      </trkpt>
      <trkpt lat="44.08241" lon="7.10473">
        <ele>500.5</ele>
        <time>2013-06-09T09:59:12Z</time>
      </trkpt>
      <trkpt lat="44.08241" lon="7.10473">
        <ele>500.5</ele>
        <time>2013-06-09T09:59:16Z</time>
      </trkpt>
      <trkpt lat="44.08241" lon="7.10473">
        <ele>500.5</ele>
        <time>2013-06-09T09:59:20Z</time>
      </trkpt>
      <trkpt lat="44.08241" lon="7.10473">
        <ele>500.5</ele>
        <time>2013-06-09T09:59:24Z</time>
      </trkpt>
      <trkpt lat="44.08241" lon="7.10473">
        <ele>500.4</ele>
        <time>2013-06-09T09:59:28Z</time>
      </trkpt>
      <trkpt lat="44.08241" lon="7.10473">
        <ele>500.4</ele>
        <time>2013-06-09T09:59:32Z</time>
      </trkpt>
      <trkpt lat="44.08241" lon="7.10473">
        <ele>500.5</ele>
        <time>2013-06-09T09:59:36Z</time>
      </trkpt>
      <trkpt lat="44.08241" lon="7.10473">
        <ele>500.5</ele>
        <time>2013-06-09T09:59:40Z</time>
      </trkpt>
      <trkpt lat="44.08241" lon="7.10473">
        <ele>500.5</ele>
        <time>2013-06-09T09:59:44Z</time>
      </trkpt>
      <trkpt lat="44.08241" lon="7.10473">
        <ele>500.5</ele>
        <time>2013-06-09T09:59:48Z</time>
      </trkpt>
      <trkpt lat="44.08241" lon="7.10473">
        <ele>500.5</ele>
        <time>2013-06-09T09:59:52Z</time>
      </trkpt>
      <trkpt lat="44.08241" lon="7.10473">
        <ele>500.5</ele>
        <time>2013-06-09T09:59:56Z</time>
      </trkpt>
      <trkpt lat="44.08241" lon="7.10473">
        <ele>500.5</ele>
        <time>2013-06-09T10:00:00Z</time>
      </trkpt>
      <trkpt lat="44.08241" lon="7.10473">
        <ele>500.5</ele>
        <time>2013-06-09T10:00:04Z</time>
      </trkpt>
      <trkpt lat="44.08241" lon="7.10473">
        <ele>500.5</ele>
        <time>2013-06-09T10:00:08Z</time>
      </trkpt>
      <trkpt lat="44.08241" lon="7.10473">
        <ele>500.5</ele>
        <time>2013-06-09T10:00:12Z</time>
      </trkpt>
      <trkpt lat="44.08241" lon="7.10473">
        <ele>500.5</ele>
        <time>2013-06-09T10:00:16Z</time>
      </trkpt>
      <trkpt lat="44.08241" lon="7.10473">
        <ele>500.5</ele>
        <time>2013-06-09T10:00:20Z</time>
      </trkpt>
      <trkpt lat="44.08241" lon="7.10473">
        <ele>500.5</ele>
        <time>2013-06-09T10:00:24Z</time>
      </trkpt>
      <trkpt lat="44.08241" lon="7.10473">
        <ele>500.5</ele>
        <time>2013-06-09T10:00:28Z</time>
      </trkpt>
      <trkpt lat="44.08241" lon="7.10473">
        <ele>500.4</ele>
        <time>2013-06-09T10:00:32Z</time>
      </trkpt>
      <trkpt lat="44.08241" lon="7.10473">
        <ele>500.4</ele>
        <time>2013-06-09T10:00:36Z</time>
      </trkpt>
      <trkpt lat="44.08241" lon="7.10473">
        <ele>500.4</ele>
        <time>2013-06-09T10:00:40Z</time>
      </trkpt>
      <trkpt lat="44.08241" lon="7.10473">
        <ele>500.5</ele>
        <time>2013-06-09T10:00:44Z</time>
      </trkpt>
      <trkpt lat="44.08241" lon="7.10473">
        <ele>500.5</ele>
        <time>2013-06-09T10:00:48Z</time>
      </trkpt>
      <trkpt lat="44.08241" lon="7.10473">
        <ele>500.5</ele>
        <time>2013-06-09T10:00:52Z</time>
      </trkpt>
      <trkpt lat="44.08241" lon="7.10473">
        <ele>500.5</ele>
        <time>2013-06-09T10:00:56Z</time>
      </trkpt>
      <trkpt lat="44.08241" lon="7.10473">
        <ele>500.5</ele>
        <time>2013-06-09T10:01:00Z</time>
      </trkpt>
      <trkpt lat="44.08241" lon="7.10473">
        <ele>500.5</ele>
        <time>2013-06-09T10:01:04Z</time>
      </trkpt>
      <trkpt lat="44.08241" lon="7.10473">
        <ele>500.5</ele>
        <time>2013-06-09T10:01:08Z</time>
      </trkpt>
      <trkpt lat="44.08241" lon="7.10473">
        <ele>500.5</ele>
        <time>2013-06-09T10:01:12Z</time>
      </trkpt>
      <trkpt lat="44.08241" lon="7.10473">
        <ele>500.5</ele>
        <time>2013-06-09T10:01:16Z</time>
      </trkpt>
      <trkpt lat="44.08241" lon="7.10473">
        <ele>500.5</ele>
        <time>2013-06-09T10:01:20Z</time>
      </trkpt>
      <trkpt lat="44.08241" lon="7.10473">
        <ele>500.5</ele>
        <time>2013-06-09T10:01:24Z</time>
      </trkpt>
      <trkpt lat="44.08241" lon="7.10473">
        <ele>500.5</ele>
        <time>2013-06-09T10:01:28Z</time>
      </trkpt>
      <trkpt lat="44.08241" lon="7.10472">
        <ele>500.5</ele>
        <time>2013-06-09T10:01:32Z</time>
      </trkpt>
      <trkpt lat="44.08241" lon="7.10472">
        <ele>500.6</ele>
        <time>2013-06-09T10:01:36Z</time>
      </trkpt>
      <trkpt lat="44.08241" lon="7.10472">
        <ele>500.6</ele>
        <time>2013-06-09T10:01:40Z</time>
      </trkpt>
      <trkpt lat="44.08241" lon="7.10472">
        <ele>500.6</ele>
        <time>2013-06-09T10:01:44Z</time>
      </trkpt>
      <trkpt lat="44.08241" lon="7.10472">
        <ele>500.6</ele>
        <time>2013-06-09T10:01:48Z</time>
      </trkpt>
      <trkpt lat="44.08241" lon="7.10472">
        <ele>500.6</ele>
        <time>2013-06-09T10:01:52Z</time>
      </trkpt>
      <trkpt lat="44.08241" lon="7.10472">
        <ele>500.6</ele>
        <time>2013-06-09T10:01:56Z</time>
      </trkpt>
      <trkpt lat="44.08241" lon="7.10472">
        <ele>500.6</ele>
        <time>2013-06-09T10:02:00Z</time>
      </trkpt>
      <trkpt lat="44.08241" lon="7.10472">
        <ele>500.6</ele>
        <time>2013-06-09T10:02:04Z</time>
      </trkpt>
      <trkpt lat="44.08241" lon="7.10472">
        <ele>500.6</ele>
        <time>2013-06-09T10:02:08Z</time>
      </trkpt>
      <trkpt lat="44.08241" lon="7.10472">
        <ele>500.6</ele>
        <time>2013-06-09T10:02:12Z</time>
      </trkpt>
      <trkpt lat="44.08241" lon="7.10472">
        <ele>500.6</ele>
        <time>2013-06-09T10:02:16Z</time>
      </trkpt>
      <trkpt lat="44.08241" lon="7.10472">
        <ele>500.6</ele>
        <time>2013-06-09T10:02:20Z</time>
      </trkpt>
      <trkpt lat="44.08241" lon="7.10472">
        <ele>500.6</ele>
        <time>2013-06-09T10:02:24Z</time>
      </trkpt>
      <trkpt lat="44.08241" lon="7.10472">
        <ele>500.6</ele>
        <time>2013-06-09T10:02:28Z</time>
      </trkpt>
      <trkpt lat="44.08241" lon="7.10472">
        <ele>500.6</ele>
        <time>2013-06-09T10:02:32Z</time>
      </trkpt>
      <trkpt lat="44.08241" lon="7.10472">
        <ele>500.6</ele>
        <time>2013-06-09T10:02:36Z</time>
      </trkpt>
      <trkpt lat="44.08241" lon="7.10472">
        <ele>500.6</ele>
        <time>2013-06-09T10:02:40Z</time>
      </trkpt>
      <trkpt lat="44.08241" lon="7.10472">
        <ele>500.6</ele>
        <time>2013-06-09T10:02:44Z</time>
      </trkpt>
      <trkpt lat="44.08241" lon="7.10472">
        <ele>500.6</ele>
        <time>2013-06-09T10:02:48Z</time>
      </trkpt>
      <trkpt lat="44.08241" lon="7.10472">
        <ele>500.6</ele>
        <time>2013-06-09T10:02:52Z</time>
      </trkpt>
      <trkpt lat="44.08241" lon="7.10472">
        <ele>500.5</ele>
        <time>2013-06-09T10:02:56Z</time>
      </trkpt>
      <trkpt lat="44.08241" lon="7.10472">
        <ele>500.5</ele>
        <time>2013-06-09T10:03:00Z</time>
      </trkpt>
      <trkpt lat="44.08241" lon="7.10472">
        <ele>500.5</ele>
        <time>2013-06-09T10:03:04Z</time>
      </trkpt>
      <trkpt lat="44.08241" lon="7.10472">
        <ele>500.6</ele>
        <time>2013-06-09T10:03:08Z</time>
      </trkpt>
      <trkpt lat="44.08241" lon="7.10472">
        <ele>500.6</ele>
        <time>2013-06-09T10:03:12Z</time>
      </trkpt>
      <trkpt lat="44.08241" lon="7.10472">
        <ele>500.6</ele>
        <time>2013-06-09T10:03:16Z</time>
      </trkpt>
      <trkpt lat="44.08241" lon="7.10472">
        <ele>500.6</ele>
        <time>2013-06-09T10:03:20Z</time>
      </trkpt>
      <trkpt lat="44.08241" lon="7.10472">
        <ele>500.6</ele>
        <time>2013-06-09T10:03:24Z</time>
      </trkpt>
      <trkpt lat="44.08242" lon="7.10472">
        <ele>500.1</ele>
        <time>2013-06-09T10:03:28Z</time>
      </trkpt>
      <trkpt lat="44.08245" lon="7.10473">
        <ele>499.3</ele>
        <time>2013-06-09T10:03:32Z</time>
      </trkpt>
      <trkpt lat="44.08246" lon="7.10471">
        <ele>499.3</ele>
        <time>2013-06-09T10:03:36Z</time>
      </trkpt>
      <trkpt lat="44.08247" lon="7.1047">
        <ele>499.2</ele>
        <time>2013-06-09T10:03:40Z</time>
      </trkpt>
      <trkpt lat="44.08247" lon="7.1047">
        <ele>499.3</ele>
        <time>2013-06-09T10:03:44Z</time>
      </trkpt>
      <trkpt lat="44.08246" lon="7.1047">
        <ele>499.3</ele>
        <time>2013-06-09T10:03:48Z</time>
      </trkpt>
      <trkpt lat="44.08247" lon="7.1047">
        <ele>499.3</ele>
        <time>2013-06-09T10:03:52Z</time>
      </trkpt>
      <trkpt lat="44.08247" lon="7.1047">
        <ele>499.4</ele>
        <time>2013-06-09T10:03:56Z</time>
      </trkpt>
      <trkpt lat="44.08247" lon="7.1047">
        <ele>499.4</ele>
        <time>2013-06-09T10:04:00Z</time>
      </trkpt>
      <trkpt lat="44.08246" lon="7.1047">
        <ele>499.4</ele>
        <time>2013-06-09T10:04:04Z</time>
      </trkpt>
      <trkpt lat="44.08246" lon="7.1047">
        <ele>499.4</ele>
        <time>2013-06-09T10:04:08Z</time>
      </trkpt>
      <trkpt lat="44.08246" lon="7.1047">
        <ele>499.4</ele>
        <time>2013-06-09T10:04:12Z</time>
      </trkpt>
      <trkpt lat="44.08246" lon="7.1047">
        <ele>499.4</ele>
        <time>2013-06-09T10:04:19Z</time>
      </trkpt>
      <trkpt lat="44.08246" lon="7.1047">
        <ele>499.4</ele>
        <time>2013-06-09T10:04:24Z</time>
      </trkpt>
      <trkpt lat="44.08246" lon="7.1047">
        <ele>499.4</ele>
        <time>2013-06-09T10:04:28Z</time>
      </trkpt>
      <trkpt lat="44.08246" lon="7.1047">
        <ele>499.4</ele>
        <time>2013-06-09T10:04:32Z</time>
      </trkpt>
      <trkpt lat="44.08246" lon="7.1047">
        <ele>499.4</ele>
        <time>2013-06-09T10:04:39Z</time>
      </trkpt>
      <trkpt lat="44.08246" lon="7.1047">
        <ele>499.4</ele>
        <time>2013-06-09T10:04:48Z</time>
      </trkpt>
      <trkpt lat="44.08246" lon="7.1047">
        <ele>499.4</ele>
        <time>2013-06-09T10:04:52Z</time>
      </trkpt>
      <trkpt lat="44.08246" lon="7.1047">
        <ele>499.4</ele>
        <time>2013-06-09T10:04:56Z</time>
      </trkpt>
      <trkpt lat="44.08246" lon="7.1047">
        <ele>499.4</ele>
        <time>2013-06-09T10:05:00Z</time>
      </trkpt>
      <trkpt lat="44.08246" lon="7.1047">
        <ele>499.4</ele>
        <time>2013-06-09T10:05:04Z</time>
      </trkpt>
      <trkpt lat="44.08246" lon="7.1047">
        <ele>499.4</ele>
        <time>2013-06-09T10:05:08Z</time>
      </trkpt>
      <trkpt lat="44.08246" lon="7.1047">
        <ele>499.4</ele>
        <time>2013-06-09T10:05:11Z</time>
      </trkpt>
    </trkseg>
  </trk>
</gpx>